[[{"header":{"parameterUnit":"m.s-1","parameterCategory":1,"la1":31.0,"la2":29.5877,"lo1":-88.7671,"lo2":-86.6584,"dy":0.0162,"dx":0.0185,"nx":115,"ny":88,"refTime":"2023-05-01T00:00:00:Z","depth":0,"parameterNumber":2,"parameterNumberName":"U-component_of_WINDS"},"data":[0.0,0.0,0.0,0.0,0.0,0.0,0.0,0.0,0.0,0.0,0.0,0.0,0.0,0.0,0.0,0.0,0.0,0.0,0.0,0.0,0.0,0.0,0.0,0.0,0.0,0.0,0.0,0.0,0.0,0.0,0.0,0.0,0.0,0.0,0.0,0.0,0.0,0.0,0.0,0.0,0.0,0.0,0.0,0.0,0.0,0.0,0.0,0.0,0.0,0.0,0.0,0.0,0.0,0.0,0.0,0.0,0.0,0.0,0.0,0.0,0.0,0.0,0.0,0.0,0.0,0.0,0.0,0.0,0.0,0.0,0.0,0.0,0.0,0.0,0.0,0.0,0.0,0.0,0.0,0.0,0.0,0.0,0.0,0.0,0.0,0.0,0.0,0.0,0.0,0.0,0.0,0.0,0.0,0.0,0.0,0.0,0.0,0.0,0.0,0.0,0.0,0.0,0.0,0.0,0.0,0.0,0.0,0.0,0.0,0.0,0.0,0.0,0.0,0.0,0.0,0.0,0.0,0.0,0.0,0.0,0.0,0.0,0.0,0.0,0.0,0.0,0.0,0.0,0.0,0.0,0.0,0.0,0.0,0.0,0.0,0.0,0.0,0.0,0.0,0.0,0.0,0.0,0.0,0.0,0.0,0.0,0.0,0.0,0.0,0.0,0.0,0.0,0.0,0.0,0.0,0.0,0.0,0.0,0.0,0.0,0.0,0.0,0.0,0.0,0.0,0.0,0.0,0.0,0.0,0.0,0.0,0.0,0.0,0.0,0.0,0.0,0.0,0.0,0.0,0.0,0.0,0.0,0.0,0.0,0.0,0.0,0.0,0.0,0.0,0.0,0.0,0.0,0.0,0.0,0.0,0.0,0.0,0.0,0.0,0.0,0.0,0.0,0.0,0.0,0.0,0.0,0.0,0.0,0.0,0.0,0.0,0.0,0.0,0.0,0.0,0.0,0.0,0.0,0.0,0.0,0.0,0.0,0.0,0.0,0.0,0.0,0.0,0.0,0.0,0.0,0.0,0.0,0.0,0.0,0.0,0.0,0.0,0.0,0.0,0.0,0.0,0.0,0.0,0.0,0.0,0.0,0.0,0.0,0.0,0.0,0.0,0.0,0.0,0.0,0.0,0.0,0.0,0.0,0.0,0.0,0.0,0.0,0.0,0.0,0.0,0.0,0.0,0.0,0.0,0.0,0.0,0.0,0.0,0.0,0.0,0.0,0.0,0.0,0.0,0.0,0.0,0.0,0.0,0.0,0.0,0.0,0.0,0.0,0.0,0.0,0.0,0.0,0.0,0.0,0.0,0.0,0.0,0.0,0.0,0.0,0.0,0.0,0.0,0.0,0.0,0.0,0.0,0.0,0.0,0.0,0.0,0.0,0.0,0.0,0.0,0.0,0.0,0.0,0.0,0.0,0.0,0.0,0.0,0.0,0.0,0.0,0.0,0.0,0.0,0.0,0.0,0.0,0.0,0.0,0.0,0.0,0.0,0.0,0.0,0.0,0.0,0.0,0.0,0.0,0.0,0.0,0.0,0.0,0.0,0.0,0.0,0.0,0.0,0.0,0.0,0.0,0.0,0.0,0.0,0.0,0.0,0.0,0.0,0.0,0.0,0.0,0.0,0.0,0.0,0.0,0.0,0.0,0.0,0.0,0.0,0.0,0.0,0.0,0.0,0.0,0.0,0.0,0.0,0.0,0.0,0.0,0.0,0.0,0.0,0.0,0.0,0.0,0.0,0.0,0.0,0.0,0.0,0.0,0.0,0.0,0.0,0.0,0.0,0.0,0.0,0.0,0.0,0.0,0.0,0.0,0.0,0.0,0.0,0.0,0.0,0.0,0.0,0.0,0.0,0.0,0.0,0.0,0.0,0.0,0.0,0.0,0.0,0.0,0.0,0.0,0.0,0.0,0.0,0.0,0.0,0.0,0.0,0.0,0.0,0.0,0.0,0.0,0.0,0.0,0.0,0.0,0.0,0.0,0.0,0.0,0.0,0.0,0.0,0.0,0.0,0.0,0.0,0.0,0.0,0.0,0.0,0.0,0.0,0.0,0.0,0.0,0.0,0.0,0.0,0.0,0.0,0.0,0.0,0.0,0.0,0.0,0.0,0.0,0.0,0.0,0.0,0.0,0.0,0.0,0.0,0.0,0.0,0.0,0.0,0.0,0.0,0.0,0.0,0.0,0.0,0.0,0.0,0.0,0.0,0.0,0.0,0.0,0.0,0.0,0.0,0.0,0.0,0.0,0.0,0.0,0.0,0.0,0.0,0.0,0.0,0.0,0.0,0.0,0.0,0.0,0.0,0.0,0.0,0.0,0.0,0.0,0.0,0.0,0.0,0.0,0.0,0.0,0.0,0.0,0.0,0.0,0.0,0.0,0.0,0.0,0.0,0.0,0.0,0.0,0.0,0.0,0.0,0.0,0.0,0.0,0.0,0.0,0.0,0.0,0.0,0.0,0.0,0.0,0.0,0.0,0.0,0.0,0.0,0.0,0.0,0.0,0.0,0.0,0.0,0.0,0.0,0.0,0.0,0.0,0.0,0.0,0.0,0.0,0.0,0.0,0.0,0.0,0.0,0.0,0.0,0.0,0.0,0.0,0.0,0.0,0.0,0.0,0.0,0.0,0.0,0.0,0.0,0.0,0.0,0.0,0.0,0.0,0.0,0.0,0.0,0.0,0.0,0.0,0.0,0.0,0.0,0.0,0.0,0.0,0.0,0.0,0.0,0.0,0.0,0.0,0.0,0.0,0.0,0.0,0.0,0.0,0.0,0.0,0.0,0.0,0.0,0.0,0.0,0.0,0.0,0.0,0.0,0.0,0.0,0.0,0.0,0.0,0.0,0.0,0.0,0.0,0.0,0.0,0.0,0.0,0.0,0.0,0.0,0.0,0.0,0.0,0.0,0.0,0.0,0.0,0.0,0.0,0.0,0.0,0.0,0.0,0.0,0.0,0.0,0.0,0.0,0.0,0.0,0.0,0.0,0.0,0.0,0.0,0.0,0.0,0.0,0.0,0.0,0.0,0.0,0.0,0.0,0.0,0.0,0.0,0.0,0.0,0.0,0.0,0.0,0.0,0.0,0.0,0.0,0.0,0.0,0.0,0.0,0.0,0.0,0.0,0.0,0.0,0.0,0.0,0.0,0.0,0.0,0.0,0.0,0.0,0.0,0.0,0.0,0.0,0.0,0.0,0.0,0.0,0.0,0.0,0.0,0.0,0.0,0.0,0.0,0.0,0.0,0.0,0.0,0.0,0.0,0.0,0.0,0.0,0.0,0.0,0.0,0.0,0.0,0.0,0.0,0.0,0.0,0.0,0.0,0.0,0.0,0.0,0.0,0.0,0.0,0.0,0.0,0.0,0.0,0.0,0.0,0.0,0.0,0.0,0.0,0.0,0.0,0.0,0.0,0.0,0.0,0.0,0.0,0.0,0.0,0.0,0.0,0.0,0.0,0.0,0.0,0.0,0.0,0.0,0.0,0.0,0.0,0.0,0.0,0.0,0.0,0.0,0.0,0.0,0.0,0.0,0.0,0.0,0.0,0.0,0.0,0.0,0.0,0.0,0.0,0.0,0.0,0.0,0.0,0.0,0.0,0.0,0.0,0.0,0.0,0.0,0.0,0.0,0.0,0.0,0.0,0.0,0.0,0.0,0.0,0.0,0.0,0.0,0.0,0.0,0.0,0.0,0.0,0.0,0.0,0.0,0.0,0.0,0.0,0.0,0.0,0.0,0.0,0.0,0.0,0.0,0.0,0.0,0.0,0.0,0.0,0.0,0.0,0.0,0.0,0.0,0.0,0.0,0.0,0.0,0.0,0.0,0.0,0.0,0.0,0.0,0.0,0.0,0.0,0.0,0.0,0.0,0.0,0.0,0.0,0.0,0.0,0.0,0.0,0.0,0.0,0.0,0.0,0.0,0.0,0.0,0.0,0.0,0.0,0.0,0.0,0.0,0.0,0.0,0.0,0.0,0.0,0.0,0.0,0.0,0.0,0.0,0.0,0.0,0.0,0.0,0.0,0.0,0.0,0.0,0.0,0.0,0.0,0.0,0.0,0.0,0.0,0.0,0.0,0.0,0.0,0.0,0.0,0.0,0.0,0.0,0.0,0.0,0.0,0.0,0.0,0.0,0.0,0.0,0.0,0.0,0.0,0.0,0.0,0.0,0.0,0.0,0.0,0.0,0.0,0.0,0.0,0.0,0.0,0.0,0.0,0.0,0.0,0.0,0.0,0.0,0.0,0.0,0.0,0.0,0.0,0.0,0.0,0.0,-3.0015,0.0,0.0,0.0,0.0,0.0,0.0,0.0,0.0,0.0,0.0,0.0,0.0,0.0,0.0,0.0,0.0,0.0,0.0,0.0,0.0,0.0,0.0,0.0,0.0,0.0,0.0,0.0,0.0,0.0,0.0,0.0,0.0,0.0,0.0,0.0,0.0,0.0,0.0,0.0,0.0,0.0,0.0,0.0,0.0,0.0,0.0,0.0,0.0,0.0,0.0,0.0,0.0,0.0,0.0,0.0,0.0,0.0,0.0,0.0,0.0,0.0,0.0,0.0,0.0,0.0,0.0,0.0,0.0,0.0,0.0,0.0,0.0,0.0,0.0,0.0,0.0,0.0,0.0,0.0,0.0,0.0,0.0,0.0,0.0,0.0,0.0,0.0,0.0,0.0,0.0,0.0,0.0,0.0,0.0,0.0,0.0,0.0,0.0,0.0,0.0,0.0,0.0,0.0,0.0,0.0,0.0,0.0,0.0,0.0,0.0,-2.9324,-2.9435,-2.9551,-2.9715,-2.9931,0.0,0.0,0.0,0.0,0.0,0.0,0.0,0.0,0.0,0.0,0.0,0.0,0.0,0.0,0.0,0.0,0.0,0.0,0.0,0.0,0.0,0.0,0.0,0.0,0.0,0.0,0.0,0.0,0.0,0.0,0.0,0.0,0.0,0.0,0.0,0.0,0.0,0.0,0.0,0.0,0.0,0.0,0.0,0.0,0.0,0.0,0.0,0.0,0.0,0.0,0.0,0.0,0.0,0.0,0.0,0.0,0.0,0.0,0.0,0.0,0.0,0.0,0.0,0.0,0.0,0.0,0.0,0.0,0.0,0.0,0.0,0.0,0.0,0.0,0.0,0.0,0.0,0.0,0.0,0.0,0.0,0.0,0.0,0.0,0.0,0.0,0.0,0.0,0.0,0.0,0.0,0.0,0.0,0.0,0.0,0.0,0.0,0.0,0.0,0.0,0.0,0.0,0.0,0.0,0.0,0.0,0.0,0.0,0.0,0.0,0.0,0.0,-2.922,-2.9362,-2.9638,0.0,0.0,0.0,0.0,0.0,0.0,0.0,0.0,0.0,0.0,0.0,0.0,0.0,0.0,0.0,0.0,0.0,0.0,0.0,0.0,0.0,0.0,0.0,0.0,0.0,0.0,0.0,0.0,0.0,0.0,0.0,0.0,0.0,0.0,0.0,0.0,0.0,0.0,0.0,0.0,0.0,0.0,0.0,0.0,0.0,0.0,0.0,0.0,0.0,0.0,0.0,0.0,0.0,0.0,0.0,0.0,0.0,0.0,0.0,0.0,0.0,0.0,0.0,0.0,0.0,0.0,0.0,0.0,0.0,0.0,0.0,0.0,0.0,0.0,0.0,0.0,0.0,0.0,0.0,0.0,0.0,0.0,0.0,0.0,0.0,0.0,0.0,0.0,0.0,0.0,0.0,0.0,0.0,0.0,0.0,0.0,0.0,0.0,0.0,0.0,0.0,0.0,0.0,0.0,0.0,0.0,0.0,0.0,0.0,0.0,-2.8998,-2.9021,-2.8463,0.0,-2.8916,0.0,0.0,0.0,0.0,0.0,0.0,0.0,0.0,0.0,0.0,0.0,0.0,0.0,0.0,0.0,0.0,0.0,0.0,0.0,0.0,0.0,0.0,0.0,0.0,0.0,0.0,0.0,0.0,0.0,0.0,0.0,0.0,0.0,0.0,0.0,0.0,0.0,0.0,0.0,0.0,0.0,0.0,0.0,0.0,0.0,0.0,0.0,0.0,0.0,0.0,0.0,0.0,0.0,0.0,0.0,0.0,0.0,0.0,0.0,0.0,0.0,0.0,0.0,0.0,0.0,0.0,0.0,0.0,0.0,0.0,0.0,0.0,0.0,0.0,0.0,0.0,0.0,0.0,0.0,0.0,0.0,0.0,0.0,0.0,0.0,0.0,0.0,0.0,0.0,0.0,0.0,0.0,0.0,0.0,0.0,0.0,0.0,0.0,0.0,0.0,0.0,0.0,0.0,0.0,0.0,0.0,0.0,0.0,0.0,0.0,-2.9167,-2.9289,-2.9108,-2.9177,0.0,0.0,0.0,0.0,0.0,0.0,0.0,0.0,0.0,0.0,0.0,0.0,0.0,0.0,0.0,0.0,0.0,0.0,0.0,0.0,0.0,0.0,0.0,0.0,0.0,0.0,0.0,0.0,0.0,0.0,0.0,0.0,0.0,0.0,0.0,0.0,0.0,0.0,0.0,0.0,0.0,0.0,0.0,0.0,0.0,0.0,0.0,0.0,0.0,0.0,0.0,0.0,0.0,0.0,0.0,0.0,0.0,0.0,0.0,0.0,0.0,0.0,0.0,0.0,0.0,0.0,0.0,0.0,0.0,0.0,0.0,0.0,0.0,0.0,0.0,0.0,0.0,0.0,0.0,0.0,0.0,0.0,0.0,0.0,0.0,0.0,0.0,0.0,0.0,0.0,0.0,0.0,0.0,0.0,0.0,0.0,0.0,0.0,0.0,0.0,0.0,0.0,0.0,0.0,0.0,0.0,0.0,0.0,0.0,0.0,-2.8975,-2.9167,-2.9165,-2.9504,-2.9702,-2.9713,0.0,0.0,0.0,0.0,0.0,0.0,0.0,0.0,0.0,0.0,0.0,0.0,0.0,0.0,0.0,0.0,0.0,0.0,0.0,0.0,0.0,0.0,0.0,0.0,0.0,0.0,0.0,0.0,0.0,0.0,0.0,0.0,0.0,0.0,0.0,0.0,0.0,0.0,0.0,0.0,0.0,0.0,0.0,0.0,0.0,0.0,0.0,0.0,0.0,0.0,0.0,0.0,0.0,0.0,0.0,0.0,0.0,0.0,0.0,0.0,0.0,0.0,0.0,0.0,0.0,0.0,0.0,0.0,0.0,0.0,0.0,0.0,0.0,0.0,0.0,0.0,0.0,0.0,0.0,0.0,0.0,0.0,0.0,0.0,0.0,0.0,0.0,0.0,0.0,0.0,0.0,0.0,0.0,0.0,0.0,0.0,0.0,0.0,0.0,0.0,0.0,0.0,0.0,0.0,0.0,0.0,0.0,0.0,-2.8518,-2.8957,-2.8897,-2.8343,-2.9184,-2.9414,0.0,0.0,0.0,0.0,0.0,0.0,0.0,0.0,0.0,0.0,0.0,0.0,0.0,0.0,0.0,0.0,0.0,0.0,0.0,0.0,0.0,0.0,0.0,0.0,0.0,0.0,0.0,0.0,0.0,0.0,0.0,0.0,0.0,0.0,0.0,0.0,0.0,0.0,0.0,0.0,0.0,0.0,0.0,0.0,0.0,0.0,0.0,0.0,0.0,0.0,0.0,0.0,0.0,0.0,0.0,0.0,0.0,0.0,0.0,0.0,0.0,0.0,0.0,0.0,0.0,0.0,0.0,0.0,0.0,0.0,0.0,0.0,0.0,0.0,0.0,0.0,0.0,0.0,0.0,0.0,0.0,0.0,0.0,0.0,0.0,0.0,0.0,0.0,0.0,0.0,0.0,0.0,0.0,0.0,0.0,0.0,0.0,0.0,0.0,0.0,0.0,0.0,0.0,0.0,0.0,0.0,0.0,0.0,0.0,-2.8718,-2.9093,-2.9227,-2.8983,-2.9354,-2.9529,0.0,0.0,0.0,0.0,0.0,0.0,0.0,0.0,0.0,0.0,0.0,0.0,0.0,0.0,0.0,0.0,0.0,0.0,0.0,0.0,0.0,0.0,0.0,0.0,0.0,0.0,0.0,0.0,0.0,0.0,0.0,0.0,0.0,0.0,0.0,0.0,0.0,0.0,0.0,0.0,0.0,0.0,0.0,0.0,0.0,0.0,0.0,0.0,0.0,0.0,0.0,0.0,0.0,0.0,0.0,0.0,0.0,0.0,0.0,0.0,0.0,0.0,0.0,0.0,0.0,0.0,0.0,0.0,0.0,0.0,0.0,0.0,0.0,0.0,0.0,0.0,0.0,0.0,0.0,0.0,0.0,0.0,0.0,0.0,0.0,0.0,0.0,0.0,0.0,0.0,0.0,0.0,0.0,0.0,0.0,0.0,0.0,0.0,0.0,0.0,0.0,0.0,0.0,0.0,0.0,0.0,0.0,0.0,0.0,-2.8797,0.0,-2.9304,-2.9304,-2.9523,-2.9697,0.0,0.0,0.0,0.0,0.0,0.0,0.0,0.0,0.0,0.0,0.0,0.0,0.0,0.0,0.0,0.0,0.0,0.0,0.0,0.0,0.0,0.0,0.0,0.0,0.0,0.0,0.0,0.0,0.0,0.0,0.0,0.0,0.0,0.0,0.0,0.0,0.0,0.0,0.0,0.0,0.0,0.0,0.0,0.0,0.0,0.0,0.0,0.0,0.0,0.0,0.0,0.0,0.0,0.0,0.0,0.0,0.0,0.0,0.0,0.0,0.0,0.0,0.0,0.0,0.0,0.0,0.0,0.0,0.0,0.0,0.0,0.0,0.0,0.0,0.0,0.0,0.0,0.0,0.0,0.0,0.0,0.0,0.0,0.0,0.0,0.0,0.0,0.0,0.0,0.0,0.0,0.0,0.0,0.0,0.0,0.0,0.0,0.0,0.0,0.0,0.0,0.0,0.0,0.0,0.0,0.0,0.0,0.0,-2.8286,-2.8773,-2.898,-2.9112,-2.9112,-2.9617,-2.9869,0.0,0.0,0.0,0.0,0.0,0.0,0.0,0.0,0.0,0.0,0.0,0.0,0.0,0.0,0.0,0.0,0.0,0.0,0.0,0.0,0.0,0.0,0.0,0.0,0.0,0.0,0.0,0.0,0.0,0.0,0.0,0.0,0.0,0.0,0.0,0.0,0.0,0.0,0.0,0.0,0.0,0.0,0.0,0.0,0.0,0.0,0.0,0.0,0.0,0.0,0.0,0.0,0.0,0.0,0.0,0.0,0.0,0.0,0.0,0.0,0.0,0.0,0.0,0.0,0.0,0.0,0.0,0.0,0.0,0.0,0.0,0.0,0.0,0.0,0.0,0.0,0.0,0.0,0.0,0.0,0.0,0.0,0.0,0.0,0.0,0.0,0.0,0.0,0.0,0.0,0.0,0.0,0.0,0.0,0.0,0.0,0.0,0.0,0.0,0.0,0.0,0.0,0.0,0.0,0.0,0.0,0.0,0.0,0.0,-2.8987,-2.9067,-2.9175,-2.9286,-2.9561,-2.9751,0.0,0.0,0.0,0.0,0.0,0.0,0.0,0.0,0.0,0.0,0.0,0.0,0.0,0.0,0.0,0.0,0.0,0.0,0.0,0.0,0.0,0.0,0.0,0.0,0.0,0.0,0.0,0.0,0.0,0.0,0.0,0.0,0.0,0.0,0.0,0.0,0.0,0.0,0.0,0.0,0.0,0.0,0.0,0.0,0.0,0.0,0.0,0.0,0.0,0.0,0.0,0.0,0.0,0.0,0.0,0.0,0.0,0.0,0.0,0.0,0.0,0.0,0.0,0.0,0.0,0.0,0.0,0.0,0.0,0.0,0.0,0.0,0.0,0.0,0.0,0.0,0.0,0.0,0.0,0.0,0.0,0.0,0.0,0.0,0.0,0.0,0.0,0.0,0.0,0.0,0.0,0.0,0.0,0.0,0.0,0.0,0.0,0.0,0.0,0.0,0.0,0.0,0.0,0.0,0.0,0.0,0.0,0.0,0.0,-2.8658,-2.8797,-2.8957,-2.9167,-2.9385,-2.957,-2.9775,0.0,0.0,0.0,0.0,0.0,0.0,0.0,0.0,0.0,0.0,0.0,0.0,0.0,0.0,0.0,0.0,0.0,0.0,0.0,0.0,0.0,0.0,0.0,0.0,0.0,0.0,0.0,0.0,0.0,0.0,0.0,0.0,0.0,0.0,0.0,0.0,0.0,0.0,0.0,0.0,0.0,0.0,0.0,0.0,0.0,0.0,0.0,0.0,0.0,0.0,0.0,0.0,0.0,0.0,0.0,0.0,0.0,0.0,0.0,0.0,0.0,0.0,0.0,0.0,0.0,0.0,0.0,0.0,0.0,0.0,0.0,0.0,0.0,0.0,0.0,0.0,0.0,0.0,0.0,0.0,0.0,0.0,0.0,0.0,0.0,0.0,0.0,0.0,0.0,0.0,0.0,0.0,0.0,0.0,0.0,0.0,0.0,0.0,0.0,0.0,0.0,0.0,0.0,0.0,0.0,0.0,0.0,0.0,-2.7968,-2.8291,-2.8551,-2.8785,-2.91,-2.9369,0.0,0.0,0.0,0.0,0.0,0.0,0.0,0.0,0.0,0.0,0.0,0.0,0.0,0.0,0.0,0.0,0.0,0.0,0.0,0.0,0.0,0.0,0.0,0.0,0.0,0.0,0.0,0.0,0.0,0.0,0.0,0.0,0.0,0.0,0.0,0.0,0.0,0.0,0.0,0.0,0.0,0.0,0.0,0.0,0.0,0.0,0.0,0.0,0.0,0.0,0.0,0.0,0.0,0.0,0.0,0.0,0.0,0.0,0.0,0.0,0.0,0.0,0.0,0.0,0.0,0.0,0.0,0.0,0.0,0.0,0.0,0.0,0.0,0.0,0.0,0.0,0.0,0.0,0.0,0.0,0.0,0.0,0.0,0.0,0.0,0.0,0.0,0.0,0.0,0.0,0.0,0.0,0.0,0.0,0.0,0.0,0.0,0.0,0.0,0.0,0.0,0.0,0.0,0.0,0.0,0.0,0.0,0.0,0.0,-2.7757,-2.7876,-2.812,-2.8572,-2.8807,-2.9027,0.0,0.0,0.0,0.0,0.0,0.0,0.0,0.0,0.0,0.0,0.0,0.0,0.0,0.0,0.0,0.0,0.0,0.0,0.0,0.0,0.0,0.0,0.0,0.0,0.0,0.0,0.0,0.0,0.0,0.0,0.0,0.0,0.0,0.0,0.0,0.0,0.0,0.0,0.0,0.0,0.0,0.0,0.0,0.0,0.0,0.0,0.0,0.0,0.0,0.0,0.0,0.0,0.0,0.0,0.0,0.0,0.0,0.0,0.0,0.0,0.0,0.0,0.0,0.0,0.0,0.0,0.0,0.0,0.0,0.0,0.0,0.0,0.0,0.0,0.0,0.0,0.0,0.0,0.0,0.0,0.0,0.0,0.0,0.0,0.0,0.0,0.0,0.0,0.0,0.0,0.0,0.0,0.0,0.0,0.0,0.0,0.0,0.0,0.0,0.0,0.0,0.0,0.0,0.0,0.0,0.0,0.0,0.0,-2.6854,-2.7474,-2.7567,-2.7829,-2.8281,-2.8527,-2.879,0.0,0.0,0.0,0.0,0.0,0.0,0.0,0.0,0.0,0.0,0.0,0.0,0.0,0.0,0.0,0.0,0.0,0.0,0.0,0.0,0.0,0.0,0.0,0.0,0.0,0.0,0.0,0.0,0.0,0.0,0.0,0.0,0.0,0.0,0.0,0.0,0.0,0.0,0.0,0.0,0.0,0.0,0.0,0.0,0.0,0.0,0.0,0.0,0.0,0.0,0.0,0.0,0.0,0.0,0.0,0.0,0.0,0.0,0.0,0.0,0.0,0.0,0.0,0.0,0.0,0.0,0.0,0.0,0.0,0.0,0.0,0.0,0.0,0.0,0.0,0.0,0.0,0.0,0.0,0.0,0.0,0.0,0.0,0.0,0.0,0.0,0.0,0.0,0.0,0.0,0.0,0.0,0.0,0.0,0.0,0.0,0.0,0.0,0.0,0.0,0.0,0.0,0.0,0.0,0.0,0.0,0.0,0.0,-2.6078,-2.7132,-2.7355,-2.7647,-2.7971,-2.8313,-2.8619,0.0,0.0,0.0,0.0,0.0,0.0,0.0,0.0,0.0,0.0,0.0,0.0,0.0,0.0,0.0,0.0,0.0,0.0,0.0,0.0,0.0,0.0,0.0,0.0,0.0,0.0,0.0,0.0,0.0,0.0,0.0,0.0,0.0,0.0,0.0,0.0,0.0,0.0,0.0,0.0,0.0,0.0,0.0,0.0,0.0,0.0,0.0,0.0,0.0,0.0,0.0,0.0,0.0,0.0,0.0,0.0,0.0,0.0,0.0,0.0,0.0,0.0,0.0,0.0,0.0,0.0,0.0,0.0,0.0,0.0,0.0,0.0,0.0,0.0,0.0,0.0,0.0,0.0,0.0,0.0,0.0,0.0,0.0,0.0,0.0,0.0,0.0,0.0,0.0,0.0,0.0,0.0,0.0,0.0,0.0,0.0,0.0,0.0,0.0,0.0,0.0,0.0,0.0,0.0,0.0,0.0,0.0,0.0,-2.5922,-2.6774,-2.7101,-2.7432,-2.7745,-2.8132,-2.8414,0.0,0.0,0.0,0.0,0.0,0.0,0.0,0.0,0.0,0.0,0.0,0.0,0.0,0.0,0.0,0.0,0.0,0.0,0.0,0.0,0.0,0.0,0.0,0.0,0.0,0.0,0.0,0.0,0.0,0.0,0.0,0.0,0.0,0.0,0.0,0.0,0.0,0.0,0.0,0.0,0.0,0.0,0.0,0.0,0.0,0.0,0.0,0.0,-2.9364,0.0,0.0,0.0,0.0,0.0,0.0,0.0,0.0,0.0,0.0,0.0,0.0,0.0,0.0,0.0,0.0,0.0,0.0,0.0,0.0,0.0,0.0,0.0,0.0,0.0,0.0,0.0,0.0,0.0,0.0,0.0,0.0,0.0,0.0,0.0,0.0,0.0,0.0,0.0,0.0,0.0,0.0,0.0,0.0,0.0,0.0,0.0,0.0,0.0,0.0,0.0,0.0,0.0,0.0,0.0,0.0,0.0,0.0,0.0,-2.589,-2.6674,-2.7037,-2.7369,-2.7701,-2.8049,-2.8367,0.0,0.0,0.0,0.0,0.0,0.0,0.0,0.0,0.0,0.0,0.0,0.0,0.0,0.0,0.0,0.0,0.0,0.0,0.0,0.0,0.0,0.0,0.0,0.0,0.0,0.0,0.0,0.0,0.0,0.0,0.0,0.0,0.0,0.0,0.0,0.0,0.0,0.0,0.0,0.0,0.0,0.0,0.0,0.0,0.0,0.0,0.0,0.0,0.0,0.0,0.0,0.0,0.0,0.0,0.0,0.0,0.0,0.0,0.0,0.0,0.0,0.0,0.0,0.0,0.0,0.0,0.0,0.0,0.0,0.0,0.0,0.0,0.0,0.0,0.0,0.0,0.0,0.0,0.0,0.0,0.0,0.0,0.0,0.0,0.0,0.0,0.0,0.0,0.0,0.0,0.0,0.0,0.0,0.0,0.0,0.0,0.0,0.0,0.0,0.0,0.0,0.0,0.0,0.0,0.0,0.0,0.0,-2.5354,-2.5762,-2.6505,-2.6923,-2.7291,-2.7612,-2.7936,-2.8313,-2.8694,0.0,0.0,0.0,0.0,0.0,0.0,0.0,0.0,0.0,0.0,0.0,0.0,0.0,0.0,0.0,0.0,0.0,0.0,0.0,0.0,0.0,0.0,0.0,0.0,0.0,0.0,0.0,0.0,0.0,0.0,0.0,0.0,0.0,0.0,0.0,0.0,0.0,0.0,-2.3566,-2.2952,0.0,0.0,0.0,0.0,0.0,0.0,0.0,0.0,-2.6779,0.0,0.0,0.0,0.0,0.0,0.0,0.0,0.0,0.0,0.0,0.0,0.0,0.0,0.0,0.0,0.0,0.0,0.0,0.0,0.0,0.0,0.0,0.0,0.0,0.0,0.0,0.0,0.0,0.0,0.0,0.0,0.0,0.0,0.0,0.0,0.0,0.0,0.0,0.0,0.0,0.0,0.0,0.0,0.0,0.0,0.0,0.0,0.0,0.0,0.0,0.0,0.0,0.0,0.0,0.0,0.0,-2.4492,-2.4839,-2.5218,-2.5672,-2.6402,-2.694,-2.7276,-2.7595,-2.8097,-2.8737,0.0,0.0,0.0,0.0,0.0,0.0,0.0,0.0,0.0,0.0,0.0,0.0,0.0,0.0,0.0,0.0,0.0,0.0,0.0,0.0,0.0,0.0,0.0,0.0,0.0,0.0,0.0,0.0,0.0,0.0,0.0,0.0,0.0,0.0,0.0,0.0,0.0,0.0,0.0,-2.2565,-2.2341,0.0,0.0,0.0,0.0,0.0,0.0,0.0,0.0,-2.5693,0.0,0.0,0.0,0.0,0.0,0.0,0.0,0.0,0.0,0.0,0.0,0.0,0.0,0.0,0.0,0.0,0.0,0.0,0.0,0.0,0.0,0.0,0.0,0.0,0.0,0.0,0.0,0.0,0.0,0.0,0.0,0.0,0.0,0.0,0.0,0.0,0.0,0.0,0.0,0.0,0.0,0.0,0.0,0.0,0.0,0.0,0.0,0.0,0.0,0.0,0.0,0.0,0.0,0.0,0.0,-2.4261,-2.4492,-2.4899,-2.5484,-2.6036,-2.6505,-2.684,-2.738,-2.794,0.0,0.0,0.0,0.0,0.0,0.0,0.0,0.0,0.0,0.0,0.0,0.0,0.0,0.0,0.0,0.0,0.0,0.0,0.0,0.0,0.0,0.0,0.0,0.0,0.0,0.0,0.0,0.0,0.0,0.0,0.0,0.0,0.0,0.0,0.0,0.0,0.0,0.0,0.0,0.0,-2.214,-2.1684,-2.1999,0.0,0.0,0.0,0.0,0.0,0.0,-2.4742,-2.5236,0.0,0.0,0.0,0.0,0.0,0.0,0.0,0.0,0.0,0.0,0.0,0.0,0.0,0.0,0.0,0.0,0.0,0.0,0.0,0.0,0.0,0.0,0.0,0.0,0.0,0.0,0.0,0.0,0.0,0.0,0.0,0.0,0.0,0.0,0.0,0.0,0.0,0.0,0.0,0.0,0.0,0.0,0.0,0.0,0.0,0.0,0.0,0.0,0.0,0.0,0.0,0.0,0.0,0.0,0.0,-2.4099,-2.4141,-2.4542,-2.5351,-2.5713,-2.6107,-2.6522,-2.7162,-2.7675,0.0,0.0,0.0,0.0,0.0,0.0,0.0,0.0,0.0,0.0,0.0,0.0,0.0,0.0,0.0,0.0,0.0,0.0,0.0,0.0,0.0,0.0,0.0,0.0,0.0,0.0,0.0,0.0,0.0,0.0,0.0,0.0,0.0,0.0,0.0,0.0,0.0,0.0,0.0,0.0,0.0,-2.0805,-2.1208,-2.0618,0.0,0.0,0.0,0.0,-2.2704,-2.367,0.0,0.0,0.0,0.0,0.0,0.0,0.0,0.0,0.0,0.0,0.0,0.0,0.0,0.0,0.0,0.0,0.0,0.0,0.0,0.0,0.0,0.0,0.0,0.0,0.0,0.0,0.0,0.0,0.0,0.0,0.0,0.0,0.0,0.0,0.0,0.0,0.0,0.0,0.0,0.0,0.0,0.0,0.0,0.0,0.0,0.0,0.0,0.0,0.0,0.0,0.0,0.0,0.0,0.0,0.0,0.0,-2.3638,-2.3621,-2.4028,-2.4926,-2.5351,-2.5926,-2.6657,-2.6758,-2.7177,0.0,0.0,0.0,0.0,0.0,0.0,0.0,0.0,0.0,0.0,0.0,0.0,0.0,0.0,0.0,0.0,0.0,0.0,0.0,0.0,0.0,0.0,0.0,0.0,0.0,0.0,0.0,0.0,0.0,0.0,0.0,0.0,0.0,0.0,0.0,0.0,0.0,0.0,0.0,0.0,0.0,-1.9731,-2.0137,-2.004,-1.997,0.0,0.0,-2.1701,-2.1373,-2.175,0.0,0.0,0.0,0.0,0.0,0.0,0.0,0.0,0.0,0.0,0.0,0.0,0.0,0.0,0.0,0.0,0.0,0.0,0.0,0.0,0.0,0.0,0.0,0.0,0.0,0.0,0.0,0.0,0.0,0.0,0.0,0.0,0.0,0.0,0.0,0.0,0.0,0.0,0.0,0.0,0.0,0.0,0.0,0.0,0.0,0.0,0.0,0.0,0.0,0.0,0.0,0.0,0.0,0.0,0.0,-2.2189,-2.3143,-2.3172,-2.3614,-2.4533,-2.4739,-2.5176,-2.5941,-2.6176,-2.669,0.0,0.0,0.0,0.0,0.0,0.0,0.0,0.0,0.0,0.0,0.0,0.0,0.0,0.0,0.0,0.0,0.0,0.0,0.0,0.0,0.0,0.0,0.0,0.0,0.0,0.0,0.0,0.0,0.0,0.0,0.0,0.0,0.0,0.0,0.0,0.0,0.0,0.0,0.0,0.0,0.0,0.0,-1.9638,-1.9505,0.0,0.0,0.0,-2.0894,-2.107,0.0,0.0,0.0,0.0,0.0,0.0,0.0,0.0,0.0,0.0,0.0,0.0,0.0,0.0,0.0,0.0,0.0,0.0,0.0,0.0,0.0,0.0,0.0,0.0,0.0,0.0,0.0,0.0,0.0,0.0,0.0,0.0,0.0,0.0,0.0,0.0,0.0,0.0,0.0,0.0,0.0,0.0,0.0,0.0,0.0,0.0,0.0,0.0,0.0,0.0,0.0,0.0,0.0,0.0,0.0,0.0,0.0,-2.2686,-2.2694,-2.315,-2.4084,-2.424,-2.4614,-2.5246,-2.558,0.0,0.0,0.0,0.0,0.0,0.0,0.0,0.0,0.0,0.0,0.0,0.0,0.0,0.0,0.0,0.0,0.0,0.0,0.0,0.0,0.0,0.0,0.0,0.0,0.0,0.0,0.0,-2.2881,0.0,0.0,0.0,0.0,0.0,0.0,0.0,0.0,0.0,0.0,0.0,0.0,0.0,0.0,-1.9114,-1.9231,-1.9164,-1.9116,0.0,0.0,-2.0683,-2.1152,-2.1288,-2.1697,0.0,0.0,0.0,0.0,0.0,0.0,0.0,0.0,0.0,0.0,0.0,0.0,0.0,0.0,0.0,0.0,0.0,0.0,0.0,0.0,0.0,0.0,0.0,0.0,0.0,0.0,0.0,0.0,0.0,0.0,0.0,0.0,0.0,0.0,0.0,0.0,0.0,0.0,0.0,0.0,0.0,0.0,0.0,0.0,0.0,0.0,0.0,0.0,0.0,0.0,0.0,0.0,0.0,0.0,-2.1202,-2.2105,-2.2151,-2.2606,-2.3526,-2.4048,-2.4492,-2.4922,-2.4962,-2.5319,0.0,0.0,0.0,0.0,0.0,0.0,0.0,0.0,0.0,0.0,0.0,0.0,0.0,0.0,0.0,0.0,0.0,0.0,0.0,0.0,0.0,0.0,0.0,0.0,0.0,0.0,0.0,0.0,0.0,0.0,0.0,0.0,0.0,0.0,0.0,0.0,0.0,0.0,0.0,0.0,0.0,-1.8288,-1.8767,-1.9137,-1.9423,0.0,-2.0573,-2.1376,-2.1544,-2.1824,-2.2074,-2.2159,0.0,0.0,0.0,0.0,0.0,0.0,0.0,0.0,0.0,0.0,0.0,0.0,0.0,0.0,0.0,0.0,0.0,0.0,0.0,0.0,0.0,0.0,0.0,0.0,0.0,0.0,0.0,0.0,0.0,0.0,0.0,0.0,0.0,0.0,0.0,0.0,0.0,0.0,0.0,0.0,0.0,0.0,0.0,0.0,0.0,0.0,0.0,0.0,0.0,0.0,0.0,0.0,0.0,-2.1008,-2.1674,-2.1674,-2.2151,-2.3106,-2.3341,-2.3788,-2.4513,-2.4549,-2.4827,0.0,0.0,0.0,0.0,0.0,0.0,0.0,0.0,0.0,0.0,0.0,0.0,0.0,0.0,0.0,0.0,0.0,0.0,0.0,0.0,0.0,0.0,0.0,0.0,0.0,0.0,0.0,0.0,-2.0919,-2.0485,-2.0245,0.0,0.0,0.0,0.0,0.0,0.0,0.0,0.0,0.0,0.0,-1.8088,-1.828,-1.8734,0.0,0.0,-2.0029,-2.0829,-2.1062,-2.1688,-2.2399,-2.309,-2.341,0.0,0.0,0.0,0.0,0.0,0.0,0.0,0.0,0.0,0.0,0.0,0.0,0.0,0.0,0.0,0.0,0.0,0.0,0.0,0.0,0.0,0.0,0.0,0.0,0.0,0.0,0.0,0.0,0.0,0.0,0.0,0.0,0.0,0.0,0.0,0.0,0.0,0.0,0.0,0.0,0.0,0.0,0.0,0.0,0.0,0.0,0.0,0.0,0.0,0.0,0.0,0.0,-2.0835,-2.1193,-2.1326,-2.1746,-2.2434,-2.2595,-2.3054,-2.3846,-2.3888,-2.4209,0.0,0.0,0.0,0.0,0.0,0.0,0.0,0.0,0.0,0.0,0.0,0.0,0.0,0.0,0.0,0.0,0.0,0.0,0.0,0.0,0.0,0.0,0.0,0.0,0.0,0.0,0.0,0.0,-2.0623,-2.022,-1.9746,0.0,0.0,0.0,0.0,0.0,0.0,0.0,0.0,0.0,0.0,-1.7922,-1.8265,-1.8619,-1.8969,-1.9302,-2.0093,-2.0776,-2.1162,-2.1881,-2.2616,-2.319,0.0,0.0,0.0,0.0,0.0,0.0,0.0,0.0,0.0,0.0,0.0,0.0,0.0,0.0,0.0,0.0,0.0,0.0,0.0,0.0,0.0,0.0,0.0,0.0,0.0,0.0,0.0,-2.5907,0.0,0.0,-2.5104,0.0,0.0,0.0,0.0,0.0,0.0,0.0,0.0,0.0,0.0,0.0,0.0,0.0,0.0,0.0,0.0,0.0,0.0,0.0,0.0,0.0,0.0,-2.0699,-2.0724,-2.1155,-2.1385,-2.1458,-2.1884,-2.2383,-2.2912,-2.2934,-2.3363,-2.4302,0.0,0.0,0.0,0.0,0.0,0.0,0.0,0.0,0.0,0.0,0.0,0.0,0.0,0.0,0.0,0.0,0.0,0.0,0.0,0.0,0.0,0.0,0.0,0.0,0.0,0.0,-2.1188,-2.0459,-1.9746,0.0,0.0,0.0,0.0,0.0,0.0,0.0,0.0,0.0,0.0,-1.7298,-1.7717,-1.8787,-1.8965,-1.931,-2.0344,-2.0975,-2.152,-2.2016,-2.2529,-2.2649,0.0,0.0,0.0,0.0,0.0,0.0,0.0,0.0,0.0,0.0,0.0,0.0,0.0,0.0,0.0,0.0,0.0,0.0,0.0,0.0,0.0,0.0,0.0,0.0,0.0,0.0,0.0,-2.5286,-2.5244,0.0,0.0,0.0,0.0,0.0,0.0,0.0,0.0,0.0,0.0,0.0,-1.9131,-1.9025,0.0,0.0,0.0,0.0,0.0,0.0,0.0,0.0,0.0,0.0,0.0,0.0,-2.0372,-2.0674,-2.0548,-2.0784,-2.1361,-2.1554,-2.186,-2.2337,-2.2717,-2.3334,-2.4245,0.0,0.0,0.0,0.0,0.0,0.0,0.0,0.0,0.0,0.0,0.0,0.0,0.0,0.0,0.0,0.0,0.0,0.0,0.0,0.0,0.0,0.0,0.0,0.0,0.0,-2.114,0.0,0.0,0.0,0.0,0.0,0.0,0.0,0.0,0.0,0.0,0.0,-1.6992,-1.7213,-1.7235,-1.7383,-1.7759,-1.8147,-1.867,0.0,0.0,0.0,0.0,0.0,0.0,0.0,0.0,0.0,0.0,0.0,0.0,0.0,0.0,-2.2981,-2.4085,-2.4266,-2.4225,-2.4069,0.0,0.0,0.0,0.0,0.0,0.0,0.0,0.0,0.0,0.0,0.0,0.0,0.0,0.0,-2.4666,0.0,-2.4195,0.0,0.0,0.0,0.0,0.0,0.0,0.0,0.0,-1.8786,-1.8556,-1.8556,-1.8556,-1.8545,0.0,-1.8813,-1.8946,0.0,0.0,0.0,0.0,0.0,0.0,0.0,0.0,-1.9939,-2.0233,-2.008,-2.0295,-2.0883,-2.1082,-2.1385,-2.1851,-2.2351,-2.2987,-2.3803,-2.3794,-2.3975,0.0,0.0,0.0,0.0,0.0,0.0,0.0,0.0,0.0,0.0,0.0,0.0,0.0,0.0,0.0,0.0,0.0,0.0,0.0,0.0,0.0,0.0,0.0,-2.0383,0.0,0.0,0.0,0.0,0.0,0.0,0.0,0.0,0.0,-1.7699,-1.7268,-1.6927,-1.6916,-1.6916,-1.6972,-1.7174,0.0,0.0,0.0,0.0,0.0,0.0,0.0,-2.1554,-2.1568,-2.1965,-2.2238,-2.2238,-2.2025,-2.1852,-2.1852,0.0,0.0,-2.2846,-2.3069,-2.3069,-2.3069,-2.3047,-2.3002,-2.3002,-2.2928,-2.2852,0.0,0.0,0.0,0.0,0.0,0.0,0.0,0.0,-2.3962,-2.3962,0.0,-2.3904,0.0,0.0,0.0,0.0,0.0,-1.8888,0.0,0.0,-1.8111,-1.8045,-1.803,-1.803,-1.803,-1.8057,-1.803,-1.8057,-1.8111,-1.8919,0.0,0.0,0.0,0.0,0.0,0.0,-1.9368,-1.9447,-1.9773,-1.9965,-1.9991,-2.0435,-2.0923,-2.1399,-2.1837,-2.2328,-2.2844,-2.2831,-2.2988,-2.3425,-2.3867,0.0,0.0,0.0,0.0,0.0,0.0,0.0,0.0,0.0,0.0,0.0,0.0,0.0,0.0,0.0,0.0,0.0,0.0,0.0,0.0,-2.0169,0.0,0.0,0.0,0.0,0.0,0.0,0.0,0.0,0.0,0.0,-1.6978,-1.6655,-1.6355,-1.6374,0.0,0.0,0.0,0.0,-1.7407,-1.7984,-1.8489,-1.9034,-1.9556,-2.0067,-2.0432,-2.0497,0.0,0.0,-2.1321,-2.1345,-2.1321,-2.1345,-2.1321,-2.1345,-2.1345,-2.1781,-2.2109,-2.2109,-2.2016,-2.1908,-2.1862,-2.1894,-2.1817,-2.361,0.0,0.0,0.0,0.0,-2.4295,-2.3946,-2.3344,-2.3267,-2.3207,-2.3177,-2.2598,0.0,0.0,0.0,0.0,0.0,0.0,-1.6894,-1.6905,-1.6849,-1.6821,-1.6821,-1.6821,-1.6821,-1.6821,-1.6832,-1.7045,-1.7435,-1.7699,-1.805,-1.8464,0.0,0.0,0.0,0.0,-1.9117,-1.9368,-1.9225,-1.9277,-1.9565,-1.9991,-2.0585,-2.1375,-2.1544,-2.1827,-2.2328,-2.23,-2.2354,-2.2492,-2.2614,0.0,0.0,0.0,0.0,0.0,0.0,0.0,0.0,0.0,0.0,0.0,0.0,0.0,0.0,0.0,0.0,0.0,0.0,0.0,-2.0321,-1.9618,-1.9081,0.0,0.0,0.0,0.0,0.0,0.0,0.0,0.0,0.0,-1.5575,-1.541,-1.5459,0.0,0.0,-1.6077,-1.6563,-1.6627,-1.6814,-1.7379,-1.7589,0.0,-1.8463,-1.8703,-1.8809,-1.8821,-1.9281,-1.9683,-1.9695,-1.9991,-2.027,-2.0232,-2.0245,-2.027,-2.0308,-2.0991,-2.1547,-2.1582,-2.1571,-2.15,-2.1428,-2.1407,-2.1334,-2.2707,-2.3188,-2.3641,-2.3699,-2.3551,-2.3463,-2.3118,-2.2537,-2.2445,-2.2427,-2.2365,-2.1588,-2.1086,-2.0718,-1.9235,0.0,0.0,0.0,-1.6301,-1.6301,-1.6301,-1.6301,-1.6301,-1.6301,-1.6301,-1.6301,-1.6301,-1.651,-1.6838,-1.6838,-1.7017,-1.739,0.0,0.0,-1.8518,-1.853,-1.8625,-1.8893,-1.8839,-1.8931,-1.9158,-1.9695,-2.0283,-2.0833,-2.1019,-2.135,-2.1789,-2.166,-2.1636,-2.1827,-2.1813,-2.1827,0.0,0.0,0.0,0.0,0.0,0.0,0.0,0.0,0.0,0.0,0.0,-2.1234,-2.1259,0.0,0.0,0.0,-2.0194,-1.9927,-1.9307,-1.8804,0.0,0.0,0.0,0.0,0.0,0.0,0.0,-1.5176,-1.5108,-1.4893,-1.441,-1.435,-1.4588,-1.5284,-1.54,-1.5488,-1.5788,0.0,-1.6249,-1.6549,-1.6775,-1.7084,-1.7644,-1.7727,-1.7809,-1.8066,-1.8375,-1.8629,-1.8655,-1.8924,-1.9109,-1.9135,-1.9331,-1.95,-1.95,-2.0194,-2.0758,-2.0695,-2.0733,-2.0708,-2.0522,-2.0733,-2.0906,-2.205,-2.2124,-2.2911,-2.3047,-2.2811,-2.2604,-2.2168,-2.1635,-2.1592,-2.1572,-2.1454,-2.0773,-1.995,-1.8966,-1.7286,0.0,-1.6243,-1.6243,-1.6253,-1.6233,-1.6212,-1.622,-1.621,-1.6179,-1.6169,-1.614,-1.6169,-1.6197,-1.6226,-1.6216,-1.6283,-1.633,-1.7401,-1.8002,-1.803,-1.803,-1.8057,-1.8111,-1.853,-1.8783,-1.8798,-1.9514,-1.9914,-1.994,-2.0346,-2.0799,-2.124,-2.0873,-2.0873,-2.1326,-2.135,-2.135,-2.135,0.0,0.0,0.0,0.0,0.0,0.0,0.0,0.0,0.0,0.0,0.0,0.0,0.0,0.0,0.0,-1.8721,0.0,-1.8186,-1.7886,0.0,0.0,0.0,-1.6273,-1.5749,-1.5235,-1.4715,-1.4249,0.0,0.0,-1.3571,-1.348,-1.3812,-1.4677,-1.4804,-1.4863,-1.4893,-1.5342,-1.5643,-1.5662,-1.6058,-1.6534,-1.6961,-1.7101,-1.7296,-1.7765,-1.8011,-1.8038,-1.8038,-1.812,-1.8093,-1.8174,-1.8548,-1.8934,-1.8907,-1.9331,-1.9618,-1.9488,-1.9669,-1.9747,-1.9591,-2.0042,-2.0421,-2.0775,-2.0904,-2.096,-2.1351,-2.1968,-2.1925,-2.1526,-2.0869,-2.0764,-2.0387,-1.9835,-1.954,-1.8788,-1.7782,-1.6944,-1.6303,-1.5858,-1.5858,-1.5858,-1.5839,-1.5506,-1.5394,-1.5385,-1.5083,-1.4931,-1.4931,-1.4931,-1.5157,-1.5613,-1.5604,-1.5853,-1.6312,-1.6595,-1.6961,-1.7407,-1.7418,-1.765,-1.8111,-1.8193,-1.8437,-1.8771,-1.8999,-1.9225,-1.9539,-1.9642,-1.9888,-2.0334,-2.0232,-2.0397,-2.0848,-2.0873,-2.0873,-2.0873,-2.0959,0.0,0.0,0.0,0.0,0.0,0.0,0.0,0.0,0.0,-1.9356,-1.9512,0.0,-1.9052,0.0,-1.8464,-1.829,-1.8598,-1.8084,0.0,0.0,-1.656,-1.6075,-1.573,-1.5225,-1.4715,-1.4249,-1.4189,-1.404,-1.3541,-1.348,-1.3563,-1.3812,-1.4151,-1.4488,-1.4834,-1.499,-1.5108,-1.5128,-1.5527,-1.5904,-1.6066,-1.6353,-1.6609,-1.6779,-1.714,-1.7424,-1.7396,-1.782,-1.8093,-1.8093,-1.8201,-1.8309,-1.8321,-1.8444,-1.8456,-1.8402,-1.9095,-1.9708,-1.946,-1.9708,-1.9888,-2.0617,-2.0705,-2.0483,-2.0623,-2.1019,-2.0853,-2.0424,-1.9879,-1.9802,-1.954,-1.9133,-1.853,-1.78,-1.6897,-1.6413,-1.601,-1.5689,-1.5689,-1.5689,-1.567,-1.546,-1.5359,-1.5349,-1.4964,-1.4772,-1.4772,-1.4598,-1.4684,-1.499,-1.499,-1.5147,-1.5497,-1.5497,-1.5796,-1.6397,-1.6669,-1.7101,-1.7694,-1.7705,-1.7963,-1.8464,-1.8691,-1.8917,-1.9143,-1.9316,-1.9512,-1.9734,-1.9734,-1.9862,-2.0105,-2.0118,-2.0105,-2.0105,-2.0144,-2.0118,0.0,0.0,0.0,0.0,0.0,0.0,0.0,0.0,0.0,0.0,0.0,-1.8798,-1.8798,-1.8275,-1.7975,-1.8123,-1.744,-1.6864,-1.6552,-1.5758,-1.5186,-1.5049,-1.4588,-1.4172,-1.3941,-1.3881,-1.3782,-1.3541,-1.348,-1.348,-1.348,-1.3722,-1.4001,-1.4231,-1.444,-1.4597,-1.4606,-1.502,-1.5342,-1.5342,-1.5546,-1.5817,-1.6048,-1.6343,-1.6578,-1.6814,-1.7123,-1.7346,-1.7346,-1.7518,-1.771,-1.771,-1.7957,-1.8066,-1.8093,-1.8525,-1.8845,-1.8578,-1.8685,-1.8715,-2.0768,-2.0764,-2.0544,-2.0257,-1.9991,-1.9626,-1.9314,-1.9018,-1.8957,-1.8862,-1.868,-1.7754,-1.6968,-1.6376,-1.601,-1.5845,-1.5845,-1.5845,-1.5877,-1.5845,-1.579,-1.5771,-1.5753,-1.5359,-1.5175,-1.5166,-1.4827,-1.4634,-1.4558,-1.4558,-1.4531,-1.4485,-1.4485,-1.4823,-1.541,-1.5853,-1.6415,-1.7062,-1.7174,-1.7435,-1.7963,-1.8464,-1.8718,-1.8718,-1.9052,-1.9263,-1.9316,-1.9316,-1.933,-1.9394,-1.942,-1.942,-1.942,-1.942,-1.942,0.0,-1.942,0.0,0.0,0.0,0.0,0.0,0.0,0.0,0.0,-1.8625,-1.8572,-1.8452,-1.7854,-1.7396,-1.7145,-1.6485,-1.597,-1.5672,-1.4813,-1.4249,-1.4189,-1.3791,-1.348,-1.348,-1.348,-1.348,-1.3351,-1.3381,-1.3351,-1.3199,-1.313,-1.3169,-1.329,-1.3752,-1.413,-1.413,-1.4508,-1.4834,-1.4922,-1.4922,-1.5108,-1.5498,-1.5614,-1.5769,-1.6116,-1.6192,-1.622,-1.6335,-1.6701,-1.6989,-1.7073,-1.7518,-1.7781,-1.7738,-1.7749,-1.771,-1.7628,-1.7672,-1.7523,-1.9604,-1.9634,-1.9568,-1.9343,-1.8995,-1.8911,-1.8982,-1.9137,-1.8793,-1.8172,-1.7314,-1.7092,-1.6892,-1.6789,-1.6716,-1.667,-1.6679,-1.6679,-1.6679,-1.6661,-1.6349,-1.6202,-1.6175,-1.5771,-1.5579,-1.5579,-1.5537,-1.5304,-1.4983,-1.4983,-1.4827,-1.4494,-1.4485,-1.4793,-1.5352,0.0,0.0,0.0,-1.695,-1.7257,-1.7379,-1.7936,-1.822,-1.8232,-1.8302,0.0,-1.8878,-1.8905,-1.9052,-1.9394,-1.942,0.0,0.0,0.0,0.0,0.0,0.0,0.0,0.0,0.0,0.0,0.0,-1.7062,-1.7168,-1.8139,-1.7776,-1.7257,-1.6669,-1.65,-1.6312,-1.6112,-1.594,-1.5748,-1.5468,-1.4951,-1.4517,-1.421,-1.3791,-1.348,-1.348,-1.348,-1.329,-1.2787,-1.2696,-1.2473,-1.2043,-1.1888,-1.1881,-1.1919,-1.2909,-1.3571,-1.3662,-1.3962,-1.4449,-1.4834,-1.4834,-1.4863,-1.504,-1.504,-1.5098,-1.5196,-1.5225,-1.5381,-1.574,-1.5923,-1.6124,-1.6449,-1.6542,-1.6464,-1.6492,-1.6304,-1.6457,-1.7418,-1.7727,-1.7727,-1.9292,-1.9292,-1.9429,-1.927,0.0,-1.9086,-1.9198,-1.9212,-1.8608,-1.7928,-1.7193,-1.7193,-1.7092,-1.6908,-1.6908,-1.6908,-1.6908,-1.6908,-1.6908,-1.6899,-1.6697,-1.6572,-1.6562,-1.6193,-1.6001,-1.5991,-1.5414,-1.5065,-1.4838,-1.432,-1.3942,-1.3754,-1.3605,-1.3833,-1.443,-1.4488,-1.4961,-1.5864,-1.614,-1.6443,-1.6754,-1.7045,-1.7224,-1.7213,-1.7224,0.0,0.0,0.0,0.0,0.0,0.0,0.0,0.0,0.0,0.0,-1.8309,-1.8027,-1.7867,-1.7851,-1.7569,-1.7392,-1.7336,-1.6884,-1.6741,-1.719,-1.6933,-1.6613,-1.6244,-1.6216,-1.6044,-1.5728,-1.5497,-1.5206,-1.4824,-1.441,-1.3923,-1.3433,-1.3161,-1.2887,-1.2573,-1.2512,-1.2381,-1.2074,-1.2012,-1.1888,-1.1578,-1.1516,-1.1485,-1.1547,-1.2074,-1.2512,-1.2512,-1.3,-1.3433,-1.3704,-1.4043,-1.4291,-1.4478,-1.4577,-1.4666,-1.4863,-1.4893,-1.4981,-1.5108,-1.5098,-1.5157,-1.5177,-1.5138,-1.506,-1.507,-1.4962,-1.4982,-1.5659,-1.6213,-1.6602,-1.8869,-1.8856,-1.9015,-1.8984,-1.8856,-1.9033,-1.8984,-1.8802,0.0,0.0,0.0,-1.7605,-1.7314,-1.6834,-1.679,-1.6684,-1.6508,-1.6508,-1.6508,-1.6473,-1.6473,-1.6508,-1.649,-1.6151,-1.6008,-1.5956,-1.505,-1.4555,-1.4446,-1.3591,-1.3122,-1.3036,-1.2751,-1.286,-1.3329,-1.386,-1.4389,-1.4864,-1.5225,-1.5633,-1.6112,-1.6255,-1.6343,-1.6425,-1.6343,-1.6343,-1.6425,-1.6825,-1.7034,-1.7062,-1.7579,-1.7895,-1.7879,-1.7487,-1.7255,-1.7226,-1.678,-1.6657,-1.6978,-1.6919,-1.6901,-1.7051,-1.6779,-1.6464,-1.6132,-1.614,-1.6073,-1.5901,-1.5901,-1.5699,-1.5264,-1.4884,-1.4451,-1.3962,-1.3563,-1.307,-1.2443,-1.232,-1.2104,-1.1609,-1.1578,-1.1454,-1.1329,-1.1329,-1.1274,-1.118,-1.1024,-1.1149,-1.1173,-1.1361,-1.164,-1.1671,-1.2104,-1.2351,-1.2412,-1.2757,-1.329,-1.3563,-1.3752,-1.4052,-1.438,-1.4643,-1.4699,-1.4667,-1.4595,-1.4617,-1.4387,-1.4423,-1.4209,-1.4148,-1.4096,-1.4057,-1.3948,-1.4538,-1.5184,-1.7292,-1.7066,-1.7098,-1.7107,-1.7066,-1.7098,-1.7107,-1.7155,-1.8186,-1.8412,-1.8036,-1.8036,-1.7423,-1.6451,-1.6487,-1.591,-1.4939,-1.4931,-1.4922,-1.4931,-1.4922,-1.4922,-1.4922,-1.4874,-1.4814,-1.4806,-1.4659,-1.4404,-1.4114,-1.3931,-1.3689,-1.3341,-1.3067,-1.2845,-1.2658,-1.2757,-1.2818,-1.2931,-1.456,-1.5439,-1.5517,-1.6026,-1.6469,-1.6781,-1.6469,-1.6459,-1.6801,-1.6566,-1.6415,-1.6425,-1.6848,-1.7057,-1.7097,-1.7314,-1.7451,-1.7451,-1.74,-1.7359,-1.739,-1.6935,-1.6287,-1.5504,-1.5368,-1.5396,-1.5517,-1.5526,-1.5206,-1.444,-1.4419,-1.4172,-1.3863,-1.3773,-1.3463,-1.2879,-1.2665,-1.2389,-1.1734,-1.164,-1.1578,-1.1423,-1.1516,-1.1219,-1.0751,-1.0656,-1.0479,-0.9996,-1.004,-0.9868,-1.0072,-1.078,-1.1423,-1.1516,-1.1578,-1.164,-1.1671,-1.1703,-1.1981,-1.185,-1.2482,-1.2868,-1.2999,-1.3616,-1.4169,-1.4622,-1.4719,-1.4978,-1.501,-1.52,-1.4754,-1.4431,-1.4279,-1.4208,-1.4158,-1.4242,-1.4329,-1.7028,-1.6919,-1.6778,-1.6698,-1.6698,-1.6698,-1.6698,-1.6764,-1.7338,-1.7378,-1.7064,-1.7,-1.6598,-1.593,-1.577,-1.5414,-1.4887,-1.4689,-1.4601,-1.4601,-1.4601,-1.4601,-1.4601,-1.4601,-1.4601,-1.4565,-1.4171,-1.3914,-1.3699,-1.3145,-1.2774,-1.2593,-1.2494,-1.2299,-1.1988,-1.2328,-1.2512,-1.2504,-1.3377,-1.3995,-1.4371,-1.4619,-1.5038,-1.5575,-1.542,-1.541,-1.5595,-1.596,-1.6117,-1.6147,-1.6839,-1.7225,-1.7236,-1.7112,-1.7004,-1.7004,-1.6721,-1.6638,-1.6838,-1.6783,-1.6473,-1.5799,-1.5656,-1.5278,-1.4613,-1.4717,-1.4616,-1.4228,-1.4079,-1.3761,-1.3208,-1.3108,-1.2818,-1.2043,-1.195,-1.1671,-1.1094,-1.0937,-1.0811,-1.0471,-1.0408,-1.0353,-1.0192,-1.0178,-1.0149,-0.9922,-0.9802,-0.9652,-0.9526,-1.0109,-1.0548,-1.0479,-1.0692,-1.0944,-1.0989,-1.1439,-1.167,-1.1716,-1.2094,-1.2352,-1.2407,-1.2893,-1.3037,-1.302,-1.3193,-1.3304,-1.3412,-1.3312,-1.3328,-1.3535,-1.3168,-1.3076,-1.3279,-1.3532,-1.3797,-1.6624,-1.6514,-1.6304,-1.6159,-1.6124,-1.6124,-1.609,-1.6131,-1.6124,-1.5945,-1.5731,-1.6021,-1.5913,-1.5366,-1.5141,-1.4871,-1.4582,-1.4344,-1.4139,-1.4106,-1.4063,-1.4063,-1.4106,-1.4063,-1.4099,-1.4027,-1.3499,-1.3244,-1.3142,-1.2396,-1.1966,-1.1895,-1.1885,-1.1686,-1.141,-1.1848,-1.2081,-1.205,-1.2089,-1.2451,-1.3221,-1.326,-1.3584,-1.4143,-1.4252,-1.4234,-1.4251,-1.5053,-1.5548,-1.5598,-1.6471,-1.708,-1.7175,-1.6879,-1.668,-1.6647,-1.6258,-1.599,-1.6059,-1.6212,-1.6109,-1.5735,-1.5481,-1.4911,-1.3896,-1.3845,-1.3852,-1.3744,-1.3541,-1.3199,-1.2604,-1.2481,-1.2174,-1.1392,-1.1346,-1.1087,-1.0495,-1.0412,-1.0296,-0.9782,-0.969,-0.9814,-0.9937,-0.9991,-0.9996,-0.9943,-0.9696,-0.9366,-0.9223,-0.9332,-0.9343,-0.9394,-0.9868,-1.0451,-1.0503,-1.0987,-1.1386,-1.1506,-1.1739,-1.1864,-1.1947,-1.2071,-1.2217,-1.1984,-1.1923,-1.2054,-1.186,-1.1867,-1.2068,-1.2374,-1.2144,-1.1874,-1.2178,-1.2553,-1.3125,-1.5266,-1.476,-1.4786,-1.4536,-1.4419,-1.4412,-1.4412,-1.4412,-1.437,-1.4321,-1.4483,-1.5921,-1.5967,-1.505,-1.4896,-1.422,-1.3168,-1.2978,-1.2852,-1.262,-1.2519,-1.2519,-1.2586,-1.2556,-1.2519,-1.2556,-1.2482,-1.2482,-1.2489,-1.2345,-1.2161,-1.1899,-1.1606,-1.133,-1.108,-1.0912,-1.0807,-1.0776,-1.0776,-1.1358,-1.2512,-1.2604,-1.2787,-1.3227,-1.3467,-1.349,-1.3289,-1.379,-1.4153,-1.4299,-1.5016,-1.5728,-1.6342,-1.6689,-1.6849,-1.6805,-1.6771,-1.6421,-1.547,-1.4805,-1.434,-1.3872,-1.3756,-1.3516,-1.3173,-1.291,-1.2545,-1.2187,-1.2042,-1.2003,-1.1679,-1.167,-1.1401,-1.0787,-1.0834,-1.0712,-1.0149,-1.0183,-1.0289,-1.0254,-1.0057,-1.0238,-1.0071,-1.0066,-0.9892,-0.9298,-0.8745,-0.8329,-0.8245,-0.8279,-0.8318,-0.8429,-0.9304,-1.0133,-1.0218,-1.0364,-1.0353,-1.025,-1.0682,-1.0959,-1.1051,-1.1558,-1.2206,-1.1591,-1.2143,-1.2127,-1.2081,-1.2221,-1.2048,-1.1903,-1.1764,-1.1631,-1.1432,-1.1527,-1.204,-1.5257,-1.5003,-1.4663,-1.4355,-1.4108,-1.4088,-1.4088,-1.4088,-1.4088,-1.4088,-1.4166,-1.4866,-1.4872,-1.4421,-1.4199,-1.3817,-1.326,-1.2951,-1.2723,-1.2589,-1.2392,-1.2305,-1.2305,-1.2305,-1.2305,-1.2305,-1.2305,-1.2305,-1.2305,-1.2305,-1.2158,-1.1906,-1.157,-1.1242,-1.0995,-1.0734,-1.0586,-1.0586,-1.0586,-1.087,-1.1358,-1.1725,-1.2189,-1.2703,-1.2868,-1.2875,-1.2797,-1.3178,-1.3466,-1.3539,-1.4222,-1.4754,-1.5036,-1.5206,-1.5384,-1.55,-1.5366,-1.4984,-1.4271,-1.3952,-1.3739,-1.3616,-1.3419,-1.3104,-1.2622,-1.2325,-1.184,-1.1169,-1.1636,-1.1898,-1.1464,-1.1372,-1.1115,-1.0543,-1.0476,-1.0436,-1.017,-1.0232,-1.0153,-0.9695,-0.959,-0.9476,-0.921,-0.9244,-0.9145,-0.8722,-0.8286,-0.8037,-0.7931,-0.8022,-0.8137,-0.8228,-0.8865,-0.9114,-0.9014,-0.904,-0.9062,-0.9103,-0.9342,-0.9646,-1.0199,-0.9994,-1.0219,-1.0503,-1.0744,-1.0852,-1.0605,-1.1199,-1.1403,-1.1366,-1.1632,-1.1551,-1.1071,-1.1279,-1.1827,-1.5471,-1.5311,-1.4763,-1.4402,-1.4202,-1.4122,-1.4088,-1.4088,-1.4088,-1.4088,-1.4088,-1.4088,-1.4088,-1.4055,-1.3861,-1.368,-1.354,-1.3106,-1.2864,-1.2757,-1.2438,-1.2305,-1.2305,-1.2305,-1.2305,-1.2305,-1.2305,-1.2305,-1.2305,-1.2305,-1.2191,-1.1971,-1.1697,-1.1403,-1.1116,-1.0828,-1.0667,-1.0593,-1.0586,-1.0586,-1.0649,-1.1021,-1.1483,-1.1934,-1.2151,-1.2151,-1.2004,-1.2514,-1.2828,-1.2836,-1.3423,-1.3847,-1.4052,-1.4086,-1.4156,-1.4295,-1.3955,-1.3554,-1.3119,-1.3014,-1.2931,-1.2984,-1.2857,-1.2579,-1.2123,-1.1834,-1.1354,-1.0793,-1.1405,-1.168,-1.1149,-1.1046,-1.0805,-1.0361,-1.034,-1.0324,-1.0114,-1.0131,-0.988,-0.9144,-0.9042,-0.8872,-0.8522,-0.843,-0.8316,-0.8119,-0.7869,-0.7686,-0.7533,-0.7569,-0.7683,-0.7762,-0.7925,-0.8078,-0.8061,-0.84,-0.8379,-0.8333,-0.8585,-0.8808,-0.9231,-0.8694,-0.8423,-0.9028,-0.886,-0.8836,-0.9054,-0.9626,-1.0045,-1.0378,-1.0565,-1.0539,-1.0142,-1.0576,-1.0875,-1.5645,-1.5331,-1.4763,-1.4522,-1.4476,-1.4202,-1.4088,-1.4088,-1.4088,-1.4088,-1.4088,-1.4088,-1.4088,-1.4088,-1.4048,-1.3915,-1.3593,-1.3287,-1.3046,-1.2824,-1.2465,-1.2311,-1.2305,-1.2305,-1.2305,-1.2305,-1.2305,-1.2305,-1.2305,-1.2305,-1.2298,-1.2221,-1.1935,-1.1655,-1.1266,-1.0929,-1.0835,-1.0487,-1.0441,-1.0523,-1.0523,-1.0586,-1.0586,-1.0713,-1.1233,-1.1296,-1.0929,-1.1578,-1.2086,-1.2129,-1.2469,-1.2957,-1.3584,-1.3667,-1.3649,-1.36,-1.3031,-1.2513,-1.2156,-1.1759,-1.1512,-1.1483,-1.1403,-1.1461,-1.1464,-1.1162,-1.0922,-1.0977,-1.0929,-1.084,-1.0389,-1.0388,-1.0364,-1.0294,-1.0468,-1.0215,-0.9607,-0.9707,-0.9524,-0.8874,-0.8576,-0.8463,-0.8514,-0.8008,-0.7633,-0.7379,-0.6888,-0.6489,-0.6545,-0.6489,-0.6535,-0.6535,-0.6665,-0.6938,-0.8206,-0.8161,-0.8217,-0.8078,-0.7732,-0.8012,-0.7855,-0.7698,-0.7621,-0.7617,-0.7698,-0.7698,-0.7655,-0.7727,-0.7995,-0.8219,-0.8333,-0.8342,-0.8955,-0.8851,-0.915,-1.5658,-1.5357,-1.4963,-1.4696,-1.4446,-1.4215,-1.4088,-1.4088,-1.4088,-1.4088,-1.4088,-1.4088,-1.4088,-1.4088,-1.4088,-1.4028,-1.3908,-1.3621,-1.3387,-1.3267,-1.2857,-1.2623,-1.261,-1.2398,-1.2305,-1.2305,-1.2305,-1.2305,-1.2305,-1.2305,-1.204,-1.1551,-1.1288,-1.0844,-1.0219,-0.9793,-0.9536,-0.9449,-0.9329,-0.9268,-0.93,-0.9268,-0.9262,-0.9326,-1.0351,-1.0807,-1.0586,-1.0948,-1.1124,-1.1117,-1.1409,-1.1708,-1.1947,-1.216,-1.2073,-1.1776,-1.1629,-1.1378,-1.0994,-1.0672,-1.0371,-1.014,-0.9968,-0.9893,-0.9777,-0.9642,-0.9566,-0.9604,-0.9566,-0.943,-0.9463,-0.9732,-1.003,-1.0005,-0.9691,-0.9362,-0.9083,-0.9072,-0.8813,-0.8055,-0.7522,-0.7176,-0.7215,-0.6911,-0.676,-0.6679,-0.6454,-0.6338,-0.63,-0.63,-0.63,-0.63,-0.63,-0.6412,-0.6668,-0.6853,-0.6857,-0.6742,-0.6668,-0.6899,-0.6899,-0.6595,-0.644,-0.6777,-0.6819,-0.678,-0.6777,-0.7084,-0.708,-0.7234,-0.7272,-0.7272,-0.7889,-0.7889,-0.8042,-1.5718,-1.5504,-1.5217,-1.4937,-1.4643,-1.4349,-1.4168,-1.4095,-1.4088,-1.4088,-1.4088,-1.4088,-1.4088,-1.4088,-1.4088,-1.4088,-1.4055,-1.374,-1.3606,-1.3519,-1.2844,-1.266,-1.2807,-1.2277,-1.2177,-1.235,-1.2079,-1.1929,-1.1848,-1.1626,-1.1254,-1.0752,-1.0514,-1.0132,-0.9538,-0.9192,-0.8986,-0.884,-0.8699,-0.8608,-0.8603,-0.8528,-0.8522,-0.8651,-0.9422,-1.004,-1.0238,-1.0466,-1.0586,-1.0613,-1.0787,-1.0855,-1.0908,-1.1035,-1.0975,-1.0673,-1.078,-1.0607,-1.0066,-0.9937,-0.9682,-0.9142,-0.8983,-0.8816,-0.8657,-0.8632,-0.8632,-0.8647,-0.8675,-0.8703,-0.8742,-0.896,-0.9236,-0.9387,-0.9003,-0.8589,-0.8356,-0.8318,-0.794,-0.7253,-0.6721,-0.6377,-0.63,-0.6296,-0.6338,-0.63,-0.63,-0.63,-0.63,-0.63,-0.6257,-0.618,-0.6138,-0.5864,-0.5699,-0.5538,-0.5857,-0.586,-0.5699,-0.5899,-0.586,-0.5518,-0.5479,-0.586,-0.6012,-0.5938,-0.6093,-0.6395,-0.6549,-0.6661,-0.6511,-0.636,-0.6777,-0.708,-0.7272,-1.5825,-1.5718,-1.5518,-1.5197,-1.4941,-1.4603,-1.4342,-1.4108,-1.4088,-1.4088,-1.4088,-1.4088,-1.4046,-1.3997,-1.3913,-1.4004,-1.3776,-1.3476,-1.3441,-1.3402,-1.2336,-1.224,-1.2863,-1.1864,-1.1787,-1.2412,-1.1602,-1.1111,-1.1074,-1.0458,-1.0045,-0.9927,-0.9879,-0.9649,-0.941,-0.9218,-0.9185,-0.8845,-0.8627,-0.8659,-0.8728,-0.8443,-0.8333,-0.8355,-0.8501,-0.8839,-0.9422,-1.0104,-1.0396,-1.0428,-1.0473,-1.0568,-1.0467,-1.0469,-1.0518,-1.0448,-1.0504,-1.0117,-0.9426,-0.9441,-0.9136,-0.8482,-0.8423,-0.8333,-0.8182,-0.821,-0.8245,-0.8222,-0.8323,-0.8471,-0.8324,-0.7926,-0.785,-0.8504,-0.8471,-0.8096,-0.7651,-0.7476,-0.7215,-0.6567,-0.63,-0.63,-0.63,-0.63,-0.63,-0.63,-0.63,-0.63,-0.6261,-0.618,-0.6099,-0.5902,-0.555,-0.5118,-0.4649,-0.4297,-0.4771,-0.5126,-0.4965,-0.4963,-0.4807,-0.4579,-0.4421,-0.4688,-0.4691,-0.4654,-0.4965,-0.5193,-0.4924,-0.5002,-0.5046,-0.5279,-0.5619,-0.596,-0.6426,-1.5825,-1.5792,-1.5518,-1.5231,-1.4988,-1.4643,-1.4349,-1.4095,-1.4088,-1.4088,-1.4088,-1.4088,-1.3737,-1.3222,-1.3137,-1.279,-1.2174,-1.2099,-1.2367,-1.2656,-1.1727,-1.1323,-1.1478,-1.1008,-1.0802,-1.09,-1.0508,-1.0271,-1.0244,-1.0013,-0.9669,-0.9183,-0.9074,-0.8742,-0.8214,-0.798,-0.7837,-0.7743,-0.7633,-0.757,-0.7552,-0.7377,-0.7279,-0.7295,-0.7602,-0.7939,-0.8134,-0.878,-0.9134,-0.9198,-0.9166,-0.9166,-0.9166,-0.9166,-0.9134,-0.9139,-0.9043,-0.8877,-0.8598,-0.8392,-0.8077,-0.7484,-0.7267,-0.6985,-0.6702,-0.6694,-0.6751,-0.6791,-0.6758,-0.6743,-0.676,-0.6548,-0.677,-0.7538,-0.7181,-0.6847,-0.6648,-0.6652,-0.656,-0.6374,-0.63,-0.63,-0.6257,-0.6257,-0.6141,-0.6141,-0.618,-0.618,-0.6183,-0.5709,-0.5354,-0.5118,-0.4647,-0.4142,-0.3556,-0.3166,-0.3363,-0.3717,-0.3715,-0.3949,-0.3832,-0.3754,-0.3599,-0.356,-0.3522,-0.36,-0.3912,-0.3912,-0.3717,-0.3482,-0.3558,-0.3908,-0.4375,-0.48,-0.5223,-1.5825,-1.5812,-1.5631,-1.5324,-1.5008,-1.4756,-1.4449,-1.4122,-1.4088,-1.3919,-1.361,-1.3574,-1.3052,-1.2314,-1.2186,-1.1886,-1.1284,-1.0982,-1.1106,-1.152,-1.0974,-1.0683,-1.0942,-1.0729,-1.0449,-1.0182,-0.9795,-0.9571,-0.9527,-0.9185,-0.8765,-0.8318,-0.8246,-0.8055,-0.7553,-0.7382,-0.7322,-0.7297,-0.7184,-0.709,-0.7057,-0.6918,-0.6792,-0.6757,-0.7008,-0.7145,-0.711,-0.7489,-0.7972,-0.8393,-0.8522,-0.8522,-0.849,-0.8458,-0.8393,-0.8361,-0.8231,-0.8032,-0.7707,-0.7451,-0.7034,-0.6479,-0.6203,-0.604,-0.5731,-0.5674,-0.5776,-0.5827,-0.587,-0.5861,-0.5979,-0.5895,-0.6107,-0.658,-0.6273,-0.5969,-0.5993,-0.6169,-0.6289,-0.6219,-0.6025,-0.5867,-0.5825,-0.5473,-0.5395,-0.5395,-0.5356,-0.5356,-0.5279,-0.4885,-0.4533,-0.4181,-0.383,-0.3207,-0.2425,-0.2152,-0.2035,-0.2152,-0.2309,-0.2699,-0.2934,-0.2934,-0.2895,-0.2934,-0.2895,-0.2974,-0.3207,-0.3051,-0.2856,-0.2542,-0.2347,-0.2932,-0.3478,-0.3439,-0.3748,-1.5825,-1.5825,-1.5825,-1.5484,-1.5042,-1.4988,-1.4566,-1.4008,-1.3955,-1.3434,-1.2747,-1.2619,-1.21,-1.137,-1.1198,-1.1111,-1.0977,-1.0207,-0.9859,-0.9946,-0.9836,-1.0173,-1.0694,-1.0494,-1.0238,-0.9963,-0.9314,-0.8971,-0.8841,-0.8168,-0.7526,-0.7599,-0.7633,-0.7518,-0.7476,-0.7514,-0.7498,-0.7435,-0.7309,-0.724,-0.7191,-0.7098,-0.6943,-0.6796,-0.6781,-0.6717,-0.6585,-0.663,-0.7129,-0.8166,-0.8199,-0.8166,-0.8264,-0.8199,-0.7972,-0.7939,-0.7934,-0.7377,-0.685,-0.6625,-0.6325,-0.5677,-0.5591,-0.5419,-0.5511,-0.5599,-0.5681,-0.5715,-0.5762,-0.5864,-0.5925,-0.5891,-0.5853,-0.5786,-0.5825,-0.5814,-0.5963,-0.6132,-0.6151,-0.6002,-0.5509,-0.4957,-0.4993,-0.4377,-0.4103,-0.4027,-0.4066,-0.4144,-0.4025,-0.3947,-0.3521,-0.3169,-0.2818,-0.2154,-0.1371,-0.1254,-0.1137,-0.1137,0.0,0.0,0.0,0.0,0.0,-0.2192,-0.2152,-0.227,-0.227,-0.2074,-0.1957,-0.1761,-0.1918,-0.2308,-0.2464,-0.2464,-0.2659,-1.5825,-1.5825,-1.5825,-1.5498,-1.5048,-1.5015,-1.4228,-1.3168,-1.3052,-1.2534,-1.1794,-1.1666,-1.1149,-1.0332,-1.0246,-0.9946,-0.9432,-0.913,-0.8959,-0.8959,-0.8915,-0.9038,-0.9218,-0.9102,-0.8983,-0.8857,-0.8604,-0.8201,-0.8118,-0.7865,-0.7653,-0.7522,-0.7526,-0.7518,-0.7518,-0.7518,-0.7518,-0.7518,-0.7447,-0.7407,-0.7382,-0.724,-0.7139,-0.7086,-0.6948,-0.6833,-0.6627,-0.6489,-0.6515,-0.6872,-0.697,-0.697,-0.6999,-0.6896,-0.683,-0.6769,-0.6474,-0.6174,-0.5984,-0.5863,-0.5681,-0.5583,-0.5532,-0.5572,-0.5681,-0.5718,-0.58,-0.5861,-0.5831,-0.5864,-0.5969,-0.5901,-0.5776,-0.5664,-0.559,-0.5637,-0.5794,-0.5861,-0.5774,-0.5378,-0.4999,-0.4586,-0.4162,-0.3871,-0.3677,-0.3677,-0.3638,-0.3638,-0.3363,-0.2974,-0.2585,-0.2077,-0.1647,-0.098,-0.051,-0.0392,-0.0314,-0.0275,0.0,0.0,0.0,0.0,0.0,-0.1371,-0.1097,-0.1137,-0.1176,-0.1097,-0.1019,0.0,0.0,0.0,0.0,-0.1644,-0.1957,-1.5825,-1.5737,-1.535,-1.4886,-1.4347,-1.3941,-1.3099,-1.225,-1.21,-1.158,-1.0852,-1.0717,-1.0207,-0.9388,-0.9345,-0.9087,-0.8656,-0.8616,-0.8616,-0.8616,-0.8612,-0.8656,-0.8627,-0.8486,-0.8449,-0.8385,-0.8219,-0.8089,-0.8012,-0.7886,-0.7743,-0.7645,-0.7559,-0.7522,-0.7518,-0.7518,-0.7518,-0.7518,-0.7518,-0.7518,-0.751,-0.7391,-0.7293,-0.7195,-0.711,-0.6985,-0.6814,-0.67,-0.6587,-0.6469,-0.642,-0.6387,-0.6317,-0.6148,-0.6046,-0.5951,-0.571,-0.5589,-0.5599,-0.5573,-0.562,-0.5657,-0.5681,-0.5718,-0.5776,-0.5803,-0.5857,-0.5888,-0.5844,-0.5888,-0.5939,-0.5945,-0.5653,-0.5258,-0.5136,-0.5174,-0.5245,-0.5324,-0.5069,-0.4571,-0.4074,-0.3729,-0.3244,-0.3013,-0.282,-0.2702,-0.2586,-0.2624,-0.2546,-0.2117,-0.1687,-0.1295,-0.102,-0.0589,0.0,0.0,0.0,0.0079,0.0,0.0,0.0,0.0,0.0,0.0,0.0,0.0,0.0,0.0,0.0,0.0,0.0,0.0,0.0,0.0,0.0,-1.5588,-1.5391,-1.4501,-1.3866,-1.3338,-1.2393,-1.1759,-1.1202,-1.1149,-1.0636,-0.9903,-0.9777,-0.9388,-0.8616,-0.8744,-0.8616,-0.8616,-0.8616,-0.8616,-0.8616,-0.8616,-0.8616,-0.8612,-0.8596,-0.858,-0.8563,-0.839,-0.83,-0.822,-0.798,-0.7829,-0.7739,-0.7608,-0.7531,-0.7518,-0.7518,-0.7518,-0.7518,-0.7518,-0.7518,-0.7518,-0.7456,-0.7395,-0.726,-0.7183,-0.7131,-0.7049,-0.6963,-0.6798,-0.646,-0.6477,-0.6409,-0.6293,-0.6052,-0.5888,-0.5746,-0.5682,-0.5606,-0.5623,-0.5743,-0.5796,-0.5817,-0.5823,-0.584,-0.5878,-0.5901,-0.5911,-0.5935,-0.5854,-0.5879,-0.5772,-0.5826,-0.5384,-0.4725,-0.4435,-0.438,-0.4312,-0.4483,-0.4383,-0.3705,-0.29,-0.2572,-0.2196,-0.1846,-0.1375,-0.1961,-0.1845,-0.1844,-0.1804,-0.1492,-0.1099,-0.0785,-0.055,-0.0393,0.0,0.0,0.0,0.0275,0.0432,0.0,0.0,0.0,0.0,0.0,0.0,0.0,0.0,0.0,0.0,0.0,0.0,0.0,0.0,0.0,0.0,-1.4142,-1.3343,-1.3003,-1.2653,-1.2285,-1.1963,-1.1193,-1.0207,-1.0207,-0.9728,-0.9043,-0.8915,-0.8784,-0.8616,-0.8616,-0.8616,-0.8616,-0.8616,-0.8616,-0.8616,-0.8616,-0.8616,-0.8616,-0.8616,-0.8616,-0.8596,-0.8575,-0.8434,-0.831,-0.8089,-0.789,-0.7796,-0.7653,-0.7518,-0.7522,-0.7518,-0.7518,-0.7518,-0.7518,-0.7518,-0.7518,-0.7518,-0.7498,-0.7403,-0.7301,-0.7183,-0.7151,-0.7065,-0.6951,-0.689,-0.6838,-0.6729,-0.6491,-0.6316,-0.6137,-0.5969,-0.5821,-0.5755,-0.5766,-0.5731,-0.5821,-0.5858,-0.5872,-0.603,-0.619,-0.6142,-0.6187,-0.6197,-0.6162,-0.5844,-0.529,-0.523,-0.4711,-0.4021,-0.3717,-0.3455,-0.2969,-0.326,-0.3341,-0.2855,-0.2498,-0.2151,-0.1644,-0.1571,-0.1297,-0.1297,-0.1258,-0.1218,-0.1061,-0.0943,-0.0707,-0.0471,-0.0354,-0.0196,0.0,0.0,0.0,0.0902,0.098,0.1058,0.1214,0.0,0.0,0.0,0.0,0.0,0.0,0.0,0.0,0.0,0.0,0.0,0.0,0.0,0.0,-1.3221,-1.2657,-1.2046,-1.1584,-1.1268,-1.065,-0.9962,-0.9411,-0.9301,-0.9043,-0.87,-0.8616,-0.8616,-0.8616,-0.8616,-0.8616,-0.8616,-0.8616,-0.8616,-0.8616,-0.8616,-0.8616,-0.8616,-0.8616,-0.8616,-0.8616,-0.8612,-0.8543,-0.8437,-0.8227,-0.8052,-0.7878,-0.7739,-0.7573,-0.7531,-0.7518,-0.7518,-0.7518,-0.7518,-0.7518,-0.7518,-0.7518,-0.7518,-0.7514,-0.7395,-0.7308,-0.7187,-0.7227,-0.7138,-0.7015,-0.7011,-0.6895,-0.655,-0.6344,-0.6169,-0.5989,-0.5954,-0.5642,-0.5469,-0.538,-0.5448,-0.5512,-0.5521,-0.5867,-0.6118,-0.63,-0.63,-0.6222,-0.5899,-0.5354,-0.4572,-0.4455,-0.3956,-0.3312,-0.3042,-0.2642,-0.2105,-0.2398,-0.2569,-0.2065,-0.1812,-0.1669,-0.1448,-0.1335,-0.1297,-0.1297,-0.1297,-0.1218,-0.1022,-0.0864,-0.0668,-0.0432,-0.0275,0.0039,0.0588,0.0,0.0,0.1723,0.1841,0.1879,0.1996,0.1683,0.0,0.0,0.0,0.0,0.0,0.0,0.0353,0.0,0.0,0.0,0.0,0.0,0.0,-1.2372,-1.2126,-1.1053,-1.0519,-1.0168,-0.9252,-0.8787,-0.8668,-0.8616,-0.8656,-0.8616,-0.8616,-0.8616,-0.8616,-0.8616,-0.8616,-0.8616,-0.8616,-0.8616,-0.8616,-0.8616,-0.8616,-0.8616,-0.8616,-0.8616,-0.8616,-0.8616,-0.8596,-0.8551,-0.8377,-0.8158,-0.8004,-0.7877,-0.769,-0.7555,-0.7518,-0.7518,-0.7518,-0.7518,-0.7518,-0.7518,-0.7518,-0.7484,-0.7442,-0.7395,-0.7149,-0.6957,-0.6942,-0.6954,-0.6588,-0.6672,-0.6452,-0.6169,-0.6052,-0.6019,-0.5848,-0.5854,-0.5485,-0.5124,-0.5002,-0.5024,-0.4888,-0.4805,-0.5115,-0.5631,-0.5709,-0.567,-0.555,-0.516,-0.4496,-0.3754,-0.3599,-0.3171,-0.2575,-0.2307,-0.2002,-0.1594,-0.181,-0.1796,-0.1491,-0.1472,-0.1409,-0.1372,-0.1297,-0.1297,-0.1297,-0.1297,-0.1179,-0.0982,-0.0786,-0.055,-0.0118,0.0118,0.0706,0.1332,0.1644,0.2152,0.2582,0.2699,0.2817,0.2934,0.3013,0.2779,0.227,0.0,0.1918,0.1567,0.1215,0.0823,0.0353,0.0,0.0,0.0,0.0,0.0,-1.0877,-0.9905,-0.9536,-0.9263,-0.9079,-0.8771,-0.8601,-0.862,-0.8616,-0.8616,-0.8616,-0.8616,-0.8616,-0.8616,-0.8616,-0.8616,-0.8616,-0.8616,-0.8616,-0.8616,-0.8616,-0.8616,-0.8616,-0.8616,-0.8616,-0.8616,-0.8616,-0.8616,-0.8571,-0.8381,-0.8215,-0.802,-0.7898,-0.7722,-0.7571,-0.7518,-0.7518,-0.7518,-0.7518,-0.7518,-0.7518,-0.7407,-0.7253,-0.7099,-0.7022,-0.6633,-0.6089,-0.6005,-0.5767,-0.4916,-0.4727,-0.4627,-0.4696,-0.5105,-0.5489,-0.5762,-0.5396,-0.4988,-0.473,-0.4825,-0.4572,-0.4219,-0.3986,-0.4025,-0.4261,-0.43,-0.4457,-0.4302,-0.4144,-0.3638,-0.2821,-0.2704,-0.2353,-0.1803,-0.1566,-0.1521,-0.137,-0.1407,-0.1517,-0.1322,-0.1292,-0.1297,-0.1297,-0.1297,-0.1297,-0.1297,-0.1297,-0.11,-0.0786,-0.0629,-0.0432,0.0078,0.0628,0.1371,0.2152,0.2387,0.2778,0.3365,0.364,0.3876,0.407,0.4465,0.4309,0.3521,0.2934,0.2621,0.2231,0.188,0.1488,0.1176,0.0,0.0,0.0,0.0,0.0,-0.9956,-0.938,-0.9072,-0.8905,-0.88,-0.8682,-0.8616,-0.8616,-0.8616,-0.8616,-0.8616,-0.8616,-0.8616,-0.8616,-0.8616,-0.8616,-0.8616,-0.8616,-0.8616,-0.8616,-0.8616,-0.8616,-0.8616,-0.8616,-0.8616,-0.8616,-0.8616,-0.8616,-0.8608,-0.8531,-0.828,-0.8052,-0.7918,-0.7756,-0.7541,-0.7518,-0.7518,-0.7518,-0.7518,-0.748,-0.7442,-0.7215,-0.6753,-0.6247,-0.6051,-0.5622,-0.5076,-0.5035,-0.48,-0.4258,-0.4105,-0.4029,-0.3949,-0.391,-0.4222,-0.4768,-0.4613,-0.4146,-0.3837,-0.3679,-0.3483,-0.321,-0.3132,-0.3404,-0.3677,-0.3832,-0.356,-0.3249,-0.3093,-0.2782,-0.1962,-0.1924,-0.1688,-0.1453,-0.1297,-0.1297,-0.1297,-0.1297,-0.1297,-0.1297,-0.1297,-0.1297,-0.1297,-0.1297,-0.1297,-0.1297,-0.1297,-0.0982,-0.0589,-0.0432,-0.0235,0.0862,0.1606,0.2349,0.3052,0.3326,0.3443,0.3951,0.4307,0.4543,0.4701,0.4898,0.4779,0.4268,0.3795,0.3404,0.3207,0.2934,0.2465,0.1996,0.0,0.0,0.0,0.0,0.1097,-0.9359,-0.9269,-0.8938,-0.88,-0.8747,-0.8669,-0.8616,-0.8616,-0.8616,-0.8616,-0.8616,-0.8616,-0.8616,-0.8616,-0.8616,-0.8616,-0.8616,-0.8616,-0.8616,-0.8616,-0.8616,-0.8616,-0.8616,-0.8616,-0.8616,-0.8616,-0.8616,-0.8616,-0.8616,-0.8596,-0.8369,-0.8154,-0.8048,-0.7866,-0.7614,-0.7551,-0.7535,-0.7518,-0.7518,-0.7484,-0.7215,-0.6556,-0.586,-0.504,-0.4849,-0.4535,-0.3871,-0.3947,-0.3713,-0.3404,-0.3288,-0.3365,-0.321,-0.2627,-0.2627,-0.3171,-0.3443,-0.3134,-0.2784,-0.2588,-0.2627,-0.2315,-0.2276,-0.2665,-0.2935,-0.2974,-0.2898,-0.2433,-0.2237,-0.208,-0.1532,-0.1336,-0.1335,-0.1336,-0.1297,-0.1297,-0.1297,-0.1297,-0.1297,-0.1297,-0.1297,-0.1297,-0.1297,-0.1297,-0.1297,-0.1297,-0.1297,-0.0706,-0.0353,-0.0157,0.0314,0.1722,0.2699,0.3404,0.399,0.4309,0.4387,0.4543,0.4701,0.482,0.4898,0.4979,0.482,0.4662,0.4701,0.4348,0.4187,0.3832,0.3246,0.2817,0.2659,0.2387,0.2074,0.1996,0.1918,-0.9173,-0.8835,-0.8795,-0.8735,-0.8609,-0.8624,-0.8616,-0.8616,-0.8616,-0.8616,-0.8616,-0.8616,-0.8616,-0.8616,-0.8616,-0.8616,-0.8616,-0.8616,-0.8616,-0.8616,-0.8616,-0.8616,-0.8616,-0.8616,-0.8616,-0.8616,-0.8616,-0.8616,-0.8616,-0.8616,-0.851,-0.8256,-0.8069,-0.791,-0.7743,-0.7588,-0.7522,-0.7518,-0.748,-0.7215,-0.656,-0.5544,-0.496,-0.4611,-0.4261,-0.3679,-0.2899,-0.2898,-0.2662,-0.1884,-0.1727,-0.1688,-0.157,-0.1531,-0.1452,-0.1766,-0.2158,-0.2627,-0.2431,-0.2353,-0.2119,-0.1728,-0.1571,-0.1532,-0.1805,-0.1883,-0.1805,-0.1532,-0.1493,-0.1492,-0.1375,-0.1336,-0.1297,-0.1297,-0.1297,-0.1297,-0.1297,-0.1297,-0.1297,-0.1297,-0.1297,-0.1297,-0.1297,-0.1297,-0.1297,-0.1297,-0.1178,-0.0549,0.0157,0.0509,0.1057,0.2464,0.3404,0.4109,0.4384,0.482,0.4937,0.5018,0.5018,0.5018,0.5018,0.5018,0.5018,0.494,0.5018,0.4979,0.4662,0.4304,0.3871,0.3638,0.3443,0.2973,0.2464,0.2542,0.2856,-0.8962,-0.8812,-0.8718,-0.8633,-0.862,-0.8616,-0.8616,-0.8616,-0.8616,-0.8616,-0.8616,-0.8616,-0.8616,-0.8616,-0.8616,-0.8616,-0.8616,-0.8616,-0.8616,-0.8616,-0.8616,-0.8616,-0.8616,-0.8616,-0.8616,-0.8616,-0.8616,-0.8616,-0.8616,-0.8596,-0.8514,-0.8296,-0.8109,-0.7927,-0.7816,-0.7616,-0.7539,-0.7407,-0.7138,-0.6479,-0.5589,-0.4771,-0.4068,-0.3483,-0.3093,-0.2547,-0.2118,-0.1883,-0.1804,-0.1335,-0.1297,-0.1297,-0.1336,-0.1336,-0.1336,-0.1336,-0.161,-0.1805,-0.1805,-0.1845,-0.1649,-0.1453,-0.1297,-0.1375,-0.1297,-0.1297,-0.1297,-0.1336,-0.1297,-0.1297,-0.1297,-0.1297,-0.1297,-0.1297,-0.1297,-0.1297,-0.1297,-0.1297,-0.1297,-0.1297,-0.1297,-0.1297,-0.1258,-0.1179,-0.114,-0.1139,-0.0825,-0.0157,0.0861,0.1878,0.2503,0.3363,0.407,0.4662,0.4779,0.4979,0.494,0.5018,0.5018,0.5018,0.5018,0.5018,0.5018,0.5018,0.5018,0.4979,0.494,0.4779,0.4423,0.4307,0.419,0.3837,0.3522,0.3837,0.4073,-0.8755,-0.8743,-0.8617,-0.8616,-0.8616,-0.8616,-0.8616,-0.8616,-0.8616,-0.8616,-0.8616,-0.8616,-0.8616,-0.8616,-0.8616,-0.8616,-0.8616,-0.8616,-0.8616,-0.8616,-0.8616,-0.8616,-0.8616,-0.8616,-0.8616,-0.8616,-0.8616,-0.8616,-0.8616,-0.86,-0.8539,-0.8392,-0.8203,-0.8012,-0.7829,-0.7667,-0.7522,-0.7138,-0.6444,-0.5589,-0.4696,-0.399,-0.3212,-0.2549,-0.2,-0.1609,-0.1375,-0.1336,-0.1335,-0.1335,-0.1297,-0.1297,-0.1297,-0.1297,-0.1297,-0.1297,-0.1415,-0.1415,-0.1414,-0.1415,-0.1336,-0.1297,-0.1297,-0.1297,-0.1297,-0.1297,-0.1297,-0.1297,-0.1297,-0.1297,-0.1297,-0.1297,-0.1297,-0.1297,-0.1297,-0.1297,-0.1297,-0.1297,-0.1297,-0.1297,-0.1297,-0.1297,-0.1258,-0.11,-0.0982,-0.0942,-0.0471,0.0274,0.1526,0.2932,0.356,0.4187,0.4423,0.4859,0.494,0.5018,0.5018,0.5018,0.5018,0.5018,0.5018,0.5018,0.5018,0.5018,0.5018,0.4979,0.4979,0.4979,0.4979,0.4781,0.4623,0.4781,0.482,0.5018,0.4979,-0.8629,-0.8624,-0.862,-0.8616,-0.8616,-0.8616,-0.8616,-0.8616,-0.8616,-0.8616,-0.8616,-0.8616,-0.8616,-0.8616,-0.8616,-0.8616,-0.8616,-0.8616,-0.8616,-0.8616,-0.8616,-0.8616,-0.8616,-0.8616,-0.8616,-0.8616,-0.8616,-0.8616,-0.8616,-0.8616,-0.86,-0.8563,-0.8142,-0.8074,-0.7841,-0.7469,-0.7008,-0.6468,-0.5553,-0.4771,-0.3992,-0.3251,-0.2469,-0.2038,-0.1609,-0.1336,-0.1297,-0.1297,-0.1297,-0.1297,-0.1297,-0.1297,-0.1297,-0.1297,-0.1297,-0.1297,-0.1297,-0.1297,-0.1297,-0.1297,-0.1297,-0.1297,-0.1297,-0.1297,-0.1297,-0.1297,-0.1297,-0.1297,-0.1297,-0.1297,-0.1297,-0.1297,-0.1297,-0.1297,-0.1297,-0.1297,-0.1297,-0.1297,-0.1297,-0.1297,-0.1297,-0.1258,-0.1022,-0.0825,-0.0707,-0.0628,0.047,0.1253,0.2582,0.3834,0.4345,0.4781,0.482,0.4979,0.4979,0.5018,0.5018,0.5018,0.5018,0.5018,0.5018,0.5018,0.5018,0.5018,0.5018,0.5018,0.5018,0.5018,0.5018,0.5018,0.5018,0.5018,0.5018,0.5018,0.5018,-0.8616,-0.8616,-0.8616,-0.8616,-0.8616,-0.8616,-0.8616,-0.8616,-0.8616,-0.8616,-0.8616,-0.8616,-0.8616,-0.8616,-0.8616,-0.8616,-0.8616,-0.8616,-0.8616,-0.8616,-0.8616,-0.8616,-0.8616,-0.8616,-0.8616,-0.8616,-0.8616,-0.8616,-0.8616,-0.8524,-0.8252,-0.8019,-0.7735,-0.7563,-0.7342,-0.6805,-0.6133,-0.5539,-0.4735,-0.4109,-0.3409,-0.2665,-0.2078,-0.1882,-0.1531,-0.1336,-0.1297,-0.1297,-0.1297,-0.1297,-0.1297,-0.1297,-0.1297,-0.1297,-0.1297,-0.1297,-0.1297,-0.1297,-0.1297,-0.1297,-0.1297,-0.1297,-0.1297,-0.1297,-0.1297,-0.1297,-0.1297,-0.1297,-0.1297,-0.1297,-0.1297,-0.1297,-0.1297,-0.1297,-0.1297,-0.1297,-0.1297,-0.1297,-0.1297,-0.1297,-0.1218,-0.11,-0.0825,-0.0471,-0.0393,-0.0236,0.1019,0.2308,0.356,0.4423,0.4781,0.5018,0.5018,0.5018,0.5018,0.5018,0.5018,0.5018,0.5018,0.5018,0.5018,0.5018,0.5018,0.5018,0.5018,0.5018,0.5018,0.5018,0.5018,0.5018,0.5018,0.5018,0.5018,0.5018,0.5018,-0.8616,-0.8616,-0.8616,-0.8616,-0.8616,-0.8616,-0.8616,-0.8616,-0.8616,-0.8616,-0.8616,-0.8616,-0.8616,-0.8616,-0.8616,-0.8616,-0.8616,-0.8616,-0.8616,-0.8616,-0.8616,-0.8616,-0.8616,-0.8616,-0.8616,-0.8616,-0.8616,-0.8616,-0.8616,-0.8384,-0.8025,-0.7548,-0.6947,-0.6744,-0.6607,-0.587,-0.5121,-0.4704,-0.4229,-0.3641,-0.2942,-0.2431,-0.1882,-0.1765,-0.1413,-0.1336,-0.1297,-0.1297,-0.1297,-0.1297,-0.1297,-0.1297,-0.1297,-0.1297,-0.1297,-0.1297,-0.1297,-0.1297,-0.1297,-0.1297,-0.1297,-0.1297,-0.1297,-0.1297,-0.1297,-0.1297,-0.1297,-0.1297,-0.1297,-0.1297,-0.1297,-0.1297,-0.1297,-0.1297,-0.1297,-0.1297,-0.1297,-0.1297,-0.1297,-0.1297,-0.11,-0.0746,-0.0236,0.0235,0.0902,0.1137,0.2037,0.3132,0.4073,0.474,0.4859,0.5018,0.5018,0.5018,0.5018,0.5018,0.5018,0.5018,0.5018,0.5018,0.5018,0.5018,0.5018,0.5018,0.5018,0.5018,0.5018,0.5018,0.5018,0.5018,0.5018,0.5018,0.5018,0.5018,0.5018,-0.8616,-0.8616,-0.8616,-0.8616,-0.8616,-0.8616,-0.8616,-0.8616,-0.8616,-0.8616,-0.8616,-0.8616,-0.8616,-0.8616,-0.8616,-0.8616,-0.8616,-0.8616,-0.8616,-0.8616,-0.8616,-0.8616,-0.8616,-0.8616,-0.8616,-0.8616,-0.8568,-0.8568,-0.848,-0.7984,-0.7625,-0.6959,-0.6175,-0.5676,-0.6031,-0.5292,-0.4805,-0.4641,-0.4045,-0.3292,-0.2744,-0.2353,-0.1884,-0.1532,-0.1335,-0.1297,-0.1297,-0.1297,-0.1297,-0.1297,-0.1297,-0.1297,-0.1297,-0.1297,-0.1297,-0.1297,-0.1297,-0.1297,-0.1297,-0.1297,-0.1297,-0.1297,-0.1297,-0.1297,-0.1297,-0.1297,-0.1297,-0.1297,-0.1297,-0.1297,-0.1297,-0.1297,-0.1297,-0.1297,-0.1297,-0.1297,-0.1297,-0.1297,-0.1297,-0.1061,-0.0629,-0.0236,0.0353,0.102,0.2037,0.2702,0.3329,0.4036,0.4704,0.494,0.4979,0.5018,0.5018,0.5018,0.5018,0.5018,0.5018,0.5018,0.5018,0.5018,0.5018,0.5018,0.5018,0.5018,0.5018,0.5018,0.5018,0.5018,0.5018,0.5018,0.5018,0.5018,0.5018,0.5018,0.5018,-0.8616,-0.8616,-0.8616,-0.8616,-0.8616,-0.8616,-0.8616,-0.8616,-0.8616,-0.8616,-0.8616,-0.8616,-0.8616,-0.8616,-0.8616,-0.8616,-0.8616,-0.8616,-0.8616,-0.8616,-0.8616,-0.8616,-0.8616,-0.8616,-0.8616,-0.8616,-0.8568,-0.8252,-0.7845,-0.7445,-0.6786,-0.6077,-0.5314,-0.4824,-0.4744,-0.4373,-0.4196,-0.4004,-0.3408,-0.2746,-0.2472,-0.2041,-0.1609,-0.1336,-0.1297,-0.1297,-0.1297,-0.1297,-0.1297,-0.1297,-0.1297,-0.1297,-0.1297,-0.1297,-0.1297,-0.1297,-0.1297,-0.1297,-0.1297,-0.1297,-0.1297,-0.1297,-0.1297,-0.1297,-0.1297,-0.1297,-0.1297,-0.1297,-0.1297,-0.1297,-0.1297,-0.1297,-0.1297,-0.1297,-0.1297,-0.1297,-0.1297,-0.1297,-0.1218,-0.0746,-0.0314,0.0628,0.1372,0.2037,0.3015,0.3524,0.3995,0.4311,0.4859,0.494,0.5018,0.5018,0.5018,0.5018,0.5018,0.5018,0.5018,0.5018,0.5018,0.5018,0.5018,0.5018,0.5018,0.5018,0.5018,0.5018,0.5018,0.5018,0.5018,0.5018,0.5018,0.5018,0.5018,0.5018,0.5018,-0.8616,-0.8616,-0.8616,-0.8616,-0.8616,-0.8616,-0.8616,-0.8616,-0.8616,-0.8616,-0.8616,-0.8616,-0.8616,-0.8616,-0.8616,-0.8616,-0.8616,-0.8616,-0.8616,-0.8616,-0.8616,-0.8616,-0.8616,-0.8616,-0.8616,-0.8568,-0.8252,-0.7889,-0.7533,-0.7003,-0.6163,-0.5188,-0.4565,-0.4448,-0.4264,-0.4147,-0.3846,-0.3641,-0.3102,-0.2628,-0.2275,-0.1844,-0.1492,-0.1375,-0.1297,-0.1297,-0.1297,-0.1297,-0.1297,-0.1297,-0.1297,-0.1297,-0.1297,-0.1297,-0.1297,-0.1297,-0.1297,-0.1297,-0.1297,-0.1297,-0.1297,-0.1297,-0.1297,-0.1297,-0.1297,-0.1297,-0.1297,-0.1297,-0.1297,-0.1297,-0.1297,-0.1297,-0.1297,-0.1297,-0.1061,-0.1061,-0.0904,-0.0825,-0.051,-0.0118,0.0628,0.1568,0.2468,0.3212,0.3995,0.4309,0.4623,0.482,0.494,0.4979,0.5018,0.5018,0.5018,0.5018,0.5018,0.5018,0.5018,0.5018,0.5018,0.5018,0.5018,0.5018,0.5018,0.5018,0.5018,0.5018,0.5018,0.5018,0.5018,0.5018,0.5018,0.5018,0.5018,0.5018,0.5018,-0.8616,-0.8616,-0.8616,-0.8616,-0.8616,-0.8616,-0.8616,-0.8616,-0.8616,-0.8616,-0.8616,-0.8616,-0.8616,-0.8616,-0.8616,-0.8616,-0.8616,-0.8616,-0.8616,-0.8616,-0.8616,-0.8616,-0.8616,-0.8616,-0.848,-0.8252,-0.7937,-0.7536,-0.7268,-0.6163,-0.5099,-0.4567,-0.4387,-0.4285,-0.4226,-0.3984,-0.3699,-0.3389,-0.3067,-0.2557,-0.2078,-0.1804,-0.1531,-0.1375,-0.1297,-0.1297,-0.1297,-0.1297,-0.1297,-0.1297,-0.1297,-0.1297,-0.1297,-0.1297,-0.1297,-0.1297,-0.1297,-0.1297,-0.1297,-0.1297,-0.1297,-0.1297,-0.1297,-0.1297,-0.1297,-0.1297,-0.1297,-0.1297,-0.1297,-0.1297,-0.1297,-0.1297,-0.1258,-0.1022,-0.0668,-0.0471,-0.0236,0.0,0.0393,0.0981,0.1803,0.2702,0.3563,0.4345,0.4467,0.4662,0.482,0.4859,0.4979,0.4979,0.5018,0.5018,0.5018,0.5018,0.5018,0.5018,0.5018,0.5018,0.5018,0.5018,0.5018,0.5018,0.5018,0.5018,0.5018,0.5018,0.5018,0.5018,0.5018,0.5018,0.5096,0.5249,0.5326,0.5057,0.5018,-0.8616,-0.8616,-0.8616,-0.8616,-0.8616,-0.8616,-0.8616,-0.8616,-0.8616,-0.8616,-0.8616,-0.8616,-0.8616,-0.8616,-0.8616,-0.8616,-0.8616,-0.8616,-0.8616,-0.8616,-0.8616,-0.8616,-0.8568,-0.8524,-0.83,-0.7893,-0.7489,-0.6915,-0.6033,-0.5013,-0.4656,-0.4342,-0.4297,-0.4297,-0.4106,-0.3822,-0.3537,-0.3212,-0.2879,-0.2363,-0.1922,-0.1649,-0.1453,-0.1336,-0.1297,-0.1297,-0.1297,-0.1297,-0.1297,-0.1297,-0.1297,-0.1297,-0.1297,-0.1297,-0.1297,-0.1297,-0.1297,-0.1297,-0.1297,-0.1297,-0.1297,-0.1297,-0.1297,-0.1297,-0.1297,-0.1297,-0.1297,-0.1297,-0.1297,-0.1297,-0.1179,-0.11,-0.0904,-0.055,-0.0196,0.0118,0.0393,0.0746,0.1177,0.1999,0.286,0.3446,0.4384,0.4662,0.4781,0.494,0.5018,0.5018,0.5018,0.5018,0.5018,0.5018,0.5018,0.5018,0.5018,0.5018,0.5018,0.5018,0.5018,0.5018,0.5018,0.5018,0.5018,0.5018,0.5018,0.5018,0.5018,0.5018,0.5018,0.521,0.5326,0.5518,0.5592,0.5479,0.5365,-0.8616,-0.8616,-0.8616,-0.8616,-0.8616,-0.8616,-0.8616,-0.8616,-0.8616,-0.8616,-0.8616,-0.8616,-0.8616,-0.8616,-0.8616,-0.8616,-0.8616,-0.8616,-0.8616,-0.8616,-0.8568,-0.8616,-0.8568,-0.8252,-0.7893,-0.7489,-0.6871,-0.6166,-0.5324,-0.4701,-0.4297,-0.4297,-0.4297,-0.4166,-0.3938,-0.3574,-0.3202,-0.2851,-0.2465,-0.2054,-0.1727,-0.1414,-0.1336,-0.1297,-0.1297,-0.1297,-0.1297,-0.1297,-0.1297,-0.1297,-0.1297,-0.1297,-0.1297,-0.1297,-0.1297,-0.1297,-0.1297,-0.1297,-0.1297,-0.1297,-0.1297,-0.1297,-0.1297,-0.1297,-0.1297,-0.1297,-0.1297,-0.1297,-0.1297,-0.1218,-0.1022,-0.0825,-0.0432,-0.0039,0.0353,0.0706,0.1099,0.1452,0.2156,0.3017,0.3641,0.419,0.4662,0.4898,0.5018,0.5018,0.5018,0.5018,0.5018,0.5018,0.5018,0.5018,0.5018,0.5018,0.5018,0.5018,0.5018,0.5018,0.5018,0.5018,0.5018,0.5018,0.5018,0.5018,0.5018,0.5018,0.5018,0.5018,0.5057,0.5287,0.5631,0.6015,0.6247,0.6325,0.6247,-0.8616,-0.8616,-0.8616,-0.8616,-0.8616,-0.8616,-0.8616,-0.8616,-0.8616,-0.8616,-0.8616,-0.8616,-0.8616,-0.8616,-0.8616,-0.8616,-0.8616,-0.8616,-0.8616,-0.8568,-0.8344,-0.8344,-0.8164,-0.7804,-0.7272,-0.6827,-0.6299,-0.5591,-0.5191,-0.4656,-0.4297,-0.4297,-0.4297,-0.4121,-0.374,-0.3391,-0.2943,-0.2376,-0.206,-0.1687,-0.1453,-0.1336,-0.1297,-0.1297,-0.1297,-0.1297,-0.1297,-0.1297,-0.1297,-0.1297,-0.1297,-0.1297,-0.1297,-0.1297,-0.1297,-0.1297,-0.1297,-0.1297,-0.1297,-0.1297,-0.1297,-0.1297,-0.1297,-0.1179,-0.114,-0.1258,-0.1297,-0.1218,-0.1179,-0.0904,-0.0668,-0.0314,0.0079,0.0549,0.0941,0.1451,0.1961,0.2431,0.3134,0.3839,0.4151,0.4662,0.4781,0.5018,0.5018,0.5018,0.5018,0.5018,0.5018,0.5018,0.5018,0.5018,0.5018,0.5018,0.5018,0.5018,0.5018,0.5018,0.5018,0.5018,0.5018,0.5018,0.5018,0.5018,0.5018,0.5018,0.5018,0.5018,0.5135,0.544,0.5864,0.6514,0.6822,0.6976,0.7053,-0.8616,-0.8616,-0.8616,-0.8616,-0.8616,-0.8616,-0.8616,-0.8616,-0.8616,-0.8616,-0.8616,-0.8616,-0.8616,-0.8616,-0.8616,-0.8616,-0.8616,-0.8616,-0.8616,-0.834,-0.8072,-0.7848,-0.7628,-0.7051,-0.6476,-0.5947,-0.546,-0.5102,-0.4701,-0.4433,-0.4297,-0.4297,-0.4253,-0.3985,-0.352,-0.3173,-0.2604,-0.2003,-0.1693,-0.1494,-0.1336,-0.1297,-0.1297,-0.1297,-0.1297,-0.1297,-0.1297,-0.1297,-0.1297,-0.1297,-0.1297,-0.1297,-0.1297,-0.1297,-0.1297,-0.1297,-0.1297,-0.1297,-0.1297,-0.1297,-0.1258,-0.1258,-0.1179,-0.0904,-0.0864,-0.114,-0.1218,-0.1061,-0.0864,-0.055,-0.0196,0.0196,0.0628,0.1098,0.1568,0.2157,0.2785,0.3448,0.4112,0.4426,0.4701,0.482,0.4979,0.5018,0.5018,0.5018,0.5018,0.5018,0.5018,0.5018,0.5018,0.5018,0.5018,0.5018,0.5018,0.5018,0.5018,0.5018,0.5018,0.5018,0.5018,0.5018,0.5018,0.5018,0.5018,0.5018,0.5018,0.5018,0.5171,0.5515,0.6093,0.6745,0.728,0.751,0.7629,-0.8616,-0.8616,-0.8616,-0.8616,-0.8616,-0.8616,-0.8616,-0.8616,-0.8616,-0.8616,-0.8616,-0.8616,-0.8616,-0.8616,-0.8616,-0.8616,-0.8616,-0.8616,-0.8344,-0.7981,-0.7713,-0.7356,-0.6871,-0.6299,-0.5944,-0.5416,-0.5013,-0.4656,-0.4342,-0.4297,-0.4297,-0.4253,-0.4117,-0.3742,-0.3222,-0.2738,-0.2257,-0.1737,-0.1439,-0.134,-0.1297,-0.1297,-0.1297,-0.1297,-0.1297,-0.1297,-0.1297,-0.1297,-0.1297,-0.1297,-0.1297,-0.1297,-0.1297,-0.1297,-0.1297,-0.1297,-0.1297,-0.1297,-0.1297,-0.1258,-0.114,-0.1022,-0.0864,-0.0511,-0.0039,-0.0236,-0.0236,-0.0157,-0.0118,0.0196,0.0628,0.1059,0.1412,0.1843,0.2117,0.251,0.3255,0.4036,0.4467,0.4701,0.4898,0.4898,0.5018,0.5018,0.5018,0.5018,0.5018,0.5018,0.5018,0.5018,0.5018,0.5018,0.5018,0.5018,0.5018,0.5018,0.5018,0.5018,0.5018,0.5018,0.5018,0.5018,0.5018,0.5018,0.5018,0.5018,0.5018,0.5018,0.5287,0.5631,0.6286,0.6938,0.7437,0.7893,0.8127,-0.8616,-0.8616,-0.8616,-0.8616,-0.8616,-0.8616,-0.8616,-0.8616,-0.8616,-0.8616,-0.8616,-0.8616,-0.8616,-0.8616,-0.8616,-0.8616,-0.8616,-0.8616,-0.8208,-0.7713,-0.7356,-0.6827,-0.621,-0.5633,-0.528,-0.5013,-0.4654,-0.4476,-0.4297,-0.421,-0.4076,-0.4119,-0.3739,-0.323,-0.2731,-0.2329,-0.1907,-0.1551,-0.1317,-0.13,-0.1297,-0.1297,-0.1297,-0.1297,-0.1297,-0.1297,-0.1297,-0.1297,-0.1297,-0.1297,-0.1297,-0.1297,-0.1297,-0.1297,-0.1297,-0.1297,-0.1297,-0.1297,-0.1297,-0.114,-0.0825,-0.0511,-0.0314,0.0079,0.055,0.0707,0.0667,0.0785,0.0825,0.0864,0.1333,0.1725,0.2078,0.2391,0.2588,0.2901,0.3763,0.4506,0.4742,0.4979,0.4979,0.5018,0.5018,0.5018,0.5018,0.5018,0.5018,0.5018,0.5018,0.5018,0.5018,0.5018,0.5018,0.5018,0.5018,0.5018,0.5018,0.5018,0.5018,0.5018,0.5018,0.5018,0.5018,0.5018,0.5018,0.5057,0.5018,0.5018,0.5323,0.5709,0.6363,0.6976,0.7361,0.7859,0.8399,-0.8616,-0.8616,-0.8616,-0.8616,-0.8616,-0.8616,-0.8616,-0.8616,-0.8616,-0.8616,-0.8616,-0.8616,-0.8616,-0.8616,-0.8616,-0.8568,-0.8432,-0.8432,-0.8116,-0.7577,-0.6871,-0.621,-0.5591,-0.5013,-0.4612,-0.4478,-0.4431,-0.4342,-0.4255,-0.3989,-0.3765,-0.3764,-0.3249,-0.2788,-0.2334,-0.1979,-0.1757,-0.141,-0.1315,-0.1297,-0.1297,-0.1297,-0.1297,-0.1297,-0.1297,-0.1297,-0.1297,-0.1297,-0.1297,-0.1297,-0.1297,-0.1297,-0.1297,-0.1297,-0.1297,-0.1297,-0.1297,-0.1297,-0.1258,-0.0864,-0.0471,-0.0196,0.0118,0.0746,0.1138,0.1412,0.149,0.1804,0.1726,0.1451,0.1763,0.2117,0.2431,0.2705,0.2942,0.3487,0.419,0.4623,0.494,0.4979,0.5018,0.5018,0.5018,0.5018,0.5018,0.5018,0.5018,0.5018,0.5018,0.5018,0.5018,0.5018,0.5018,0.5018,0.5018,0.5018,0.5018,0.5018,0.5018,0.5018,0.5018,0.5018,0.5018,0.5171,0.5171,0.521,0.5132,0.5404,0.5365,0.5747,0.6402,0.6976,0.7361,0.7859,0.8437]},{"header":{"parameterUnit":"m.s-1","parameterCategory":1,"la1":31.0,"la2":29.5877,"lo1":-88.7671,"lo2":-86.6584,"dy":0.0162,"dx":0.0185,"nx":115,"ny":88,"refTime":"2023-05-01T00:00:00:Z","depth":0,"parameterNumber":3,"parameterNumberName":"V-component_of_WINDS"},"data":[0.0,0.0,0.0,0.0,0.0,0.0,0.0,0.0,0.0,0.0,0.0,0.0,0.0,0.0,0.0,0.0,0.0,0.0,0.0,0.0,0.0,0.0,0.0,0.0,0.0,0.0,0.0,0.0,0.0,0.0,0.0,0.0,0.0,0.0,0.0,0.0,0.0,0.0,0.0,0.0,0.0,0.0,0.0,0.0,0.0,0.0,0.0,0.0,0.0,0.0,0.0,0.0,0.0,0.0,0.0,0.0,0.0,0.0,0.0,0.0,0.0,0.0,0.0,0.0,0.0,0.0,0.0,0.0,0.0,0.0,0.0,0.0,0.0,0.0,0.0,0.0,0.0,0.0,0.0,0.0,0.0,0.0,0.0,0.0,0.0,0.0,0.0,0.0,0.0,0.0,0.0,0.0,0.0,0.0,0.0,0.0,0.0,0.0,0.0,0.0,0.0,0.0,0.0,0.0,0.0,0.0,0.0,0.0,0.0,0.0,0.0,0.0,0.0,0.0,0.0,0.0,0.0,0.0,0.0,0.0,0.0,0.0,0.0,0.0,0.0,0.0,0.0,0.0,0.0,0.0,0.0,0.0,0.0,0.0,0.0,0.0,0.0,0.0,0.0,0.0,0.0,0.0,0.0,0.0,0.0,0.0,0.0,0.0,0.0,0.0,0.0,0.0,0.0,0.0,0.0,0.0,0.0,0.0,0.0,0.0,0.0,0.0,0.0,0.0,0.0,0.0,0.0,0.0,0.0,0.0,0.0,0.0,0.0,0.0,0.0,0.0,0.0,0.0,0.0,0.0,0.0,0.0,0.0,0.0,0.0,0.0,0.0,0.0,0.0,0.0,0.0,0.0,0.0,0.0,0.0,0.0,0.0,0.0,0.0,0.0,0.0,0.0,0.0,0.0,0.0,0.0,0.0,0.0,0.0,0.0,0.0,0.0,0.0,0.0,0.0,0.0,0.0,0.0,0.0,0.0,0.0,0.0,0.0,0.0,0.0,0.0,0.0,0.0,0.0,0.0,0.0,0.0,0.0,0.0,0.0,0.0,0.0,0.0,0.0,0.0,0.0,0.0,0.0,0.0,0.0,0.0,0.0,0.0,0.0,0.0,0.0,0.0,0.0,0.0,0.0,0.0,0.0,0.0,0.0,0.0,0.0,0.0,0.0,0.0,0.0,0.0,0.0,0.0,0.0,0.0,0.0,0.0,0.0,0.0,0.0,0.0,0.0,0.0,0.0,0.0,0.0,0.0,0.0,0.0,0.0,0.0,0.0,0.0,0.0,0.0,0.0,0.0,0.0,0.0,0.0,0.0,0.0,0.0,0.0,0.0,0.0,0.0,0.0,0.0,0.0,0.0,0.0,0.0,0.0,0.0,0.0,0.0,0.0,0.0,0.0,0.0,0.0,0.0,0.0,0.0,0.0,0.0,0.0,0.0,0.0,0.0,0.0,0.0,0.0,0.0,0.0,0.0,0.0,0.0,0.0,0.0,0.0,0.0,0.0,0.0,0.0,0.0,0.0,0.0,0.0,0.0,0.0,0.0,0.0,0.0,0.0,0.0,0.0,0.0,0.0,0.0,0.0,0.0,0.0,0.0,0.0,0.0,0.0,0.0,0.0,0.0,0.0,0.0,0.0,0.0,0.0,0.0,0.0,0.0,0.0,0.0,0.0,0.0,0.0,0.0,0.0,0.0,0.0,0.0,0.0,0.0,0.0,0.0,0.0,0.0,0.0,0.0,0.0,0.0,0.0,0.0,0.0,0.0,0.0,0.0,0.0,0.0,0.0,0.0,0.0,0.0,0.0,0.0,0.0,0.0,0.0,0.0,0.0,0.0,0.0,0.0,0.0,0.0,0.0,0.0,0.0,0.0,0.0,0.0,0.0,0.0,0.0,0.0,0.0,0.0,0.0,0.0,0.0,0.0,0.0,0.0,0.0,0.0,0.0,0.0,0.0,0.0,0.0,0.0,0.0,0.0,0.0,0.0,0.0,0.0,0.0,0.0,0.0,0.0,0.0,0.0,0.0,0.0,0.0,0.0,0.0,0.0,0.0,0.0,0.0,0.0,0.0,0.0,0.0,0.0,0.0,0.0,0.0,0.0,0.0,0.0,0.0,0.0,0.0,0.0,0.0,0.0,0.0,0.0,0.0,0.0,0.0,0.0,0.0,0.0,0.0,0.0,0.0,0.0,0.0,0.0,0.0,0.0,0.0,0.0,0.0,0.0,0.0,0.0,0.0,0.0,0.0,0.0,0.0,0.0,0.0,0.0,0.0,0.0,0.0,0.0,0.0,0.0,0.0,0.0,0.0,0.0,0.0,0.0,0.0,0.0,0.0,0.0,0.0,0.0,0.0,0.0,0.0,0.0,0.0,0.0,0.0,0.0,0.0,0.0,0.0,0.0,0.0,0.0,0.0,0.0,0.0,0.0,0.0,0.0,0.0,0.0,0.0,0.0,0.0,0.0,0.0,0.0,0.0,0.0,0.0,0.0,0.0,0.0,0.0,0.0,0.0,0.0,0.0,0.0,0.0,0.0,0.0,0.0,0.0,0.0,0.0,0.0,0.0,0.0,0.0,0.0,0.0,0.0,0.0,0.0,0.0,0.0,0.0,0.0,0.0,0.0,0.0,0.0,0.0,0.0,0.0,0.0,0.0,0.0,0.0,0.0,0.0,0.0,0.0,0.0,0.0,0.0,0.0,0.0,0.0,0.0,0.0,0.0,0.0,0.0,0.0,0.0,0.0,0.0,0.0,0.0,0.0,0.0,0.0,0.0,0.0,0.0,0.0,0.0,0.0,0.0,0.0,0.0,0.0,0.0,0.0,0.0,0.0,0.0,0.0,0.0,0.0,0.0,0.0,0.0,0.0,0.0,0.0,0.0,0.0,0.0,0.0,0.0,0.0,0.0,0.0,0.0,0.0,0.0,0.0,0.0,0.0,0.0,0.0,0.0,0.0,0.0,0.0,0.0,0.0,0.0,0.0,0.0,0.0,0.0,0.0,0.0,0.0,0.0,0.0,0.0,0.0,0.0,0.0,0.0,0.0,0.0,0.0,0.0,0.0,0.0,0.0,0.0,0.0,0.0,0.0,0.0,0.0,0.0,0.0,0.0,0.0,0.0,0.0,0.0,0.0,0.0,0.0,0.0,0.0,0.0,0.0,0.0,0.0,0.0,0.0,0.0,0.0,0.0,0.0,0.0,0.0,0.0,0.0,0.0,0.0,0.0,0.0,0.0,0.0,0.0,0.0,0.0,0.0,0.0,0.0,0.0,0.0,0.0,0.0,0.0,0.0,0.0,0.0,0.0,0.0,0.0,0.0,0.0,0.0,0.0,0.0,0.0,0.0,0.0,0.0,0.0,0.0,0.0,0.0,0.0,0.0,0.0,0.0,0.0,0.0,0.0,0.0,0.0,0.0,0.0,0.0,0.0,0.0,0.0,0.0,0.0,0.0,0.0,0.0,0.0,0.0,0.0,0.0,0.0,0.0,0.0,0.0,0.0,0.0,0.0,0.0,0.0,0.0,0.0,0.0,0.0,0.0,0.0,0.0,0.0,0.0,0.0,0.0,0.0,0.0,0.0,0.0,0.0,0.0,0.0,0.0,0.0,0.0,0.0,0.0,0.0,0.0,0.0,0.0,0.0,0.0,0.0,0.0,0.0,0.0,0.0,0.0,0.0,0.0,0.0,0.0,0.0,0.0,0.0,0.0,0.0,0.0,0.0,0.0,0.0,0.0,0.0,0.0,0.0,0.0,0.0,0.0,0.0,0.0,0.0,0.0,0.0,0.0,0.0,0.0,0.0,0.0,0.0,0.0,0.0,0.0,0.0,0.0,0.0,0.0,0.0,0.0,0.0,0.0,0.0,0.0,0.0,0.0,0.0,0.0,0.0,0.0,0.0,0.0,0.0,0.0,0.0,0.0,0.0,0.0,0.0,0.0,0.0,0.0,0.0,0.0,0.0,0.0,0.0,0.0,0.0,0.0,0.0,0.0,0.0,0.0,0.0,0.0,0.0,0.0,0.0,0.0,0.0,0.0,0.0,0.0,0.0,0.0,0.0,0.0,0.0,0.0,0.0,0.0,0.0,0.0,0.0,0.0,0.0,0.0,0.0,0.0,0.0,0.0,0.0,0.0,0.0,0.0,0.0,0.0,0.0,0.0,0.0,0.0,0.0,0.0,0.0,0.0,0.0,0.0,0.0,0.0,0.0,0.0,0.0,0.0,0.0,0.0,0.0,0.0,0.0,0.0,0.0,0.0,0.0,0.0,0.0,0.0,0.0,0.6277,0.0,0.0,0.0,0.0,0.0,0.0,0.0,0.0,0.0,0.0,0.0,0.0,0.0,0.0,0.0,0.0,0.0,0.0,0.0,0.0,0.0,0.0,0.0,0.0,0.0,0.0,0.0,0.0,0.0,0.0,0.0,0.0,0.0,0.0,0.0,0.0,0.0,0.0,0.0,0.0,0.0,0.0,0.0,0.0,0.0,0.0,0.0,0.0,0.0,0.0,0.0,0.0,0.0,0.0,0.0,0.0,0.0,0.0,0.0,0.0,0.0,0.0,0.0,0.0,0.0,0.0,0.0,0.0,0.0,0.0,0.0,0.0,0.0,0.0,0.0,0.0,0.0,0.0,0.0,0.0,0.0,0.0,0.0,0.0,0.0,0.0,0.0,0.0,0.0,0.0,0.0,0.0,0.0,0.0,0.0,0.0,0.0,0.0,0.0,0.0,0.0,0.0,0.0,0.0,0.0,0.0,0.0,0.0,0.0,0.0,0.9422,0.9069,0.8683,0.8032,0.7013,0.0,0.0,0.0,0.0,0.0,0.0,0.0,0.0,0.0,0.0,0.0,0.0,0.0,0.0,0.0,0.0,0.0,0.0,0.0,0.0,0.0,0.0,0.0,0.0,0.0,0.0,0.0,0.0,0.0,0.0,0.0,0.0,0.0,0.0,0.0,0.0,0.0,0.0,0.0,0.0,0.0,0.0,0.0,0.0,0.0,0.0,0.0,0.0,0.0,0.0,0.0,0.0,0.0,0.0,0.0,0.0,0.0,0.0,0.0,0.0,0.0,0.0,0.0,0.0,0.0,0.0,0.0,0.0,0.0,0.0,0.0,0.0,0.0,0.0,0.0,0.0,0.0,0.0,0.0,0.0,0.0,0.0,0.0,0.0,0.0,0.0,0.0,0.0,0.0,0.0,0.0,0.0,0.0,0.0,0.0,0.0,0.0,0.0,0.0,0.0,0.0,0.0,0.0,0.0,0.0,0.0,0.0,0.0,0.0,0.0,0.0,0.0,0.9038,0.8212,0.715,0.0,0.0,0.0,0.0,0.0,0.0,0.0,0.0,0.0,0.0,0.0,0.0,0.0,0.0,0.0,0.0,0.0,0.0,0.0,0.0,0.0,0.0,0.0,0.0,0.0,0.0,0.0,0.0,0.0,0.0,0.0,0.0,0.0,0.0,0.0,0.0,0.0,0.0,0.0,0.0,0.0,0.0,0.0,0.0,0.0,0.0,0.0,0.0,0.0,0.0,0.0,0.0,0.0,0.0,0.0,0.0,0.0,0.0,0.0,0.0,0.0,0.0,0.0,0.0,0.0,0.0,0.0,0.0,0.0,0.0,0.0,0.0,0.0,0.0,0.0,0.0,0.0,0.0,0.0,0.0,0.0,0.0,0.0,0.0,0.0,0.0,0.0,0.0,0.0,0.0,0.0,0.0,0.0,0.0,0.0,0.0,0.0,0.0,0.0,0.0,0.0,0.0,0.0,0.0,0.0,0.0,0.0,0.0,0.0,0.0,1.0555,1.0491,0.9662,0.0,0.6278,0.0,0.0,0.0,0.0,0.0,0.0,0.0,0.0,0.0,0.0,0.0,0.0,0.0,0.0,0.0,0.0,0.0,0.0,0.0,0.0,0.0,0.0,0.0,0.0,0.0,0.0,0.0,0.0,0.0,0.0,0.0,0.0,0.0,0.0,0.0,0.0,0.0,0.0,0.0,0.0,0.0,0.0,0.0,0.0,0.0,0.0,0.0,0.0,0.0,0.0,0.0,0.0,0.0,0.0,0.0,0.0,0.0,0.0,0.0,0.0,0.0,0.0,0.0,0.0,0.0,0.0,0.0,0.0,0.0,0.0,0.0,0.0,0.0,0.0,0.0,0.0,0.0,0.0,0.0,0.0,0.0,0.0,0.0,0.0,0.0,0.0,0.0,0.0,0.0,0.0,0.0,0.0,0.0,0.0,0.0,0.0,0.0,0.0,0.0,0.0,0.0,0.0,0.0,0.0,0.0,0.0,0.0,0.0,0.0,0.0,1.0079,0.9658,0.9003,0.7852,0.0,0.0,0.0,0.0,0.0,0.0,0.0,0.0,0.0,0.0,0.0,0.0,0.0,0.0,0.0,0.0,0.0,0.0,0.0,0.0,0.0,0.0,0.0,0.0,0.0,0.0,0.0,0.0,0.0,0.0,0.0,0.0,0.0,0.0,0.0,0.0,0.0,0.0,0.0,0.0,0.0,0.0,0.0,0.0,0.0,0.0,0.0,0.0,0.0,0.0,0.0,0.0,0.0,0.0,0.0,0.0,0.0,0.0,0.0,0.0,0.0,0.0,0.0,0.0,0.0,0.0,0.0,0.0,0.0,0.0,0.0,0.0,0.0,0.0,0.0,0.0,0.0,0.0,0.0,0.0,0.0,0.0,0.0,0.0,0.0,0.0,0.0,0.0,0.0,0.0,0.0,0.0,0.0,0.0,0.0,0.0,0.0,0.0,0.0,0.0,0.0,0.0,0.0,0.0,0.0,0.0,0.0,0.0,0.0,0.0,1.0618,0.9653,0.8951,0.8425,0.7543,0.6383,0.0,0.0,0.0,0.0,0.0,0.0,0.0,0.0,0.0,0.0,0.0,0.0,0.0,0.0,0.0,0.0,0.0,0.0,0.0,0.0,0.0,0.0,0.0,0.0,0.0,0.0,0.0,0.0,0.0,0.0,0.0,0.0,0.0,0.0,0.0,0.0,0.0,0.0,0.0,0.0,0.0,0.0,0.0,0.0,0.0,0.0,0.0,0.0,0.0,0.0,0.0,0.0,0.0,0.0,0.0,0.0,0.0,0.0,0.0,0.0,0.0,0.0,0.0,0.0,0.0,0.0,0.0,0.0,0.0,0.0,0.0,0.0,0.0,0.0,0.0,0.0,0.0,0.0,0.0,0.0,0.0,0.0,0.0,0.0,0.0,0.0,0.0,0.0,0.0,0.0,0.0,0.0,0.0,0.0,0.0,0.0,0.0,0.0,0.0,0.0,0.0,0.0,0.0,0.0,0.0,0.0,0.0,0.0,1.174,1.0611,0.9599,0.8767,0.8265,0.7641,0.0,0.0,0.0,0.0,0.0,0.0,0.0,0.0,0.0,0.0,0.0,0.0,0.0,0.0,0.0,0.0,0.0,0.0,0.0,0.0,0.0,0.0,0.0,0.0,0.0,0.0,0.0,0.0,0.0,0.0,0.0,0.0,0.0,0.0,0.0,0.0,0.0,0.0,0.0,0.0,0.0,0.0,0.0,0.0,0.0,0.0,0.0,0.0,0.0,0.0,0.0,0.0,0.0,0.0,0.0,0.0,0.0,0.0,0.0,0.0,0.0,0.0,0.0,0.0,0.0,0.0,0.0,0.0,0.0,0.0,0.0,0.0,0.0,0.0,0.0,0.0,0.0,0.0,0.0,0.0,0.0,0.0,0.0,0.0,0.0,0.0,0.0,0.0,0.0,0.0,0.0,0.0,0.0,0.0,0.0,0.0,0.0,0.0,0.0,0.0,0.0,0.0,0.0,0.0,0.0,0.0,0.0,0.0,0.0,1.124,1.0231,0.9532,0.9208,0.873,0.812,0.0,0.0,0.0,0.0,0.0,0.0,0.0,0.0,0.0,0.0,0.0,0.0,0.0,0.0,0.0,0.0,0.0,0.0,0.0,0.0,0.0,0.0,0.0,0.0,0.0,0.0,0.0,0.0,0.0,0.0,0.0,0.0,0.0,0.0,0.0,0.0,0.0,0.0,0.0,0.0,0.0,0.0,0.0,0.0,0.0,0.0,0.0,0.0,0.0,0.0,0.0,0.0,0.0,0.0,0.0,0.0,0.0,0.0,0.0,0.0,0.0,0.0,0.0,0.0,0.0,0.0,0.0,0.0,0.0,0.0,0.0,0.0,0.0,0.0,0.0,0.0,0.0,0.0,0.0,0.0,0.0,0.0,0.0,0.0,0.0,0.0,0.0,0.0,0.0,0.0,0.0,0.0,0.0,0.0,0.0,0.0,0.0,0.0,0.0,0.0,0.0,0.0,0.0,0.0,0.0,0.0,0.0,0.0,0.0,1.0982,0.0,0.9734,0.9734,0.878,0.8096,0.0,0.0,0.0,0.0,0.0,0.0,0.0,0.0,0.0,0.0,0.0,0.0,0.0,0.0,0.0,0.0,0.0,0.0,0.0,0.0,0.0,0.0,0.0,0.0,0.0,0.0,0.0,0.0,0.0,0.0,0.0,0.0,0.0,0.0,0.0,0.0,0.0,0.0,0.0,0.0,0.0,0.0,0.0,0.0,0.0,0.0,0.0,0.0,0.0,0.0,0.0,0.0,0.0,0.0,0.0,0.0,0.0,0.0,0.0,0.0,0.0,0.0,0.0,0.0,0.0,0.0,0.0,0.0,0.0,0.0,0.0,0.0,0.0,0.0,0.0,0.0,0.0,0.0,0.0,0.0,0.0,0.0,0.0,0.0,0.0,0.0,0.0,0.0,0.0,0.0,0.0,0.0,0.0,0.0,0.0,0.0,0.0,0.0,0.0,0.0,0.0,0.0,0.0,0.0,0.0,0.0,0.0,0.0,1.2189,1.1045,1.0548,1.0238,1.0238,0.8458,0.7517,0.0,0.0,0.0,0.0,0.0,0.0,0.0,0.0,0.0,0.0,0.0,0.0,0.0,0.0,0.0,0.0,0.0,0.0,0.0,0.0,0.0,0.0,0.0,0.0,0.0,0.0,0.0,0.0,0.0,0.0,0.0,0.0,0.0,0.0,0.0,0.0,0.0,0.0,0.0,0.0,0.0,0.0,0.0,0.0,0.0,0.0,0.0,0.0,0.0,0.0,0.0,0.0,0.0,0.0,0.0,0.0,0.0,0.0,0.0,0.0,0.0,0.0,0.0,0.0,0.0,0.0,0.0,0.0,0.0,0.0,0.0,0.0,0.0,0.0,0.0,0.0,0.0,0.0,0.0,0.0,0.0,0.0,0.0,0.0,0.0,0.0,0.0,0.0,0.0,0.0,0.0,0.0,0.0,0.0,0.0,0.0,0.0,0.0,0.0,0.0,0.0,0.0,0.0,0.0,0.0,0.0,0.0,0.0,0.0,1.0586,1.0364,1.0117,0.9728,0.8721,0.7972,0.0,0.0,0.0,0.0,0.0,0.0,0.0,0.0,0.0,0.0,0.0,0.0,0.0,0.0,0.0,0.0,0.0,0.0,0.0,0.0,0.0,0.0,0.0,0.0,0.0,0.0,0.0,0.0,0.0,0.0,0.0,0.0,0.0,0.0,0.0,0.0,0.0,0.0,0.0,0.0,0.0,0.0,0.0,0.0,0.0,0.0,0.0,0.0,0.0,0.0,0.0,0.0,0.0,0.0,0.0,0.0,0.0,0.0,0.0,0.0,0.0,0.0,0.0,0.0,0.0,0.0,0.0,0.0,0.0,0.0,0.0,0.0,0.0,0.0,0.0,0.0,0.0,0.0,0.0,0.0,0.0,0.0,0.0,0.0,0.0,0.0,0.0,0.0,0.0,0.0,0.0,0.0,0.0,0.0,0.0,0.0,0.0,0.0,0.0,0.0,0.0,0.0,0.0,0.0,0.0,0.0,0.0,0.0,0.0,1.1288,1.0982,1.0611,1.0079,0.923,0.8479,0.7804,0.0,0.0,0.0,0.0,0.0,0.0,0.0,0.0,0.0,0.0,0.0,0.0,0.0,0.0,0.0,0.0,0.0,0.0,0.0,0.0,0.0,0.0,0.0,0.0,0.0,0.0,0.0,0.0,0.0,0.0,0.0,0.0,0.0,0.0,0.0,0.0,0.0,0.0,0.0,0.0,0.0,0.0,0.0,0.0,0.0,0.0,0.0,0.0,0.0,0.0,0.0,0.0,0.0,0.0,0.0,0.0,0.0,0.0,0.0,0.0,0.0,0.0,0.0,0.0,0.0,0.0,0.0,0.0,0.0,0.0,0.0,0.0,0.0,0.0,0.0,0.0,0.0,0.0,0.0,0.0,0.0,0.0,0.0,0.0,0.0,0.0,0.0,0.0,0.0,0.0,0.0,0.0,0.0,0.0,0.0,0.0,0.0,0.0,0.0,0.0,0.0,0.0,0.0,0.0,0.0,0.0,0.0,0.0,1.2856,1.2228,1.1608,1.1014,0.9913,0.9084,0.0,0.0,0.0,0.0,0.0,0.0,0.0,0.0,0.0,0.0,0.0,0.0,0.0,0.0,0.0,0.0,0.0,0.0,0.0,0.0,0.0,0.0,0.0,0.0,0.0,0.0,0.0,0.0,0.0,0.0,0.0,0.0,0.0,0.0,0.0,0.0,0.0,0.0,0.0,0.0,0.0,0.0,0.0,0.0,0.0,0.0,0.0,0.0,0.0,0.0,0.0,0.0,0.0,0.0,0.0,0.0,0.0,0.0,0.0,0.0,0.0,0.0,0.0,0.0,0.0,0.0,0.0,0.0,0.0,0.0,0.0,0.0,0.0,0.0,0.0,0.0,0.0,0.0,0.0,0.0,0.0,0.0,0.0,0.0,0.0,0.0,0.0,0.0,0.0,0.0,0.0,0.0,0.0,0.0,0.0,0.0,0.0,0.0,0.0,0.0,0.0,0.0,0.0,0.0,0.0,0.0,0.0,0.0,0.0,1.3351,1.3147,1.252,1.1399,1.0735,1.0066,0.0,0.0,0.0,0.0,0.0,0.0,0.0,0.0,0.0,0.0,0.0,0.0,0.0,0.0,0.0,0.0,0.0,0.0,0.0,0.0,0.0,0.0,0.0,0.0,0.0,0.0,0.0,0.0,0.0,0.0,0.0,0.0,0.0,0.0,0.0,0.0,0.0,0.0,0.0,0.0,0.0,0.0,0.0,0.0,0.0,0.0,0.0,0.0,0.0,0.0,0.0,0.0,0.0,0.0,0.0,0.0,0.0,0.0,0.0,0.0,0.0,0.0,0.0,0.0,0.0,0.0,0.0,0.0,0.0,0.0,0.0,0.0,0.0,0.0,0.0,0.0,0.0,0.0,0.0,0.0,0.0,0.0,0.0,0.0,0.0,0.0,0.0,0.0,0.0,0.0,0.0,0.0,0.0,0.0,0.0,0.0,0.0,0.0,0.0,0.0,0.0,0.0,0.0,0.0,0.0,0.0,0.0,0.0,1.4354,1.3923,1.3782,1.3199,1.2151,1.1562,1.0836,0.0,0.0,0.0,0.0,0.0,0.0,0.0,0.0,0.0,0.0,0.0,0.0,0.0,0.0,0.0,0.0,0.0,0.0,0.0,0.0,0.0,0.0,0.0,0.0,0.0,0.0,0.0,0.0,0.0,0.0,0.0,0.0,0.0,0.0,0.0,0.0,0.0,0.0,0.0,0.0,0.0,0.0,0.0,0.0,0.0,0.0,0.0,0.0,0.0,0.0,0.0,0.0,0.0,0.0,0.0,0.0,0.0,0.0,0.0,0.0,0.0,0.0,0.0,0.0,0.0,0.0,0.0,0.0,0.0,0.0,0.0,0.0,0.0,0.0,0.0,0.0,0.0,0.0,0.0,0.0,0.0,0.0,0.0,0.0,0.0,0.0,0.0,0.0,0.0,0.0,0.0,0.0,0.0,0.0,0.0,0.0,0.0,0.0,0.0,0.0,0.0,0.0,0.0,0.0,0.0,0.0,0.0,0.0,1.483,1.4579,1.424,1.3709,1.308,1.2274,1.149,0.0,0.0,0.0,0.0,0.0,0.0,0.0,0.0,0.0,0.0,0.0,0.0,0.0,0.0,0.0,0.0,0.0,0.0,0.0,0.0,0.0,0.0,0.0,0.0,0.0,0.0,0.0,0.0,0.0,0.0,0.0,0.0,0.0,0.0,0.0,0.0,0.0,0.0,0.0,0.0,0.0,0.0,0.0,0.0,0.0,0.0,0.0,0.0,0.0,0.0,0.0,0.0,0.0,0.0,0.0,0.0,0.0,0.0,0.0,0.0,0.0,0.0,0.0,0.0,0.0,0.0,0.0,0.0,0.0,0.0,0.0,0.0,0.0,0.0,0.0,0.0,0.0,0.0,0.0,0.0,0.0,0.0,0.0,0.0,0.0,0.0,0.0,0.0,0.0,0.0,0.0,0.0,0.0,0.0,0.0,0.0,0.0,0.0,0.0,0.0,0.0,0.0,0.0,0.0,0.0,0.0,0.0,0.0,1.6198,1.5225,1.4677,1.4091,1.342,1.2636,1.1988,0.0,0.0,0.0,0.0,0.0,0.0,0.0,0.0,0.0,0.0,0.0,0.0,0.0,0.0,0.0,0.0,0.0,0.0,0.0,0.0,0.0,0.0,0.0,0.0,0.0,0.0,0.0,0.0,0.0,0.0,0.0,0.0,0.0,0.0,0.0,0.0,0.0,0.0,0.0,0.0,0.0,0.0,0.0,0.0,0.0,0.0,0.0,0.0,0.7834,0.0,0.0,0.0,0.0,0.0,0.0,0.0,0.0,0.0,0.0,0.0,0.0,0.0,0.0,0.0,0.0,0.0,0.0,0.0,0.0,0.0,0.0,0.0,0.0,0.0,0.0,0.0,0.0,0.0,0.0,0.0,0.0,0.0,0.0,0.0,0.0,0.0,0.0,0.0,0.0,0.0,0.0,0.0,0.0,0.0,0.0,0.0,0.0,0.0,0.0,0.0,0.0,0.0,0.0,0.0,0.0,0.0,0.0,0.0,1.6613,1.5439,1.4795,1.4172,1.3511,1.282,1.2151,0.0,0.0,0.0,0.0,0.0,0.0,0.0,0.0,0.0,0.0,0.0,0.0,0.0,0.0,0.0,0.0,0.0,0.0,0.0,0.0,0.0,0.0,0.0,0.0,0.0,0.0,0.0,0.0,0.0,0.0,0.0,0.0,0.0,0.0,0.0,0.0,0.0,0.0,0.0,0.0,0.0,0.0,0.0,0.0,0.0,0.0,0.0,0.0,0.0,0.0,0.0,0.0,0.0,0.0,0.0,0.0,0.0,0.0,0.0,0.0,0.0,0.0,0.0,0.0,0.0,0.0,0.0,0.0,0.0,0.0,0.0,0.0,0.0,0.0,0.0,0.0,0.0,0.0,0.0,0.0,0.0,0.0,0.0,0.0,0.0,0.0,0.0,0.0,0.0,0.0,0.0,0.0,0.0,0.0,0.0,0.0,0.0,0.0,0.0,0.0,0.0,0.0,0.0,0.0,0.0,0.0,0.0,1.7385,1.681,1.569,1.5001,1.4321,1.3692,1.3064,1.2274,1.1303,0.0,0.0,0.0,0.0,0.0,0.0,0.0,0.0,0.0,0.0,0.0,0.0,0.0,0.0,0.0,0.0,0.0,0.0,0.0,0.0,0.0,0.0,0.0,0.0,0.0,0.0,0.0,0.0,0.0,0.0,0.0,0.0,0.0,0.0,0.0,0.0,0.0,0.0,1.9862,1.8176,0.0,0.0,0.0,0.0,0.0,0.0,0.0,0.0,1.154,0.0,0.0,0.0,0.0,0.0,0.0,0.0,0.0,0.0,0.0,0.0,0.0,0.0,0.0,0.0,0.0,0.0,0.0,0.0,0.0,0.0,0.0,0.0,0.0,0.0,0.0,0.0,0.0,0.0,0.0,0.0,0.0,0.0,0.0,0.0,0.0,0.0,0.0,0.0,0.0,0.0,0.0,0.0,0.0,0.0,0.0,0.0,0.0,0.0,0.0,0.0,0.0,0.0,0.0,0.0,0.0,1.8709,1.8213,1.7617,1.6912,1.5825,1.4971,1.435,1.3683,1.262,1.1139,0.0,0.0,0.0,0.0,0.0,0.0,0.0,0.0,0.0,0.0,0.0,0.0,0.0,0.0,0.0,0.0,0.0,0.0,0.0,0.0,0.0,0.0,0.0,0.0,0.0,0.0,0.0,0.0,0.0,0.0,0.0,0.0,0.0,0.0,0.0,0.0,0.0,0.0,0.0,1.8684,1.7181,0.0,0.0,0.0,0.0,0.0,0.0,0.0,0.0,1.1913,0.0,0.0,0.0,0.0,0.0,0.0,0.0,0.0,0.0,0.0,0.0,0.0,0.0,0.0,0.0,0.0,0.0,0.0,0.0,0.0,0.0,0.0,0.0,0.0,0.0,0.0,0.0,0.0,0.0,0.0,0.0,0.0,0.0,0.0,0.0,0.0,0.0,0.0,0.0,0.0,0.0,0.0,0.0,0.0,0.0,0.0,0.0,0.0,0.0,0.0,0.0,0.0,0.0,0.0,0.0,1.904,1.8709,1.8131,1.723,1.6309,1.5613,1.507,1.4064,1.2917,0.0,0.0,0.0,0.0,0.0,0.0,0.0,0.0,0.0,0.0,0.0,0.0,0.0,0.0,0.0,0.0,0.0,0.0,0.0,0.0,0.0,0.0,0.0,0.0,0.0,0.0,0.0,0.0,0.0,0.0,0.0,0.0,0.0,0.0,0.0,0.0,0.0,0.0,0.0,0.0,1.9246,1.8034,1.7617,0.0,0.0,0.0,0.0,0.0,0.0,1.2914,1.2548,0.0,0.0,0.0,0.0,0.0,0.0,0.0,0.0,0.0,0.0,0.0,0.0,0.0,0.0,0.0,0.0,0.0,0.0,0.0,0.0,0.0,0.0,0.0,0.0,0.0,0.0,0.0,0.0,0.0,0.0,0.0,0.0,0.0,0.0,0.0,0.0,0.0,0.0,0.0,0.0,0.0,0.0,0.0,0.0,0.0,0.0,0.0,0.0,0.0,0.0,0.0,0.0,0.0,0.0,0.0,1.9212,1.916,1.8578,1.7424,1.6778,1.6195,1.5584,1.4481,1.3386,0.0,0.0,0.0,0.0,0.0,0.0,0.0,0.0,0.0,0.0,0.0,0.0,0.0,0.0,0.0,0.0,0.0,0.0,0.0,0.0,0.0,0.0,0.0,0.0,0.0,0.0,0.0,0.0,0.0,0.0,0.0,0.0,0.0,0.0,0.0,0.0,0.0,0.0,0.0,0.0,0.0,1.8692,1.8234,1.6808,0.0,0.0,0.0,0.0,1.4049,1.3494,0.0,0.0,0.0,0.0,0.0,0.0,0.0,0.0,0.0,0.0,0.0,0.0,0.0,0.0,0.0,0.0,0.0,0.0,0.0,0.0,0.0,0.0,0.0,0.0,0.0,0.0,0.0,0.0,0.0,0.0,0.0,0.0,0.0,0.0,0.0,0.0,0.0,0.0,0.0,0.0,0.0,0.0,0.0,0.0,0.0,0.0,0.0,0.0,0.0,0.0,0.0,0.0,0.0,0.0,0.0,0.0,1.9747,1.9645,1.9113,1.8027,1.7424,1.6557,1.5468,1.5255,1.4412,0.0,0.0,0.0,0.0,0.0,0.0,0.0,0.0,0.0,0.0,0.0,0.0,0.0,0.0,0.0,0.0,0.0,0.0,0.0,0.0,0.0,0.0,0.0,0.0,0.0,0.0,0.0,0.0,0.0,0.0,0.0,0.0,0.0,0.0,0.0,0.0,0.0,0.0,0.0,0.0,0.0,1.8561,1.8092,1.6742,1.5743,0.0,0.0,1.3992,1.4382,1.4024,0.0,0.0,0.0,0.0,0.0,0.0,0.0,0.0,0.0,0.0,0.0,0.0,0.0,0.0,0.0,0.0,0.0,0.0,0.0,0.0,0.0,0.0,0.0,0.0,0.0,0.0,0.0,0.0,0.0,0.0,0.0,0.0,0.0,0.0,0.0,0.0,0.0,0.0,0.0,0.0,0.0,0.0,0.0,0.0,0.0,0.0,0.0,0.0,0.0,0.0,0.0,0.0,0.0,0.0,0.0,2.1334,2.0295,2.0232,1.9683,1.8655,1.8348,1.771,1.6606,1.6159,1.5216,0.0,0.0,0.0,0.0,0.0,0.0,0.0,0.0,0.0,0.0,0.0,0.0,0.0,0.0,0.0,0.0,0.0,0.0,0.0,0.0,0.0,0.0,0.0,0.0,0.0,0.0,0.0,0.0,0.0,0.0,0.0,0.0,0.0,0.0,0.0,0.0,0.0,0.0,0.0,0.0,0.0,0.0,1.8433,1.7333,0.0,0.0,0.0,1.4835,1.4549,0.0,0.0,0.0,0.0,0.0,0.0,0.0,0.0,0.0,0.0,0.0,0.0,0.0,0.0,0.0,0.0,0.0,0.0,0.0,0.0,0.0,0.0,0.0,0.0,0.0,0.0,0.0,0.0,0.0,0.0,0.0,0.0,0.0,0.0,0.0,0.0,0.0,0.0,0.0,0.0,0.0,0.0,0.0,0.0,0.0,0.0,0.0,0.0,0.0,0.0,0.0,0.0,0.0,0.0,0.0,0.0,0.0,2.0833,2.0795,2.0257,1.92,1.9066,1.8548,1.7678,1.7052,0.0,0.0,0.0,0.0,0.0,0.0,0.0,0.0,0.0,0.0,0.0,0.0,0.0,0.0,0.0,0.0,0.0,0.0,0.0,0.0,0.0,0.0,0.0,0.0,0.0,0.0,0.0,2.0648,0.0,0.0,0.0,0.0,0.0,0.0,0.0,0.0,0.0,0.0,0.0,0.0,0.0,0.0,1.9114,1.9273,1.8506,1.7904,0.0,0.0,1.6196,1.5545,1.5325,1.5017,0.0,0.0,0.0,0.0,0.0,0.0,0.0,0.0,0.0,0.0,0.0,0.0,0.0,0.0,0.0,0.0,0.0,0.0,0.0,0.0,0.0,0.0,0.0,0.0,0.0,0.0,0.0,0.0,0.0,0.0,0.0,0.0,0.0,0.0,0.0,0.0,0.0,0.0,0.0,0.0,0.0,0.0,0.0,0.0,0.0,0.0,0.0,0.0,0.0,0.0,0.0,0.0,0.0,0.0,2.2342,2.1393,2.1345,2.0805,1.9697,1.9214,1.8709,1.8066,1.8011,1.7401,0.0,0.0,0.0,0.0,0.0,0.0,0.0,0.0,0.0,0.0,0.0,0.0,0.0,0.0,0.0,0.0,0.0,0.0,0.0,0.0,0.0,0.0,0.0,0.0,0.0,0.0,0.0,0.0,0.0,0.0,0.0,0.0,0.0,0.0,0.0,0.0,0.0,0.0,0.0,0.0,0.0,2.0222,2.0843,2.0477,2.007,0.0,1.8976,1.8096,1.7958,1.7555,1.6823,1.5516,0.0,0.0,0.0,0.0,0.0,0.0,0.0,0.0,0.0,0.0,0.0,0.0,0.0,0.0,0.0,0.0,0.0,0.0,0.0,0.0,0.0,0.0,0.0,0.0,0.0,0.0,0.0,0.0,0.0,0.0,0.0,0.0,0.0,0.0,0.0,0.0,0.0,0.0,0.0,0.0,0.0,0.0,0.0,0.0,0.0,0.0,0.0,0.0,0.0,0.0,0.0,0.0,0.0,2.2578,2.1912,2.1912,2.1345,2.0308,2.0067,1.9566,1.8682,1.8667,1.8163,0.0,0.0,0.0,0.0,0.0,0.0,0.0,0.0,0.0,0.0,0.0,0.0,0.0,0.0,0.0,0.0,0.0,0.0,0.0,0.0,0.0,0.0,0.0,0.0,0.0,0.0,0.0,0.0,2.2581,2.3001,2.3238,0.0,0.0,0.0,0.0,0.0,0.0,0.0,0.0,0.0,0.0,2.1178,2.1451,2.1082,0.0,0.0,1.9855,1.9044,1.8757,1.7998,1.7265,1.6699,1.6316,0.0,0.0,0.0,0.0,0.0,0.0,0.0,0.0,0.0,0.0,0.0,0.0,0.0,0.0,0.0,0.0,0.0,0.0,0.0,0.0,0.0,0.0,0.0,0.0,0.0,0.0,0.0,0.0,0.0,0.0,0.0,0.0,0.0,0.0,0.0,0.0,0.0,0.0,0.0,0.0,0.0,0.0,0.0,0.0,0.0,0.0,0.0,0.0,0.0,0.0,0.0,0.0,2.2737,2.2431,2.2278,2.1841,2.1104,2.0932,2.0396,1.9526,1.9474,1.9042,0.0,0.0,0.0,0.0,0.0,0.0,0.0,0.0,0.0,0.0,0.0,0.0,0.0,0.0,0.0,0.0,0.0,0.0,0.0,0.0,0.0,0.0,0.0,0.0,0.0,0.0,0.0,0.0,2.2904,2.326,2.3689,0.0,0.0,0.0,0.0,0.0,0.0,0.0,0.0,0.0,0.0,2.238,2.2455,2.2239,2.1966,2.1674,2.0944,2.0239,1.9777,1.8979,1.8314,1.8158,0.0,0.0,0.0,0.0,0.0,0.0,0.0,0.0,0.0,0.0,0.0,0.0,0.0,0.0,0.0,0.0,0.0,0.0,0.0,0.0,0.0,0.0,0.0,0.0,0.0,0.0,0.0,2.4963,0.0,0.0,2.577,0.0,0.0,0.0,0.0,0.0,0.0,0.0,0.0,0.0,0.0,0.0,0.0,0.0,0.0,0.0,0.0,0.0,0.0,0.0,0.0,0.0,0.0,2.2888,2.2865,2.244,2.2194,2.2123,2.1647,2.1102,2.0585,2.056,2.0042,1.8987,0.0,0.0,0.0,0.0,0.0,0.0,0.0,0.0,0.0,0.0,0.0,0.0,0.0,0.0,0.0,0.0,0.0,0.0,0.0,0.0,0.0,0.0,0.0,0.0,0.0,0.0,2.2328,2.3024,2.3689,0.0,0.0,0.0,0.0,0.0,0.0,0.0,0.0,0.0,0.0,2.3863,2.3943,2.421,2.422,2.3846,2.2995,2.2395,2.1899,2.14,2.0917,2.0438,0.0,0.0,0.0,0.0,0.0,0.0,0.0,0.0,0.0,0.0,0.0,0.0,0.0,0.0,0.0,0.0,0.0,0.0,0.0,0.0,0.0,0.0,0.0,0.0,0.0,0.0,0.0,2.5619,2.5633,0.0,0.0,0.0,0.0,0.0,0.0,0.0,0.0,0.0,0.0,0.0,2.4213,2.4297,0.0,0.0,0.0,0.0,0.0,0.0,0.0,0.0,0.0,0.0,0.0,0.0,2.3127,2.291,2.2971,2.2731,2.2217,2.203,2.167,2.1151,2.0771,2.0105,1.9028,0.0,0.0,0.0,0.0,0.0,0.0,0.0,0.0,0.0,0.0,0.0,0.0,0.0,0.0,0.0,0.0,0.0,0.0,0.0,0.0,0.0,0.0,0.0,0.0,0.0,2.2374,0.0,0.0,0.0,0.0,0.0,0.0,0.0,0.0,0.0,0.0,0.0,2.4724,2.4928,2.496,2.5,2.507,2.4863,2.4497,0.0,0.0,0.0,0.0,0.0,0.0,0.0,0.0,0.0,0.0,0.0,0.0,0.0,0.0,2.0243,1.9073,1.8874,1.8927,1.9188,0.0,0.0,0.0,0.0,0.0,0.0,0.0,0.0,0.0,0.0,0.0,0.0,0.0,0.0,2.6163,0.0,2.652,0.0,0.0,0.0,0.0,0.0,0.0,0.0,0.0,2.4482,2.4681,2.4681,2.4681,2.4666,0.0,2.4462,2.4359,0.0,0.0,0.0,0.0,0.0,0.0,0.0,0.0,2.3501,2.3275,2.3355,2.3143,2.264,2.2509,2.2194,2.1708,2.1164,2.0472,1.9578,1.9527,1.9242,0.0,0.0,0.0,0.0,0.0,0.0,0.0,0.0,0.0,0.0,0.0,0.0,0.0,0.0,0.0,0.0,0.0,0.0,0.0,0.0,0.0,0.0,0.0,2.3039,0.0,0.0,0.0,0.0,0.0,0.0,0.0,0.0,0.0,2.516,2.5481,2.5756,2.574,2.574,2.5703,2.5521,0.0,0.0,0.0,0.0,0.0,0.0,0.0,2.1838,2.1852,2.1397,2.1057,2.1057,2.1363,2.1568,2.1568,0.0,0.0,2.057,2.032,2.032,2.032,2.0345,2.0395,2.0395,2.0509,2.0622,0.0,0.0,0.0,0.0,0.0,0.0,0.0,0.0,2.673,2.673,0.0,2.6782,0.0,0.0,0.0,0.0,0.0,2.4896,0.0,0.0,2.4985,2.5009,2.5045,2.5045,2.5045,2.5025,2.5045,2.5025,2.4985,2.438,0.0,0.0,0.0,0.0,0.0,0.0,2.4024,2.3961,2.3616,2.3428,2.3406,2.3098,2.2684,2.2208,2.1694,2.1188,2.066,2.0557,2.0294,1.9787,1.9284,0.0,0.0,0.0,0.0,0.0,0.0,0.0,0.0,0.0,0.0,0.0,0.0,0.0,0.0,0.0,0.0,0.0,0.0,0.0,0.0,2.3253,0.0,0.0,0.0,0.0,0.0,0.0,0.0,0.0,0.0,0.0,2.5652,2.5956,2.6238,2.6203,0.0,0.0,0.0,0.0,2.5387,2.4981,2.4536,2.4091,2.3618,2.3186,2.2892,2.2965,0.0,0.0,2.2175,2.2151,2.2175,2.2151,2.2175,2.2151,2.2151,2.1639,2.1304,2.1304,2.14,2.1482,2.153,2.1609,2.1769,2.7041,0.0,0.0,0.0,0.0,2.6455,2.6771,2.7272,2.7363,2.7414,2.7439,2.7968,0.0,0.0,0.0,0.0,0.0,0.0,2.5707,2.5723,2.576,2.5779,2.5779,2.5779,2.5779,2.5779,2.5795,2.5631,2.5368,2.516,2.4958,2.4726,0.0,0.0,0.0,0.0,2.425,2.4024,2.4114,2.4073,2.3839,2.3458,2.2912,2.2231,2.2067,2.1732,2.1188,2.1161,2.1075,2.0928,2.0767,0.0,0.0,0.0,0.0,0.0,0.0,0.0,0.0,0.0,0.0,0.0,0.0,0.0,0.0,0.0,0.0,0.0,0.0,0.0,2.312,2.3745,2.4204,0.0,0.0,0.0,0.0,0.0,0.0,0.0,0.0,0.0,2.6573,2.6691,2.6708,0.0,0.0,2.6364,2.6061,2.5974,2.583,2.5406,2.5237,0.0,2.4556,2.4374,2.4292,2.4307,2.397,2.3666,2.3681,2.3406,2.3165,2.3172,2.3187,2.3165,2.3106,2.246,2.1927,2.1866,2.1903,2.1974,2.2044,2.2119,2.2189,2.8482,2.8067,2.7196,2.6964,2.7093,2.717,2.7489,2.8018,2.8091,2.8131,2.818,2.8779,2.8302,2.7062,2.728,0.0,0.0,0.0,2.6087,2.6087,2.6087,2.6087,2.6087,2.6087,2.6087,2.6087,2.6087,2.5979,2.5744,2.5744,2.5649,2.5422,0.0,0.0,2.4686,2.4701,2.4605,2.44,2.4441,2.4395,2.4193,2.3681,2.3179,2.2686,2.254,2.2254,2.1742,2.1898,2.1921,2.1732,2.1718,2.1732,0.0,0.0,0.0,0.0,0.0,0.0,0.0,0.0,0.0,0.0,0.0,2.223,2.2207,0.0,0.0,0.0,2.3231,2.3435,2.3948,2.4395,0.0,0.0,0.0,0.0,0.0,0.0,0.0,2.6892,2.6908,2.7006,2.7244,2.7276,2.7149,2.6809,2.6742,2.6691,2.6537,0.0,2.6258,2.5977,2.5832,2.5629,2.5198,2.5141,2.5082,2.4922,2.4719,2.4553,2.4533,2.4277,2.4131,2.411,2.3979,2.3867,2.3867,2.3231,2.2703,2.2733,2.2725,2.2748,2.2942,2.2725,2.2566,3.0211,3.0036,2.8293,2.765,2.7795,2.7913,2.831,2.8842,2.885,2.8889,2.8928,2.9325,2.8758,2.7467,2.6618,0.0,2.6376,2.6376,2.6393,2.636,2.6327,2.6276,2.6259,2.6209,2.6192,2.621,2.6192,2.6175,2.6157,2.6141,2.6122,2.607,2.5438,2.5064,2.5045,2.5045,2.5025,2.4985,2.4701,2.4534,2.4498,2.3831,2.3471,2.345,2.315,2.2797,2.2333,2.2729,2.2729,2.2278,2.2254,2.2254,2.2254,0.0,0.0,0.0,0.0,0.0,0.0,0.0,0.0,0.0,0.0,0.0,0.0,0.0,0.0,0.0,2.4508,0.0,2.4859,2.5075,0.0,0.0,0.0,2.6105,2.6538,2.6859,2.7103,2.7373,0.0,0.0,2.7672,2.7716,2.7552,2.7101,2.7054,2.7022,2.7006,2.6775,2.6623,2.6589,2.6398,2.6079,2.5687,2.5594,2.5462,2.5137,2.4962,2.4942,2.4942,2.4883,2.4902,2.4843,2.4614,2.4343,2.4364,2.3979,2.3745,2.3852,2.3702,2.3638,2.3818,2.3414,2.3031,3.1991,3.1883,3.1518,3.028,2.8565,2.8573,2.8826,2.9257,2.938,2.9595,2.9968,3.0161,2.9922,2.9304,2.8622,2.8453,2.8682,2.8682,2.8682,2.8647,2.8117,2.7844,2.7827,2.728,2.7006,2.7006,2.7006,2.6858,2.6573,2.6556,2.6385,2.6104,2.5924,2.5687,2.5387,2.5403,2.5266,2.4985,2.4926,2.4746,2.4518,2.4317,2.4114,2.3861,2.3775,2.3545,2.3135,2.3224,2.3105,2.2752,2.2729,2.2729,2.2729,2.2623,0.0,0.0,0.0,0.0,0.0,0.0,0.0,0.0,0.0,2.4009,2.3882,0.0,2.4276,0.0,2.4726,2.4831,2.4625,2.5005,0.0,0.0,2.5994,2.6296,2.6572,2.6842,2.7103,2.7373,2.7404,2.7481,2.7686,2.7716,2.7654,2.7552,2.7402,2.7247,2.7038,2.6974,2.6908,2.6875,2.6691,2.6468,2.6347,2.617,2.6008,2.5899,2.5591,2.5351,2.537,2.5098,2.4902,2.4902,2.4823,2.4744,2.4759,2.4643,2.4659,2.4699,2.4168,2.3696,2.3925,2.3696,2.3545,3.3155,3.3055,3.2779,3.1833,3.0512,3.0199,2.9996,2.9892,2.9989,3.0161,3.0398,3.0312,3.0294,3.0249,2.9535,2.9333,2.9506,2.9506,2.9506,2.9472,2.9075,2.8885,2.8868,2.8144,2.7782,2.7782,2.7454,2.7186,2.6974,2.6974,2.6841,2.6641,2.6641,2.6419,2.605,2.5854,2.5594,2.5211,2.5227,2.5068,2.4726,2.458,2.4431,2.4229,2.4067,2.3882,2.3674,2.3674,2.3566,2.3385,2.34,2.3385,2.3385,2.3378,2.34,0.0,0.0,0.0,0.0,0.0,0.0,0.0,0.0,0.0,0.0,0.0,2.4498,2.4498,2.4866,2.5084,2.5001,2.5435,2.5844,2.6045,2.6487,2.6842,2.6941,2.7149,2.7369,2.7509,2.7539,2.7567,2.7686,2.7716,2.7716,2.7716,2.7597,2.7478,2.7338,2.7228,2.7166,2.7184,2.6957,2.6775,2.6775,2.6657,2.652,2.6381,2.6154,2.5959,2.583,2.5626,2.5476,2.5476,2.531,2.5176,2.5176,2.5001,2.4922,2.4902,2.4583,2.4338,2.4542,2.4461,2.4389,3.414,3.4051,3.3361,3.3056,3.2944,3.2343,3.1595,3.0883,3.0784,3.0704,3.0633,3.0367,3.0455,3.08,3.011,2.9799,2.9799,2.9799,2.9782,2.9799,2.9696,2.9661,2.9627,2.8885,2.8541,2.8523,2.7885,2.7523,2.7453,2.7453,2.7401,2.7315,2.7315,2.7088,2.6691,2.6385,2.6016,2.5596,2.5521,2.5368,2.5068,2.4726,2.4559,2.4559,2.4276,2.4109,2.4067,2.4067,2.403,2.4003,2.3982,2.3982,2.3982,2.3982,2.3982,0.0,2.3982,0.0,0.0,0.0,0.0,0.0,0.0,0.0,0.0,2.4605,2.4645,2.471,2.5146,2.5489,2.5659,2.6064,2.6383,2.6606,2.7071,2.7373,2.7404,2.7585,2.7716,2.7716,2.7716,2.7716,2.7757,2.7742,2.7757,2.7829,2.784,2.7844,2.7786,2.7582,2.7434,2.7434,2.7214,2.7038,2.6989,2.6989,2.6908,2.6708,2.664,2.6571,2.6363,2.6293,2.6276,2.6205,2.5903,2.5668,2.5612,2.531,2.5102,2.5157,2.5173,2.5176,2.5234,2.5179,2.5259,3.5827,3.5788,3.5668,3.5257,3.4713,3.4559,3.3894,3.2816,3.2225,3.1794,3.1559,3.1479,3.1521,3.1576,3.1438,3.1351,3.1369,3.1369,3.1369,3.1334,3.0748,3.0472,3.042,2.9661,2.9299,2.9299,2.9144,2.8782,2.8178,2.8178,2.7885,2.7332,2.7315,2.7105,2.6725,0.0,0.0,0.0,2.567,2.5465,2.5406,2.5088,2.4906,2.4922,2.4846,0.0,2.4436,2.4416,2.4276,2.4003,2.3982,0.0,0.0,0.0,0.0,0.0,0.0,0.0,0.0,0.0,0.0,0.0,2.5596,2.5572,2.4966,2.5153,2.5465,2.5854,2.5962,2.6104,2.6228,2.6333,2.647,2.6657,2.6973,2.7231,2.7371,2.7585,2.7716,2.7716,2.7716,2.7786,2.7978,2.802,2.8098,2.8285,2.835,2.8332,2.8337,2.7922,2.7672,2.7627,2.7476,2.7246,2.7038,2.7038,2.7022,2.6924,2.6924,2.6891,2.6859,2.6842,2.6775,2.6589,2.6434,2.6312,2.6133,2.6028,2.6031,2.6013,2.6155,2.6082,2.5403,2.5141,2.5141,3.6284,3.6284,3.6255,3.6052,0.0,3.5707,3.5359,3.4749,3.3656,3.2848,3.2334,3.2334,3.2145,3.18,3.18,3.18,3.18,3.18,3.18,3.1783,3.1403,3.1249,3.1232,3.0455,3.0093,3.0075,2.9849,2.9567,2.92,2.8958,2.8664,2.8278,2.7894,2.7519,2.7211,2.7247,2.699,2.6401,2.621,2.5998,2.5799,2.5631,2.5535,2.5519,2.5535,0.0,0.0,0.0,0.0,0.0,0.0,0.0,0.0,0.0,0.0,2.4744,2.4926,2.5281,2.5792,2.5985,2.6338,2.6888,2.6759,2.6341,2.5605,2.5705,2.589,2.6123,2.6141,2.6246,2.6437,2.6573,2.674,2.7021,2.7244,2.7474,2.7695,2.7826,2.7954,2.8075,2.8102,2.8139,2.8272,2.8298,2.835,2.8478,2.8504,2.8516,2.8491,2.8272,2.8102,2.8102,2.788,2.7695,2.7562,2.7413,2.7307,2.723,2.72,2.7152,2.7022,2.7006,2.6957,2.6908,2.6891,2.6858,2.6825,2.6824,2.6823,2.684,2.6923,2.6889,2.6387,2.6073,2.5873,3.6637,3.6512,3.643,3.6468,3.6512,3.6464,3.6468,3.6408,0.0,0.0,0.0,3.311,3.2734,3.2082,3.2083,3.205,3.1966,3.1966,3.1966,3.1984,3.1984,3.1966,3.1931,3.1359,3.1081,3.1063,3.0688,3.0429,3.0286,2.9908,2.9647,2.9451,2.8723,2.8138,2.7789,2.7572,2.7277,2.6954,2.6774,2.6539,2.6228,2.6139,2.6154,2.6286,2.6154,2.6154,2.6286,2.5846,2.5615,2.5596,2.5458,2.538,2.5416,2.5805,2.6007,2.6026,2.6339,2.6786,2.7369,2.7474,2.7783,2.8377,2.7788,2.7065,2.6261,2.621,2.6229,2.6333,2.6333,2.6454,2.6707,2.6921,2.7178,2.7476,2.7654,2.7869,2.8112,2.8166,2.8259,2.8466,2.8478,2.8529,2.8578,2.8578,2.8621,2.8658,2.8718,2.867,2.864,2.8566,2.8453,2.844,2.8259,2.8152,2.8125,2.7992,2.7786,2.7654,2.7582,2.743,2.726,2.7252,2.7356,2.7439,2.7522,2.7709,2.7785,2.7855,2.7811,2.7842,2.789,2.7888,2.7899,2.7486,2.7044,3.7945,3.7339,3.7303,3.7321,3.7339,3.7303,3.7321,3.7212,3.5692,3.4628,3.3921,3.3921,3.3647,3.3176,3.3158,3.2984,3.2685,3.2668,3.265,3.2668,3.265,3.265,3.265,3.2543,3.2506,3.2488,3.2448,3.207,3.1515,3.1383,3.102,3.032,2.9522,2.8766,2.8101,2.7992,2.7964,2.789,2.7098,2.6674,2.6607,2.628,2.642,2.6985,2.642,2.6403,2.7018,2.6383,2.6016,2.6033,2.6574,2.6904,2.6902,2.7573,2.7995,2.7995,2.8049,2.812,2.8239,2.8537,2.8642,2.8408,2.8304,2.7776,2.6742,2.6624,2.6808,2.7228,2.7261,2.7369,2.7504,2.755,2.7681,2.7936,2.8034,2.8156,2.8415,2.8453,2.8478,2.8541,2.8504,2.8664,2.8947,2.8982,2.9088,2.9237,2.9366,2.928,2.9149,2.8832,2.8541,2.8504,2.8478,2.8453,2.844,2.8428,2.8396,2.8345,2.8201,2.8156,2.8117,2.8388,2.8574,2.8389,2.8888,2.9238,2.9222,2.9277,2.9352,2.9425,2.9521,2.962,2.9601,2.9039,2.8275,3.847,3.8113,3.7684,3.7505,3.7505,3.7505,3.7505,3.7433,3.6761,3.6028,3.5377,3.5343,3.4994,3.4358,3.3915,3.3628,3.3437,3.2991,3.2795,3.2795,3.2795,3.2795,3.2795,3.2795,3.2795,3.2811,3.2983,3.288,3.2568,3.2332,3.2018,3.1565,3.0256,2.9152,2.8414,2.8183,2.8102,2.8084,2.7657,2.7394,2.7243,2.7066,2.7059,2.725,2.6911,2.6894,2.7216,2.7094,2.7023,2.7006,2.7546,2.7836,2.7852,2.8408,2.8723,2.8723,2.8889,2.9184,2.961,3.02,3.026,2.9713,2.9678,2.9193,2.7998,2.739,2.7201,2.7405,2.7483,2.76,2.7847,2.7872,2.7964,2.8285,2.8324,2.844,2.8713,2.8773,2.882,2.8966,2.8989,2.9237,2.981,2.9876,3.0113,3.0538,3.0392,2.9927,2.9537,2.957,2.9478,2.9088,2.8885,2.8791,2.8815,2.9039,2.9158,2.9181,2.947,2.9638,2.9679,2.9918,2.9983,3.0034,3.0342,3.0506,3.0481,3.0524,3.056,3.049,3.065,3.0711,3.0539,3.0128,2.9253,3.9283,3.8906,3.8295,3.7953,3.7756,3.7756,3.7791,3.7774,3.7756,3.745,3.6947,3.6737,3.6272,3.5552,3.4926,3.451,3.4146,3.3589,3.3209,3.3032,3.3029,3.3029,3.3032,3.3029,3.3014,3.3045,3.3306,3.3408,3.3364,3.3044,3.2766,3.246,3.0961,2.9761,2.8966,2.8515,2.829,2.8303,2.8308,2.8129,2.7797,2.78,2.7774,2.7757,2.7525,2.749,2.7745,2.7941,2.8049,2.8066,2.8672,2.8996,2.894,2.9384,2.9632,2.965,2.9865,3.0231,3.0768,3.1393,3.1446,3.0716,3.0714,3.0321,2.938,2.8624,2.8012,2.7717,2.7686,2.7829,2.8061,2.8116,2.825,2.8554,2.8803,2.9071,2.9331,2.9506,2.9691,2.9885,2.9935,3.0203,3.0697,3.0864,3.1109,3.1536,3.1347,3.0754,3.0287,3.0642,3.0679,3.0255,2.9816,2.972,2.966,2.9984,3.0252,3.027,3.0682,3.0907,3.1021,3.1141,3.1314,3.1425,3.1678,3.1816,3.1827,3.1845,3.1853,3.1819,3.1949,3.1863,3.1518,3.1266,3.0456,4.1104,3.9875,3.9678,3.9271,3.8564,3.8546,3.8546,3.8546,3.8562,3.8559,3.8353,3.7736,3.7164,3.6787,3.6638,3.5984,3.4987,3.4828,3.4375,3.3753,3.3707,3.3707,3.3662,3.3694,3.3707,3.3694,3.3721,3.3721,3.3739,3.3688,3.3298,3.2583,3.1671,3.0815,3.0033,2.9283,2.8905,2.8917,2.8917,2.8651,2.8102,2.8061,2.8386,2.9108,2.8156,2.8123,2.8908,2.8911,2.8778,2.8837,3.0117,3.0785,3.0574,3.1142,3.1522,3.1523,3.1541,3.1461,3.1112,3.1391,3.1284,3.0617,3.0627,3.0627,3.0478,3.0506,2.9917,2.8797,2.837,2.845,2.8458,2.8525,2.876,2.9142,2.9666,3.0145,3.0443,3.111,3.1548,3.1559,3.1418,3.1626,3.17,3.1804,3.1859,3.2159,3.2213,3.2061,3.1881,3.2013,3.2164,3.2014,3.1791,3.1537,3.1448,3.1544,3.163,3.1663,3.1582,3.1715,3.1869,3.2083,3.2218,3.2507,3.2805,3.3206,3.3306,3.3463,3.3443,3.3267,3.3337,3.3425,3.2853,3.2551,3.1884,4.1919,4.1222,4.0286,3.9441,3.8762,3.8707,3.8707,3.8707,3.8707,3.8707,3.8658,3.8352,3.812,3.7938,3.7478,3.6955,3.6431,3.5463,3.4839,3.4472,3.4045,3.3807,3.3807,3.3807,3.3807,3.3807,3.3807,3.3807,3.3807,3.3807,3.3403,3.2601,3.1788,3.0993,3.021,2.939,2.8987,2.8987,2.8987,2.8881,2.8651,2.8482,2.8456,2.853,2.8156,2.8088,2.8574,2.8916,2.9127,2.9201,3.0586,3.1372,3.1259,3.1524,3.1894,3.2315,3.1946,3.1414,3.0778,3.0881,3.1041,3.1222,3.1329,3.1441,3.1637,3.1796,3.1459,3.0583,3.0115,3.0013,3.016,3.0216,3.0332,3.0618,3.0972,3.1191,3.1299,3.1608,3.1838,3.196,3.1992,3.225,3.2794,3.3332,3.3399,3.3129,3.308,3.3,3.2564,3.2783,3.3096,3.3154,3.3374,3.3145,3.2504,3.2598,3.2815,3.2965,3.3264,3.3502,3.3359,3.3604,3.3822,3.3694,3.3946,3.4157,3.4153,3.4086,3.408,3.4093,3.4023,3.3907,3.3697,3.3586,3.3169,4.2506,4.2066,4.0561,3.957,3.9019,3.8799,3.8707,3.8707,3.8707,3.8707,3.8707,3.8707,3.8707,3.8615,3.8083,3.7713,3.7327,3.6009,3.5224,3.4931,3.4174,3.3807,3.3807,3.3807,3.3807,3.3807,3.3807,3.3807,3.3807,3.3807,3.3495,3.2889,3.2137,3.1329,3.054,2.9751,2.9207,2.9005,2.8987,2.8987,2.8964,2.8803,2.8601,2.8373,2.8281,2.8281,2.8365,2.9039,2.9414,2.9432,3.0689,3.1377,3.1286,3.1271,3.1517,3.2012,3.1714,3.1079,3.0353,3.0567,3.1026,3.1639,3.1922,3.2347,3.275,3.2959,3.2859,3.2493,3.2096,3.1873,3.1483,3.1519,3.1602,3.1771,3.1942,3.2132,3.2199,3.2378,3.27,3.2832,3.3023,3.3109,3.3866,3.4452,3.4641,3.4146,3.4084,3.3965,3.3459,3.3792,3.4126,3.4128,3.4672,3.4476,3.3416,3.3534,3.3922,3.4054,3.4434,3.468,3.4752,3.487,3.4916,3.4442,3.4727,3.4794,3.4697,3.4563,3.4464,3.4345,3.4288,3.4337,3.4375,3.4325,3.4232,4.2983,4.2121,4.0561,3.99,3.9772,3.9019,3.8707,3.8707,3.8707,3.8707,3.8707,3.8707,3.8707,3.8707,3.8597,3.823,3.7474,3.6629,3.5844,3.5114,3.4247,3.3825,3.3807,3.3807,3.3807,3.3807,3.3807,3.3807,3.3807,3.3807,3.3788,3.3692,3.2902,3.2131,3.1379,3.0545,2.9769,2.9209,2.9081,2.901,2.901,2.8987,2.8987,2.894,2.87,2.8676,2.8943,2.9488,2.9727,2.9646,3.0478,3.0804,3.0511,3.0517,3.0567,3.0547,3.0794,3.0586,2.9993,3.0633,3.131,3.1549,3.2201,3.305,3.3771,3.3975,3.3992,3.4035,3.3887,3.3361,3.2214,3.2091,3.2017,3.2039,3.2578,3.3026,3.3229,3.3851,3.449,3.4623,3.4557,3.4585,3.4794,3.5034,3.5157,3.5092,3.5231,3.5228,3.5098,3.5228,3.5259,3.5259,3.5314,3.5281,3.4848,3.4658,3.4725,3.4817,3.4876,3.5053,3.5069,3.5083,3.51,3.5081,3.5083,3.5083,3.5073,3.5037,3.4977,3.4905,3.4878,3.4916,3.4784,3.4851,3.4753,4.302,4.2194,4.1111,4.0377,3.9824,3.9056,3.8707,3.8707,3.8707,3.8707,3.8707,3.8707,3.8707,3.8707,3.8707,3.8542,3.8212,3.7422,3.6905,3.645,3.5206,3.4564,3.4527,3.4064,3.3807,3.3807,3.3807,3.3807,3.3807,3.3807,3.3881,3.3907,3.3253,3.2764,3.2411,3.1297,3.0476,3.0197,2.9702,2.9394,2.9384,2.9394,2.9375,2.9355,2.903,2.8905,2.8987,2.9186,2.9266,2.9247,3.0014,3.0401,3.0329,3.077,3.0552,2.9704,3.0097,3.013,2.9502,2.9724,3.0553,3.1678,3.2101,3.3002,3.4237,3.462,3.4641,3.463,3.4641,3.4293,3.398,3.366,3.3593,3.3641,3.3936,3.4191,3.4347,3.4612,3.486,3.5063,3.5201,3.5273,3.5266,3.5346,3.5395,3.5391,3.5472,3.5493,3.55,3.55,3.55,3.55,3.55,3.546,3.5333,3.5258,3.5277,3.5299,3.5333,3.5289,3.5289,3.5367,3.5395,3.5273,3.5285,3.5292,3.5273,3.5212,3.5193,3.5162,3.5154,3.5154,3.5041,3.5041,3.5006,4.3185,4.2598,4.1809,4.1038,4.023,3.9423,3.8927,3.8726,3.8707,3.8707,3.8707,3.8707,3.8707,3.8707,3.8707,3.8707,3.8615,3.7878,3.7511,3.7397,3.6145,3.5506,3.5307,3.4668,3.4268,3.4164,3.3992,3.3921,3.3928,3.4005,3.413,3.423,3.3731,3.3399,3.3127,3.219,3.1599,3.1214,3.0462,3.0021,3.0002,2.9739,2.9598,2.9561,2.9324,2.916,2.9112,2.9051,2.8987,2.906,2.9537,2.9824,2.9867,3.032,3.0155,2.9225,2.9519,2.9644,2.9337,2.9484,3.0246,3.1493,3.1985,3.276,3.3933,3.4302,3.4463,3.4519,3.4794,3.4908,3.4898,3.4803,3.4771,3.473,3.4812,3.4936,3.4973,3.4982,3.5089,3.5258,3.5403,3.5486,3.55,3.5481,3.5493,3.55,3.55,3.55,3.55,3.55,3.5488,3.5501,3.5489,3.5515,3.5483,3.5469,3.5477,3.5496,3.5483,3.549,3.5496,3.559,3.5596,3.5496,3.5451,3.5483,3.5457,3.5364,3.5336,3.5295,3.5343,3.539,3.5273,3.5193,3.5154,4.3479,4.3331,4.2635,4.1754,4.0912,4.012,3.9405,3.8762,3.8707,3.8707,3.8707,3.8707,3.8723,3.8719,3.875,3.8738,3.8633,3.8055,3.7695,3.7584,3.7002,3.6581,3.6325,3.5718,3.5229,3.493,3.4426,3.4197,3.4209,3.4341,3.4464,3.4478,3.4451,3.407,3.3366,3.3238,3.2841,3.2165,3.1374,3.096,3.0819,3.0189,2.9794,2.9747,2.9645,2.9485,2.9324,2.9138,2.9055,2.9044,2.9069,2.9035,2.9154,2.9258,2.9095,2.9099,2.9058,2.9175,2.9446,3.0056,3.0476,3.1111,3.1713,3.2221,3.2663,3.3239,3.3693,3.392,3.4338,3.4784,3.484,3.4852,3.4869,3.4917,3.4784,3.4893,3.5054,3.5171,3.5266,3.5432,3.55,3.55,3.55,3.55,3.55,3.55,3.55,3.55,3.5507,3.5501,3.5495,3.5509,3.5546,3.5571,3.5616,3.564,3.5639,3.5629,3.5612,3.5593,3.5614,3.5684,3.5684,3.5611,3.563,3.5654,3.5612,3.5541,3.5599,3.5588,3.5621,3.5587,3.5476,3.538,3.5318,4.3479,4.3387,4.2635,4.1846,4.104,4.023,3.9423,3.8726,3.8707,3.8707,3.8707,3.8707,3.8792,3.895,3.8979,3.9073,3.9208,3.8965,3.8779,3.8521,3.8059,3.7773,3.7542,3.6868,3.6176,3.5513,3.4775,3.4398,3.4446,3.4494,3.4572,3.4724,3.4773,3.4737,3.4545,3.4058,3.361,3.3371,3.2575,3.2148,3.2072,3.1331,3.0912,3.0828,3.021,2.976,2.9707,2.9523,2.9415,2.9395,2.9405,2.9405,2.9405,2.9405,2.9415,2.9434,2.9464,2.9494,2.9617,2.9879,3.041,3.1024,3.1477,3.2,3.2579,3.29,3.3367,3.3757,3.3784,3.3707,3.4182,3.3885,3.3841,3.4179,3.4335,3.4423,3.4602,3.5038,3.5393,3.5467,3.55,3.55,3.5488,3.5488,3.5508,3.5508,3.5501,3.5501,3.552,3.554,3.5556,3.5571,3.5596,3.5659,3.5702,3.5739,3.5741,3.5745,3.5725,3.57,3.5713,3.5721,3.5737,3.5741,3.5764,3.5757,3.5724,3.5724,3.5745,3.5749,3.5722,3.5685,3.5631,3.5556,3.5477,4.3479,4.3442,4.2947,4.2103,4.1095,4.0543,3.9698,3.8799,3.8707,3.8768,3.8837,3.887,3.9007,3.9205,3.9245,3.9337,3.9514,3.9599,3.9544,3.9364,3.9074,3.8851,3.8637,3.7885,3.7051,3.6254,3.5469,3.5105,3.5097,3.4885,3.4832,3.4982,3.5019,3.5063,3.5155,3.4732,3.4445,3.4331,3.3616,3.3177,3.3024,3.2374,3.1782,3.145,3.0815,3.0342,3.0049,2.9897,2.9751,2.9635,2.9598,2.9598,2.9608,2.9617,2.9635,2.9644,2.9681,2.9715,2.9801,2.9886,3.0167,3.0811,3.1007,3.1258,3.1891,3.2179,3.2756,3.3045,3.3077,3.3237,3.391,3.343,3.3153,3.3461,3.3639,3.3853,3.4205,3.4988,3.5442,3.5494,3.5528,3.5534,3.5522,3.5558,3.557,3.557,3.5575,3.5575,3.5587,3.5604,3.5631,3.5654,3.5693,3.5755,3.5797,3.5834,3.5841,3.5834,3.5824,3.5797,3.5778,3.5778,3.5781,3.5778,3.5781,3.5795,3.5755,3.5768,3.5785,3.5789,3.5802,3.5759,3.571,3.5714,3.5663,4.3479,4.3479,4.3479,4.2543,4.1187,4.104,4.0155,3.8882,3.8735,3.8877,3.9087,3.9129,3.9272,3.9489,3.9539,3.9563,3.958,3.9826,3.9914,3.9892,3.9819,3.9694,3.9395,3.8659,3.7879,3.7184,3.6506,3.6149,3.596,3.5558,3.522,3.5185,3.5157,3.5182,3.5171,3.5163,3.5087,3.498,3.4388,3.4063,3.4014,3.3215,3.2489,3.1801,3.1565,3.1099,3.0488,3.0219,2.9984,2.9698,2.9689,2.9698,2.9672,2.9689,2.9751,2.976,2.9741,2.9864,2.9969,3.004,3.0244,3.0631,3.0726,3.0538,3.1058,3.1756,3.2218,3.241,3.2679,3.3256,3.3821,3.341,3.2981,3.2814,3.2827,3.3186,3.4032,3.4776,3.511,3.5393,3.5532,3.5554,3.553,3.565,3.5663,3.5691,3.5687,3.5678,3.5672,3.5681,3.5745,3.5778,3.5807,3.5853,3.5892,3.5896,3.5919,3.5919,3.5918,3.5879,3.5859,3.584,3.582,3.5831,3.5834,3.5827,3.5827,3.5838,3.5845,3.5855,3.5847,3.5805,3.5794,3.5794,3.578,4.3479,4.3479,4.3479,4.258,4.1205,4.1113,4.0317,3.9071,3.9007,3.9156,3.9344,3.9383,3.9532,3.9773,3.9796,3.9892,4.0057,4.0147,4.0205,4.0205,4.0215,4.0147,3.9926,3.9231,3.8718,3.8366,3.7642,3.6992,3.6431,3.6226,3.5812,3.5201,3.522,3.5182,3.5182,3.5182,3.5182,3.5182,3.5037,3.4846,3.4732,3.4063,3.3586,3.3337,3.2688,3.1973,3.1178,3.0529,3.0164,3.0064,3.0042,3.0042,3.0015,3.0019,3.0034,3.0068,3.0133,3.0176,3.0254,3.0337,3.065,3.1263,3.1371,3.1602,3.2218,3.2429,3.2891,3.3237,3.3282,3.3256,3.3853,3.3468,3.2756,3.2122,3.2115,3.2384,3.307,3.3455,3.4045,3.5197,3.5016,3.5132,3.5499,3.5709,3.5729,3.5729,3.5733,3.5733,3.5741,3.5795,3.5844,3.5877,3.5919,3.5944,3.5973,3.5974,3.5975,3.5995,3.5976,3.5976,3.5957,3.5957,3.5918,3.5892,3.5921,3.5919,3.5918,3.5921,3.5923,3.5918,3.5918,3.5918,3.5879,3.5861,3.5845,4.3479,4.3532,4.3649,4.2777,4.1372,4.1366,4.0616,3.945,3.9272,3.9408,3.9635,3.9651,3.9826,4.0067,4.0077,4.0157,4.0291,4.032,4.032,4.032,4.0301,4.0291,4.0158,3.9709,3.9537,3.9451,3.8667,3.8056,3.7493,3.6901,3.6233,3.5774,3.5373,3.5201,3.5182,3.5182,3.5182,3.5182,3.5182,3.5182,3.5144,3.477,3.4312,3.4033,3.3452,3.286,3.2057,3.1522,3.0987,3.0433,3.0204,3.0211,3.0206,3.0221,3.0221,3.026,3.0624,3.0905,3.0963,3.1205,3.1673,3.2083,3.2218,3.2429,3.2756,3.291,3.3218,3.3391,3.3141,3.3391,3.3898,3.3718,3.3115,3.2507,3.1973,3.1987,3.243,3.3149,3.392,3.472,3.5077,3.5115,3.5732,3.5791,3.5827,3.5836,3.5864,3.5841,3.5847,3.5895,3.5937,3.5953,3.5962,3.5991,3.5996,3.5996,3.5976,3.5996,3.5996,3.5996,3.5996,3.5996,3.5996,3.5957,3.5996,3.6016,3.5976,3.5976,3.5976,3.5976,3.6016,3.5996,3.5957,3.5918,3.5898,4.3565,4.3614,4.3815,4.2995,4.1667,4.1673,4.0841,3.972,3.9532,3.9693,3.9903,3.9954,4.0067,4.032,4.0273,4.032,4.032,4.032,4.032,4.032,4.032,4.032,4.0301,4.0225,4.0148,4.0072,3.947,3.9049,3.8467,3.734,3.6634,3.6214,3.5602,3.5239,3.5182,3.5182,3.5182,3.5182,3.5182,3.5182,3.5182,3.5076,3.4789,3.4339,3.3975,3.3547,3.2986,3.2585,3.1981,3.0555,3.0472,3.0645,3.059,3.0599,3.065,3.0816,3.1424,3.1795,3.1891,3.2365,3.2872,3.2987,3.3026,3.3122,3.3333,3.3468,3.3526,3.366,3.3199,3.3769,3.4263,3.4353,3.399,3.3358,3.259,3.2184,3.2213,3.3214,3.4153,3.4528,3.5369,3.5669,3.5909,3.5968,3.6009,3.5923,3.5949,3.5929,3.5931,3.5965,3.5979,3.5987,3.6011,3.6013,3.6016,3.6016,3.5996,3.5975,3.5974,3.5957,3.5957,3.5957,3.5996,3.6016,3.6016,3.6016,3.6016,3.6016,3.6016,3.6016,3.6016,3.6016,3.5996,3.5976,3.5957,4.4014,4.4161,4.3549,4.2716,4.1807,4.1209,4.0534,3.9826,3.9826,3.9946,4.0166,4.0215,4.0244,4.032,4.032,4.032,4.032,4.032,4.032,4.032,4.032,4.032,4.032,4.032,4.032,4.0225,4.0129,3.968,3.8888,3.8056,3.712,3.6481,3.5812,3.5182,3.5201,3.5182,3.5182,3.5182,3.5182,3.5182,3.5182,3.5182,3.5087,3.4827,3.435,3.3975,3.3643,3.3062,3.2527,3.2241,3.2172,3.2175,3.2084,3.2119,3.2134,3.2205,3.2391,3.2641,3.2699,3.2923,3.3224,3.3872,3.3949,3.4199,3.4885,3.4834,3.4865,3.4923,3.4949,3.4924,3.5131,3.5259,3.4898,3.4296,3.3938,3.3573,3.3109,3.2729,3.3545,3.4824,3.5165,3.5169,3.5861,3.5981,3.6012,3.6012,3.6013,3.6014,3.6019,3.6003,3.6009,3.6012,3.6014,3.6015,3.5976,3.5976,3.5957,3.5946,3.5924,3.5922,3.5897,3.5918,3.5957,3.5976,3.6016,3.6016,3.5976,3.5996,3.5996,3.5996,3.6016,3.6016,3.6016,3.6016,3.6016,4.4279,4.4322,4.3621,4.2857,4.2052,4.1366,4.0713,4.0162,4.0087,4.0166,4.0282,4.032,4.032,4.032,4.032,4.032,4.032,4.032,4.032,4.032,4.032,4.032,4.032,4.032,4.032,4.032,4.0301,3.9976,3.948,3.8706,3.7884,3.7063,3.6214,3.563,3.5239,3.5182,3.5182,3.5182,3.5182,3.5182,3.5182,3.5182,3.5182,3.5163,3.4789,3.4568,3.4553,3.4186,3.3945,3.3911,3.3892,3.3517,3.2929,3.283,3.2883,3.2916,3.334,3.3493,3.3581,3.3971,3.4395,3.4801,3.4858,3.5059,3.5373,3.55,3.55,3.5514,3.549,3.5556,3.5626,3.5641,3.5405,3.5196,3.4769,3.4528,3.4408,3.3763,3.3574,3.5017,3.5305,3.5547,3.585,3.5991,3.6012,3.6012,3.6012,3.6014,3.6021,3.6005,3.6009,3.6013,3.6014,3.5996,3.5952,3.5918,3.5879,3.5877,3.5871,3.5849,3.5843,3.5859,3.5898,3.5918,3.5937,3.5937,3.5918,3.5937,3.5975,3.5996,3.5996,3.6016,3.6016,3.6016,3.6016,4.4423,4.4288,4.3722,4.2989,4.215,4.1521,4.0903,4.0349,4.032,4.0291,4.032,4.032,4.032,4.032,4.032,4.032,4.032,4.032,4.032,4.032,4.032,4.032,4.032,4.032,4.032,4.032,4.032,4.0225,4.0014,3.9412,3.8381,3.7655,3.6863,3.5984,3.5354,3.5182,3.5182,3.5182,3.5182,3.5182,3.5182,3.5182,3.5209,3.5198,3.5168,3.5139,3.5178,3.5101,3.5159,3.5328,3.5352,3.4599,3.3698,3.3262,3.3288,3.3378,3.4071,3.4389,3.4544,3.5035,3.5466,3.5623,3.5595,3.5552,3.5553,3.554,3.5547,3.5546,3.5585,3.5655,3.5721,3.5737,3.5797,3.5708,3.5198,3.5256,3.5609,3.5266,3.4993,3.5027,3.5497,3.5851,3.5931,3.6012,3.6012,3.6012,3.6012,3.6016,3.6002,3.6007,3.6011,3.5996,3.5996,3.595,3.5893,3.5861,3.5834,3.5805,3.5797,3.5788,3.5778,3.5791,3.581,3.5827,3.584,3.5847,3.5884,3.5917,3.5928,3.5955,3.5996,3.6016,3.6016,3.6016,3.6016,4.445,4.3996,4.3238,4.2438,4.1599,4.0826,4.0463,4.0339,4.032,4.032,4.032,4.032,4.032,4.032,4.032,4.032,4.032,4.032,4.032,4.032,4.032,4.032,4.032,4.032,4.032,4.032,4.032,4.032,4.011,3.9431,3.8648,3.7731,3.6958,3.6137,3.543,3.5182,3.5182,3.5182,3.5182,3.5182,3.5182,3.5226,3.5258,3.5289,3.5304,3.536,3.5438,3.5412,3.5412,3.554,3.5605,3.5441,3.5078,3.4941,3.4903,3.4899,3.5056,3.5215,3.5329,3.5454,3.5626,3.565,3.5676,3.5672,3.5664,3.566,3.566,3.5679,3.5678,3.5733,3.5846,3.5855,3.5899,3.5892,3.5864,3.5729,3.5872,3.5812,3.5632,3.5639,3.5875,3.6012,3.6012,3.6012,3.6012,3.6012,3.6012,3.6018,3.6007,3.601,3.5993,3.5976,3.5951,3.5892,3.5834,3.5819,3.5791,3.576,3.5753,3.5747,3.5726,3.5718,3.5737,3.5745,3.5778,3.5803,3.5829,3.5869,3.5887,3.5918,3.5957,3.5996,3.5976,3.5957,3.5976,4.4225,4.3892,4.2679,4.1896,4.1399,4.0626,4.032,4.032,4.032,4.032,4.032,4.032,4.032,4.032,4.032,4.032,4.032,4.032,4.032,4.032,4.032,4.032,4.032,4.032,4.032,4.032,4.032,4.032,4.0282,3.9919,3.8954,3.7884,3.7254,3.6489,3.5477,3.5182,3.5182,3.5182,3.5182,3.519,3.5198,3.5266,3.5357,3.543,3.5444,3.5495,3.5557,3.5544,3.5556,3.5645,3.5683,3.5711,3.57,3.5704,3.5669,3.562,3.564,3.5697,3.5752,3.5749,3.5768,3.5794,3.5801,3.5756,3.5729,3.5713,3.5741,3.579,3.5804,3.5849,3.5942,3.5964,3.5956,3.5986,3.6012,3.6012,3.6012,3.6012,3.6012,3.6012,3.6012,3.6012,3.6012,3.6012,3.6012,3.6012,3.6012,3.6002,3.6011,3.5993,3.5976,3.5908,3.5882,3.5841,3.5788,3.5764,3.5753,3.572,3.5718,3.5708,3.5707,3.5701,3.5697,3.5722,3.5736,3.5756,3.5755,3.5778,3.5814,3.5843,3.5879,3.5898,3.5898,3.5898,3.5921,4.3796,4.3376,4.2049,4.1399,4.1151,4.0568,4.032,4.032,4.032,4.032,4.032,4.032,4.032,4.032,4.032,4.032,4.032,4.032,4.032,4.032,4.032,4.032,4.032,4.032,4.032,4.032,4.032,4.032,4.032,4.0225,3.9374,3.8362,3.7865,3.7005,3.5821,3.5335,3.5259,3.5182,3.5182,3.5209,3.5266,3.5374,3.5496,3.5582,3.5629,3.565,3.5709,3.5681,3.5706,3.5756,3.5787,3.576,3.5794,3.588,3.588,3.5797,3.5753,3.582,3.5869,3.5883,3.588,3.5921,3.5924,3.5858,3.5798,3.5795,3.582,3.5914,3.5926,3.5936,3.5983,3.601,3.5991,3.601,3.6012,3.6012,3.6012,3.6012,3.6012,3.6012,3.6012,3.6012,3.6012,3.6012,3.6012,3.6012,3.6012,3.597,3.5975,3.5976,3.5936,3.5857,3.5797,3.5756,3.5715,3.5737,3.5728,3.5708,3.5707,3.5711,3.5701,3.5709,3.5711,3.5713,3.5707,3.5732,3.5712,3.5713,3.5751,3.5788,3.578,3.5819,3.5838,3.5843,3.5847,4.3157,4.1791,4.16,4.1094,4.0501,4.0358,4.032,4.032,4.032,4.032,4.032,4.032,4.032,4.032,4.032,4.032,4.032,4.032,4.032,4.032,4.032,4.032,4.032,4.032,4.032,4.032,4.032,4.032,4.032,4.032,3.9823,3.8839,3.796,3.7215,3.6233,3.5507,3.5201,3.5182,3.519,3.5266,3.5393,3.5507,3.5574,3.5621,3.5664,3.5749,3.584,3.582,3.5819,3.5947,3.5955,3.5956,3.5962,3.5963,3.5967,3.5953,3.5931,3.588,3.5894,3.5899,3.5934,3.5974,3.5981,3.5983,3.5951,3.5927,3.5951,3.5983,3.6004,3.5985,3.5989,3.601,3.6012,3.6012,3.6012,3.6012,3.6012,3.6012,3.6012,3.6012,3.6012,3.6012,3.6012,3.6012,3.6012,3.6012,3.5996,3.5972,3.5937,3.5914,3.5883,3.5794,3.5756,3.5721,3.5708,3.5711,3.5695,3.5704,3.5704,3.5704,3.5704,3.5704,3.5704,3.5715,3.5704,3.5709,3.5713,3.5698,3.5709,3.5733,3.5753,3.5775,3.5794,3.5789,3.5785,4.2163,4.1457,4.1017,4.0616,4.0339,4.032,4.032,4.032,4.032,4.032,4.032,4.032,4.032,4.032,4.032,4.032,4.032,4.032,4.032,4.032,4.032,4.032,4.032,4.032,4.032,4.032,4.032,4.032,4.032,4.0225,3.9843,3.903,3.8151,3.7292,3.6576,3.5641,3.5278,3.5226,3.5281,3.5388,3.554,3.5639,3.5706,3.5768,3.5804,3.5867,3.5914,3.5927,3.5931,3.5991,3.6012,3.6012,3.601,3.601,3.601,3.601,3.598,3.5951,3.5951,3.5949,3.5978,3.5986,3.6012,3.6009,3.6012,3.6012,3.6012,3.601,3.6012,3.6012,3.6012,3.6012,3.6012,3.6012,3.6012,3.6012,3.6012,3.6012,3.6012,3.6012,3.6012,3.6012,3.6013,3.6016,3.6017,3.5998,3.5987,3.5957,3.5888,3.583,3.5791,3.5741,3.5726,3.5713,3.5697,3.5709,3.5715,3.5704,3.5704,3.5704,3.5704,3.5704,3.5704,3.5704,3.5704,3.5709,3.5715,3.5697,3.5704,3.5718,3.5732,3.5752,3.5764,3.5752,3.5745,4.1189,4.1132,4.054,4.032,4.032,4.032,4.032,4.032,4.032,4.032,4.032,4.032,4.032,4.032,4.032,4.032,4.032,4.032,4.032,4.032,4.032,4.032,4.032,4.032,4.032,4.032,4.032,4.032,4.032,4.0244,3.9957,3.927,3.8591,3.7693,3.6833,3.6069,3.5581,3.5281,3.5415,3.554,3.5669,3.5715,3.5813,3.5886,3.5921,3.596,3.6009,3.601,3.5991,3.5991,3.6012,3.6012,3.6012,3.6012,3.6012,3.6012,3.6007,3.6007,3.5988,3.6007,3.601,3.6012,3.6012,3.6012,3.6012,3.6012,3.6012,3.6012,3.6012,3.6012,3.6012,3.6012,3.6012,3.6012,3.6012,3.6012,3.6012,3.6012,3.6012,3.6012,3.6012,3.6012,3.6013,3.6018,3.6002,3.5984,3.5954,3.5917,3.5846,3.5759,3.5741,3.5712,3.5704,3.5706,3.5715,3.5704,3.5704,3.5704,3.5704,3.5704,3.5704,3.5704,3.5704,3.5704,3.5704,3.5709,3.5709,3.5709,3.5709,3.5716,3.5718,3.5716,3.5711,3.5704,3.5709,4.0377,4.0358,4.0339,4.032,4.032,4.032,4.032,4.032,4.032,4.032,4.032,4.032,4.032,4.032,4.032,4.032,4.032,4.032,4.032,4.032,4.032,4.032,4.032,4.032,4.032,4.032,4.032,4.032,4.032,4.032,4.0244,4.0072,3.9143,3.8398,3.749,3.6509,3.5845,3.5549,3.5565,3.5639,3.5735,3.581,3.5872,3.5899,3.596,3.601,3.6012,3.6012,3.6012,3.6012,3.6012,3.6012,3.6012,3.6012,3.6012,3.6012,3.6012,3.6012,3.6012,3.6012,3.6012,3.6012,3.6012,3.6012,3.6012,3.6012,3.6012,3.6012,3.6012,3.6012,3.6012,3.6012,3.6012,3.6012,3.6012,3.6012,3.6012,3.6012,3.6012,3.6012,3.6012,3.6013,3.6021,3.6006,3.6009,3.5991,3.5915,3.5876,3.5805,3.5732,3.5713,3.5716,3.5711,3.5709,3.5709,3.5704,3.5704,3.5704,3.5704,3.5704,3.5704,3.5704,3.5704,3.5704,3.5704,3.5704,3.5704,3.5704,3.5704,3.5704,3.5704,3.5704,3.5704,3.5704,3.5704,4.032,4.032,4.032,4.032,4.032,4.032,4.032,4.032,4.032,4.032,4.032,4.032,4.032,4.032,4.032,4.032,4.032,4.032,4.032,4.032,4.032,4.032,4.032,4.032,4.032,4.032,4.032,4.032,4.032,4.032,4.0336,4.0085,3.9563,3.8682,3.777,3.6718,3.5926,3.5725,3.5664,3.5721,3.5815,3.5858,3.5897,3.5908,3.5963,3.601,3.6012,3.6012,3.6012,3.6012,3.6012,3.6012,3.6012,3.6012,3.6012,3.6012,3.6012,3.6012,3.6012,3.6012,3.6012,3.6012,3.6012,3.6012,3.6012,3.6012,3.6012,3.6012,3.6012,3.6012,3.6012,3.6012,3.6012,3.6012,3.6012,3.6012,3.6012,3.6012,3.6012,3.6012,3.6014,3.6018,3.6006,3.6012,3.6013,3.5995,3.5903,3.5805,3.5741,3.5704,3.5716,3.5704,3.5704,3.5704,3.5704,3.5704,3.5704,3.5704,3.5704,3.5704,3.5704,3.5704,3.5704,3.5704,3.5704,3.5704,3.5704,3.5704,3.5704,3.5704,3.5704,3.5704,3.5704,3.5704,3.5704,4.032,4.032,4.032,4.032,4.032,4.032,4.032,4.032,4.032,4.032,4.032,4.032,4.032,4.032,4.032,4.032,4.032,4.032,4.032,4.032,4.032,4.032,4.032,4.032,4.032,4.032,4.032,4.032,4.032,4.0309,4.0342,4.0236,3.9908,3.9249,3.8202,3.68,3.5867,3.5727,3.5727,3.5772,3.5876,3.5894,3.5908,3.5933,3.5968,3.601,3.6012,3.6012,3.6012,3.6012,3.6012,3.6012,3.6012,3.6012,3.6012,3.6012,3.6012,3.6012,3.6012,3.6012,3.6012,3.6012,3.6012,3.6012,3.6012,3.6012,3.6012,3.6012,3.6012,3.6012,3.6012,3.6012,3.6012,3.6012,3.6012,3.6012,3.6012,3.6012,3.6012,3.6012,3.6018,3.6008,3.5995,3.5976,3.5946,3.5919,3.588,3.5801,3.5745,3.5702,3.5706,3.5704,3.5704,3.5704,3.5704,3.5704,3.5704,3.5704,3.5704,3.5704,3.5704,3.5704,3.5704,3.5704,3.5704,3.5704,3.5704,3.5704,3.5704,3.5704,3.5704,3.5704,3.5704,3.5704,3.5704,4.032,4.032,4.032,4.032,4.032,4.032,4.032,4.032,4.032,4.032,4.032,4.032,4.032,4.032,4.032,4.032,4.032,4.032,4.032,4.032,4.032,4.032,4.032,4.032,4.032,4.032,4.031,4.031,4.0329,4.037,4.04,4.05,4.041,4.0069,3.9187,3.7657,3.6501,3.5853,3.5847,3.5826,3.5872,3.5899,3.5947,3.5983,3.5991,3.6012,3.6012,3.6012,3.6012,3.6012,3.6012,3.6012,3.6012,3.6012,3.6012,3.6012,3.6012,3.6012,3.6012,3.6012,3.6012,3.6012,3.6012,3.6012,3.6012,3.6012,3.6012,3.6012,3.6012,3.6012,3.6012,3.6012,3.6012,3.6012,3.6012,3.6012,3.6012,3.6012,3.6012,3.6019,3.601,3.6015,3.5975,3.5942,3.588,3.5836,3.5802,3.5769,3.5727,3.5715,3.5709,3.5704,3.5704,3.5704,3.5704,3.5704,3.5704,3.5704,3.5704,3.5704,3.5704,3.5704,3.5704,3.5704,3.5704,3.5704,3.5704,3.5704,3.5704,3.5704,3.5704,3.5704,3.5704,3.5704,3.5704,4.032,4.032,4.032,4.032,4.032,4.032,4.032,4.032,4.032,4.032,4.032,4.032,4.032,4.032,4.032,4.032,4.032,4.032,4.032,4.032,4.032,4.032,4.032,4.032,4.032,4.032,4.031,4.0336,4.0358,4.0414,4.0549,4.0662,4.0709,4.0377,3.9344,3.8011,3.6832,3.6559,3.6227,3.5891,3.5911,3.5938,3.596,3.601,3.6012,3.6012,3.6012,3.6012,3.6012,3.6012,3.6012,3.6012,3.6012,3.6012,3.6012,3.6012,3.6012,3.6012,3.6012,3.6012,3.6012,3.6012,3.6012,3.6012,3.6012,3.6012,3.6012,3.6012,3.6012,3.6012,3.6012,3.6012,3.6012,3.6012,3.6012,3.6012,3.6012,3.6012,3.6014,3.6008,3.6014,3.5971,3.5931,3.588,3.5811,3.5784,3.5754,3.5757,3.5706,3.5715,3.5704,3.5704,3.5704,3.5704,3.5704,3.5704,3.5704,3.5704,3.5704,3.5704,3.5704,3.5704,3.5704,3.5704,3.5704,3.5704,3.5704,3.5704,3.5704,3.5704,3.5704,3.5704,3.5704,3.5704,3.5704,4.032,4.032,4.032,4.032,4.032,4.032,4.032,4.032,4.032,4.032,4.032,4.032,4.032,4.032,4.032,4.032,4.032,4.032,4.032,4.032,4.032,4.032,4.032,4.032,4.032,4.031,4.0336,4.0349,4.0397,4.0492,4.0629,4.0784,4.0859,4.0616,3.9733,3.8645,3.7381,3.6969,3.6372,3.59,3.5904,3.5929,3.5985,3.6009,3.6012,3.6012,3.6012,3.6012,3.6012,3.6012,3.6012,3.6012,3.6012,3.6012,3.6012,3.6012,3.6012,3.6012,3.6012,3.6012,3.6012,3.6012,3.6012,3.6012,3.6012,3.6012,3.6012,3.6012,3.6012,3.6012,3.6012,3.6012,3.6012,3.6012,3.6019,3.6019,3.6004,3.6006,3.5992,3.5996,3.5951,3.5923,3.5853,3.5813,3.5754,3.5737,3.5718,3.5711,3.5715,3.5709,3.5704,3.5704,3.5704,3.5704,3.5704,3.5704,3.5704,3.5704,3.5704,3.5704,3.5704,3.5704,3.5704,3.5704,3.5704,3.5704,3.5704,3.5704,3.5704,3.5704,3.5704,3.5704,3.5704,3.5704,3.5704,4.032,4.032,4.032,4.032,4.032,4.032,4.032,4.032,4.032,4.032,4.032,4.032,4.032,4.032,4.032,4.032,4.032,4.032,4.032,4.032,4.032,4.032,4.032,4.032,4.0329,4.0336,4.036,4.0417,4.0446,4.0629,4.0796,4.0878,4.0878,4.0771,4.0208,3.9134,3.7984,3.7327,3.6434,3.6003,3.5897,3.5931,3.5963,3.5989,3.6012,3.6012,3.6012,3.6012,3.6012,3.6012,3.6012,3.6012,3.6012,3.6012,3.6012,3.6012,3.6012,3.6012,3.6012,3.6012,3.6012,3.6012,3.6012,3.6012,3.6012,3.6012,3.6012,3.6012,3.6012,3.6012,3.6012,3.6012,3.6013,3.6021,3.6009,3.6012,3.6015,3.5996,3.5994,3.5963,3.5912,3.5836,3.578,3.5713,3.5737,3.5713,3.5711,3.5706,3.5709,3.5709,3.5704,3.5704,3.5704,3.5704,3.5704,3.5704,3.5704,3.5704,3.5704,3.5704,3.5704,3.5704,3.5704,3.5704,3.5704,3.5704,3.5704,3.5704,3.5704,3.5704,3.5693,3.5651,3.5639,3.5698,3.5704,4.032,4.032,4.032,4.032,4.032,4.032,4.032,4.032,4.032,4.032,4.032,4.032,4.032,4.032,4.032,4.032,4.032,4.032,4.032,4.032,4.032,4.032,4.031,4.032,4.0346,4.0368,4.0406,4.0508,4.0668,4.0826,4.0868,4.0883,4.0888,4.0888,4.0338,3.9248,3.849,3.7656,3.6586,3.6055,3.5925,3.5958,3.5986,3.601,3.6012,3.6012,3.6012,3.6012,3.6012,3.6012,3.6012,3.6012,3.6012,3.6012,3.6012,3.6012,3.6012,3.6012,3.6012,3.6012,3.6012,3.6012,3.6012,3.6012,3.6012,3.6012,3.6012,3.6012,3.6012,3.6012,3.6016,3.6018,3.6004,3.6011,3.5995,3.5976,3.5994,3.5988,3.5957,3.5901,3.5843,3.5791,3.5708,3.5713,3.5716,3.5715,3.5704,3.5704,3.5704,3.5704,3.5704,3.5704,3.5704,3.5704,3.5704,3.5704,3.5704,3.5704,3.5704,3.5704,3.5704,3.5704,3.5704,3.5704,3.5704,3.5704,3.5704,3.5704,3.5704,3.5656,3.5639,3.559,3.5559,3.5596,3.5633,4.032,4.032,4.032,4.032,4.032,4.032,4.032,4.032,4.032,4.032,4.032,4.032,4.032,4.032,4.032,4.032,4.032,4.032,4.032,4.032,4.031,4.032,4.031,4.0336,4.0368,4.0406,4.0515,4.0648,4.0787,4.0863,4.0888,4.0888,4.0888,4.0921,4.0434,3.9369,3.8539,3.7803,3.6988,3.6172,3.5955,3.5988,3.601,3.6012,3.6012,3.6012,3.6012,3.6012,3.6012,3.6012,3.6012,3.6012,3.6012,3.6012,3.6012,3.6012,3.6012,3.6012,3.6012,3.6012,3.6012,3.6012,3.6012,3.6012,3.6012,3.6012,3.6012,3.6012,3.6012,3.6014,3.6021,3.6006,3.6013,3.6016,3.5975,3.595,3.596,3.5947,3.5892,3.583,3.5772,3.5732,3.5713,3.5701,3.5704,3.5704,3.5704,3.5704,3.5704,3.5704,3.5704,3.5704,3.5704,3.5704,3.5704,3.5704,3.5704,3.5704,3.5704,3.5704,3.5704,3.5704,3.5704,3.5704,3.5704,3.5704,3.5704,3.5704,3.5698,3.5645,3.5553,3.547,3.543,3.5416,3.543,4.032,4.032,4.032,4.032,4.032,4.032,4.032,4.032,4.032,4.032,4.032,4.032,4.032,4.032,4.032,4.032,4.032,4.032,4.032,4.031,4.0337,4.0337,4.0354,4.0386,4.0465,4.0523,4.0628,4.0751,4.0804,4.0868,4.0888,4.0888,4.0888,4.0926,4.0707,3.9248,3.8462,3.8168,3.6993,3.5937,3.5986,3.601,3.6012,3.6012,3.6012,3.6012,3.6012,3.6012,3.6012,3.6012,3.6012,3.6012,3.6012,3.6012,3.6012,3.6012,3.6012,3.6012,3.6012,3.6012,3.6012,3.6012,3.6012,3.6016,3.6017,3.6013,3.6012,3.6014,3.6016,3.6004,3.6009,3.5995,3.5996,3.5972,3.5945,3.5928,3.5923,3.5894,3.582,3.5771,3.5736,3.5713,3.5716,3.5704,3.5704,3.5704,3.5704,3.5704,3.5704,3.5704,3.5704,3.5704,3.5704,3.5704,3.5704,3.5704,3.5704,3.5704,3.5704,3.5704,3.5704,3.5704,3.5704,3.5704,3.5704,3.5704,3.5704,3.5704,3.5687,3.5602,3.5515,3.5362,3.5304,3.5274,3.5258,4.032,4.032,4.032,4.032,4.032,4.032,4.032,4.032,4.032,4.032,4.032,4.032,4.032,4.032,4.032,4.032,4.032,4.032,4.032,4.0318,4.0353,4.0377,4.0419,4.0504,4.06,4.0701,4.0788,4.0815,4.0863,4.0893,4.0888,4.0888,4.0893,4.092,4.0747,3.9227,3.8447,3.8229,3.6934,3.6024,3.601,3.6012,3.6012,3.6012,3.6012,3.6012,3.6012,3.6012,3.6012,3.6012,3.6012,3.6012,3.6012,3.6012,3.6012,3.6012,3.6012,3.6012,3.6012,3.6012,3.6013,3.6013,3.6016,3.6004,3.6005,3.6017,3.6014,3.6019,3.6005,3.6011,3.5995,3.5995,3.5971,3.594,3.5923,3.5912,3.5888,3.5811,3.5741,3.5723,3.5707,3.5711,3.5709,3.5704,3.5704,3.5704,3.5704,3.5704,3.5704,3.5704,3.5704,3.5704,3.5704,3.5704,3.5704,3.5704,3.5704,3.5704,3.5704,3.5704,3.5704,3.5704,3.5704,3.5704,3.5704,3.5704,3.5704,3.5704,3.5662,3.5571,3.5457,3.5319,3.5192,3.5144,3.5138,4.032,4.032,4.032,4.032,4.032,4.032,4.032,4.032,4.032,4.032,4.032,4.032,4.032,4.032,4.032,4.032,4.032,4.032,4.0337,4.0351,4.0383,4.043,4.0515,4.0628,4.0681,4.0794,4.0826,4.0868,4.0883,4.0888,4.0888,4.0893,4.0887,4.0727,4.0379,3.9162,3.8273,3.789,3.6612,3.6108,3.6012,3.6012,3.6012,3.6012,3.6012,3.6012,3.6012,3.6012,3.6012,3.6012,3.6012,3.6012,3.6012,3.6012,3.6012,3.6012,3.6012,3.6012,3.6012,3.6013,3.6017,3.6021,3.6005,3.6012,3.6016,3.6015,3.6015,3.6015,3.6015,3.6015,3.5971,3.5941,3.5929,3.591,3.5895,3.5889,3.5849,3.5769,3.5737,3.5707,3.5701,3.5701,3.5704,3.5704,3.5704,3.5704,3.5704,3.5704,3.5704,3.5704,3.5704,3.5704,3.5704,3.5704,3.5704,3.5704,3.5704,3.5704,3.5704,3.5704,3.5704,3.5704,3.5704,3.5704,3.5704,3.5704,3.5704,3.5704,3.5645,3.5553,3.5423,3.5281,3.5179,3.506,3.5027,4.032,4.032,4.032,4.032,4.032,4.032,4.032,4.032,4.032,4.032,4.032,4.032,4.032,4.032,4.032,4.032,4.032,4.032,4.0345,4.0383,4.043,4.0523,4.0641,4.0725,4.0792,4.0826,4.0849,4.0869,4.0888,4.0917,4.093,4.0906,4.0688,4.0477,3.9672,3.8778,3.7979,3.739,3.6578,3.6109,3.6012,3.6012,3.6012,3.6012,3.6012,3.6012,3.6012,3.6012,3.6012,3.6012,3.6012,3.6012,3.6012,3.6012,3.6012,3.6012,3.6012,3.6012,3.6012,3.6017,3.6006,3.6012,3.6014,3.6015,3.6011,3.5989,3.599,3.5987,3.5987,3.5986,3.5932,3.5916,3.5897,3.5877,3.5883,3.5859,3.5799,3.5733,3.5722,3.5709,3.5709,3.5704,3.5704,3.5704,3.5704,3.5704,3.5704,3.5704,3.5704,3.5704,3.5704,3.5704,3.5704,3.5704,3.5704,3.5704,3.5704,3.5704,3.5704,3.5704,3.5704,3.5704,3.5704,3.5704,3.5704,3.5698,3.5704,3.5704,3.562,3.554,3.5409,3.5274,3.5195,3.5088,3.4982,4.032,4.032,4.032,4.032,4.032,4.032,4.032,4.032,4.032,4.032,4.032,4.032,4.032,4.032,4.032,4.031,4.0319,4.0319,4.0344,4.0389,4.0515,4.0641,4.0751,4.0826,4.0873,4.0888,4.0874,4.0883,4.0912,4.0958,4.098,4.096,4.0162,3.9864,3.958,3.8562,3.7439,3.6926,3.6519,3.6012,3.6012,3.6012,3.6012,3.6012,3.6012,3.6012,3.6012,3.6012,3.6012,3.6012,3.6012,3.6012,3.6012,3.6012,3.6012,3.6012,3.6012,3.6012,3.6013,3.6005,3.6012,3.6015,3.5996,3.5969,3.5958,3.5929,3.5926,3.5931,3.5935,3.5928,3.5894,3.5895,3.5894,3.5875,3.5876,3.5807,3.5732,3.5718,3.5715,3.5709,3.5704,3.5704,3.5704,3.5704,3.5704,3.5704,3.5704,3.5704,3.5704,3.5704,3.5704,3.5704,3.5704,3.5704,3.5704,3.5704,3.5704,3.5704,3.5704,3.5704,3.5704,3.5704,3.5704,3.5662,3.5662,3.5656,3.5668,3.5628,3.5633,3.5534,3.5402,3.5274,3.5195,3.5088,3.4973]}]]